     2              OBSERVATION DATA    GPS                 RINEX VERSION / TYPE
teqc 1997Jun30 19970702                                     PGM / RUN BY / DATE
                                                            COMMENT
BIT 2 OF LLI FLAGS DATA COLLECTED UNDER A-S CONDITION       COMMENT
BIT 2 OF LLI FLAGS DATA COLLECTED UNDER A-S CONDITION       COMMENT
Original Marker Name: HMCP                                  COMMENT
Campaign Name: HMC San Gabriel Valley 1993-1996             COMMENT
4-Character Station Name: HMCP                              COMMENT
6-Character Antenna Code: DMRCHT                            COMMENT
Vertical Measurement Point: BPA                             COMMENT
Vertical Offset to Rinex Ref. Point: 0.0000                 COMMENT
Radial Measurement Point: RRP                               COMMENT
Radial Offset to Rinex Ref. Point: 0.0000                   COMMENT
Antenna Height from Field Measurement: 0.0000 m             COMMENT
Additional Antenna Identification Info.:                    COMMENT
Turborogue and Ashtech Choke Ring                           COMMENT
Fixed antenna mounting on roof of Parsons                   COMMENT
building, HMC.                                              COMMENT
Original XYZ: -2458654.5670 -4680580.7260 3556457.6574      COMMENT
New XYZ position is based on association with SCEC monument COMMENT
E1D0R2C7+0011. Position of that monument is believed to be  COMMENT
valid to within 1 m horizontally; vertical accuracy         COMMENT
should be no worse than 3-times this value.                 COMMENT
                                                            COMMENT
Revised Rinex header created by UCSD GPS archive for        COMMENT
GSAC on 13-Apr-1999 (1999:103) 20:29:59 GMT                 COMMENT
For assistance contact dagnew@ucsd.edu or hjohnson@ucsd.edu COMMENT
                                                            COMMENT
HARVEY MUDD COLLEGE PHYSICS                                 MARKER NAME
MGB HARVEY MUDD COLLEGE                                     OBSERVER / AGENCY
T-262/263 TURBOROGUE SNR-8000 95.03.08                      REC # / TYPE / VERS
260/329 DORNE-MARGOL. TYPE T                                ANT # / TYPE
 -2458598.0000 -4680494.0000  3556451.0000                  APPROX POSITION XYZ
        0.0000        0.0000        0.0000                  ANTENNA: DELTA H/E/N
     1     1     0                                          WAVELENGTH FACT L1/2
     5    L1    L2    C1    P2    P1                        # / TYPES OF OBSERV
     0                                                      INTERVAL
  1996     4    24     0     0    0.000000                  TIME OF FIRST OBS
  1996     4    24    23    49   30.000000                  TIME OF LAST OBS
     0                                                      # OF SATELLITES
                                                            END OF HEADER
 96  4 24  0  0  0.0000000  0  8G 6G 4G17G 9G16G24G20G 5
 -13001651.36144 -10131149.12644  22441856.0374   22441855.8634
   2657569.63844   2070836.93144  24541353.4004   24541352.7804
   -583845.14044   -454942.38844  25286322.3524
   -356986.02744   -278182.57744  24870133.4804   24870135.7584
 -15211052.84044 -11852755.06144  21521996.7354   21521997.1624
  -9862111.32444  -7684754.14944  21769585.8944   21769586.0834
 -22426092.78644 -17474870.32244  20698369.6554   20698369.5574
 -25853292.95944 -20145414.02744  20352148.9504   20352148.5374
 96  4 24  0  0 30.0000000  0  8G 6G 4G17G 9G16G24G20G 5
 -13064678.42544 -10180261.09244  22429862.1964   22429862.0554
   2753429.04044   2145532.57644  24559595.3974   24559595.8604
   -680758.42744                  25267874.3984
   -268299.69744   -209076.56144  24887008.3794   24887014.8394
 -15265859.74344 -11895461.70644  21511567.3994   21511568.2064
  -9794516.97044  -7632083.22944  21782448.6034   21782449.0064
 -22463608.73844 -17504103.52244  20691230.4604   20691230.3904
 -25826384.66344 -20124446.53144  20357269.3964   20357269.0504
 96  4 24  0  1  0.0000000  0  7G 6G16G 4G 9G24G20G 5
 -13127670.26944 -10229345.61744  22417874.7184   22417875.0984
 -15320184.13044 -11937792.37244  21501229.5674   21501230.3274
   2849235.64944   2220187.07244  24577826.1864   24577829.5004
   -179740.37044   -140069.48344  24903862.6554   24903867.3474
  -9726761.93144  -7579287.10344  21795341.6764   21795341.8784
 -22500622.45344 -17532945.36944  20684187.0334   20684186.8434
 -25798968.12944 -20103083.00644  20362486.5464   20362486.0704
 96  4 24  0  1 30.0000000  0  7G 6G16G 4G 9G24G20G 5
 -13190624.86444 -10278401.12344  22405894.9014   22405894.8604
 -15374030.56344 -11979750.59544  21490982.8354   21490983.5344
   2944996.40744   2294805.79344  24596048.8974
    -91279.93744    -71139.49844  24920695.3904   24920697.5054
  -9658829.24844  -7526352.54944  21808268.8994   21808269.4234
 -22537118.96444 -17561384.20344  20677241.7274   20677241.6204
 -25771013.40544 -20081300.11144  20367806.2944   20367805.7764
 96  4 24  0  2  0.0000000  0  8G 6G16G 4G17G 9G24G20G 5
 -13253517.30044 -10327408.20144  22393927.4484   22393927.4174
 -15427375.79144 -12021318.28244  21480831.1954   21480831.7954
   3040743.36544   2369413.78344  24614268.3124
  24614270.4264          0.07054  25212704.6924
     -2890.53144     -2264.85544  24937517.0664   24937520.2484
  -9590712.19244  -7473274.32844  21821230.9114   21821231.4244
 -22573063.80644 -17589393.16344  20670401.8554   20670402.0844
 -25742496.83244 -20059079.41644  20373232.7534   20373232.2674
 96  4 24  0  2 30.0000000  0  8G 6G16G 4G17G 9G24G20G 5
 -13316354.04444 -10376371.87344  22381970.0514   22381969.5514
 -15480240.45544 -12062511.49444  21470771.4884   21470772.2894
   3136458.08544   2443996.68244  24632482.0564   24632483.0414
    -96399.26044    -75115.86744  25194364.8994
     85394.10744     66528.18244  24954315.9054   24954320.5704
  -9522430.32444  -7420067.68344  21834225.0224   21834224.9974
 -22608474.32244 -17616985.76644  20663663.6494   20663663.6304
 -25713432.58744 -20036431.96144  20378763.5034   20378763.0784
 96  4 24  0  3  0.0000000  0  8G 6G16G 4G17G 9G24G20G 5
 -13379124.28644 -10425283.72544  22370025.0544   22370025.2204
 -15532629.73644 -12103334.27844  21460802.5454   21460803.1494
   3232139.02344   2518553.22044  24650690.7114   24650693.0314
   -192697.72744   -150153.31844  25176040.6824   25176041.1964
    173555.76044    135225.42644  24971093.7424   24971092.6694
  -9453978.71944  -7366728.77544  21847250.4994   21847250.9994
 -22643354.41044 -17644165.05244  20657025.7544   20657025.6904
 -25683812.35244 -20013351.26844  20384399.9804   20384399.6564
 96  4 24  0  3 30.0000000  0  8G 6G16G24G 4G17G 9G20G 5
 -13441833.28044 -10474147.85044  22358091.8294   22358091.6024
 -15584542.84944 -12143786.03144  21450923.7314   21450924.2224
  -9385357.89944  -7313258.02544  21860308.8124   21860309.4744
   3327780.36144   2593078.87844  24668890.3574   24668887.8474
   -288891.20144   -225108.97144  25157735.6924   25157736.3044
    261567.70644    203805.90344  24987841.2164   24987842.3784
 -22677712.92044 -17670937.91244  20650487.6674   20650487.6854
 -25653632.00744 -19989834.12544  20390143.1864   20390142.9394
 96  4 24  0  4  0.0000000  0  8G 6G16G24G 4G17G 9G20G 5
 -13504471.57744 -10522956.89044  22346172.2474   22346172.0534
 -15635955.86744 -12183848.09544  21441140.2714   21441140.6484
  -9316576.55844  -7259662.18344  21873397.6124   21873397.9414
   3423380.22844   2667572.25744  24687083.0794   24687086.9474
   -384967.37044   -299973.23744  25139452.9004   25139453.2694
    349414.35844    272257.60244  25004558.3674   25004567.5514
 -22711557.46144 -17697310.27144  20644047.2074   20644047.2834
 -25622910.01044 -19965894.91744  20395989.2184   20395988.9974
 96  4 24  0  4 30.0000000  0  8G 6G16G24G 4G17G 9G20G 5
 -13567037.13344 -10571709.25444  22334266.0654   22334266.2794
 -15686860.49744 -12223514.00644  21431452.6104   21431453.5314
  -9247616.11744  -7205926.77944  21886520.2534   21886519.8174
   3518925.63944   2742023.19944  24705264.1094
   -480913.22544   -374736.01244  25121195.0614   25121194.7124
    437094.98544    340579.94444  25021242.6854   25021244.0234
 -22744882.62444 -17723277.92844  20637705.6834   20637705.5184
 -25591643.92744 -19941531.74644  20401939.2704   20401939.0014
 96  4 24  0  5  0.0000000  0  8G 6G16G24G 4G17G 9G20G 5
 -13629544.94244 -10620416.61544  22322371.3944   22322371.1084
 -15737256.97544 -12262783.96644  21421862.7634   21421863.4224
  -9178476.55244  -7152051.78944  21899677.3134   21899677.0014
   3614428.52244   2816441.02044  24723436.7644   24723435.6424
   -576734.33044   -449401.55344  25102957.3444   25102958.2024
    524612.32444    408775.04644  25037897.8614
 -22777681.92644 -17748835.81944  20631464.4714   20631464.1954
 -25559840.28944 -19916749.69944  20407991.0854   20407990.6544
 96  4 24  0  5 30.0000000  0  8G 6G16G24G 4G17G 9G20G 5
 -13692004.78544 -10669086.60644  22310485.1864   22310484.7084
 -15787138.20944 -12301652.43144  21412370.6624   21412371.3444
  -9109152.06944  -7098032.71944  21912869.1524   21912869.2854
   3709897.71144   2890832.50744  24741604.4894   24741603.3014
   -672423.75244                  25084741.3964
    611989.63044                  25054525.7214
 -22809941.79244 -17773973.37744  20625325.7244   20625325.7214
 -25527507.65244 -19891555.44444  20414143.8484   20414143.5004
 96  4 24  0  6  0.0000000  0  8G 6G16G24G 4G17G 9G20G 5
 -13754379.25144 -10717690.06244  22298616.0564   22298615.4264
 -15836490.74744 -12340108.92544  21402979.2264   21402979.8884
  -9039621.50544  -7043853.07544  21926100.8914   21926100.9454
   3805375.73144   2965230.98844  24759772.8544   24759773.9494
   -767953.65144   -598403.05244  25066563.0804
    699253.46044                  25071130.3144
 -22841627.93944 -17798663.87344  20619295.9214   20619295.8234
 -25494625.73144 -19865933.17944  20420400.8114   20420400.5164
 96  4 24  0  6 30.0000000  0  8G 6G16G24G 4G17G 9G20G 5
 -13816734.22244 -10766278.33544  22286750.4384   22286749.7584
 -15885403.71444 -12378222.90344  21393671.1684   21393671.7564
  -8969960.65344  -6989571.91044  21939356.5544   21939356.9464
   3900795.43144   3039583.99744  24777931.2744   24777930.9974
   -863403.77744                  25048400.9334
    786317.54844    612700.47944  25087699.8204
 -22872803.12444 -17822956.22444  20613363.2874   20613362.9984
 -25461258.56444 -19839932.80144  20426750.5454   20426750.3224
 96  4 24  0  7  0.0000000  0  8G 6G16G24G 4G17G 9G20G 5
 -13879045.29244 -10814832.39444  22274892.9414   22274892.7804
 -15933850.59544 -12415973.69744  21384451.9394   21384452.7344
  -8900162.16244  -6935183.49044  21952638.6564   21952638.9294
   3996184.48344   3113913.14744  24796084.9364   24796085.6304
   -958749.09944   -747074.36044  25030259.8144
    873195.87244    680397.62744  25104231.8434
 -22903451.94844 -17846838.42044  20607530.9974   20607531.3194
 -25427381.91644 -19813535.42544  20433197.2984   20433196.8484
 96  4 24  0  7 30.0000000  0  8G 6G16G24G 4G17G 9G20G 5
 -13941259.35244 -10863310.87044  22263054.0094   22263053.8654
 -15981794.90544 -12453332.87644  21375328.3784   21375329.0674
  -8830184.12244  -6880655.15244  21965954.9834   21965955.0204
   4091555.71844   3188228.38944  24814233.6284   24814235.3604
  -1053942.96544   -821251.13544  25012146.0714
    959912.66644    747968.88644  25120734.6884   25120737.8834
 -22933545.44944 -17870287.89844  20601804.5274   20601804.5604
 -25392958.56344 -19786712.04144  20439747.7794   20439747.4104
 96  4 24  0  8  0.0000000  0  8G 6G16G24G 4G17G 9G20G 5
 -14003372.98144 -10911711.08744  22251234.1604   22251234.0644
 -16029256.36844 -12490315.81144  21366296.8834   21366297.6834
  -8760037.51544  -6825995.46044  21979303.7344   21979303.9154
   4186888.07644   3262513.35444  24832374.7684   24832374.2664
  -1149006.23644   -895326.23944  24994057.8794   24994060.1804
   1046434.20444    815387.94244  25137198.0674   25137202.7034
 -22963108.17444 -17893323.78544  20596179.0564   20596179.1294
 -25357990.20044 -19759463.97844  20446402.1434   20446401.7544
 96  4 24  0  8 30.0000000  0  8G 6G16G24G 4G17G 9G20G 5
 -14065377.99244 -10960026.66244  22239434.5664   22239434.9924
 -16076184.09144 -12526882.84244  21357366.8774   21357367.4734
  -8689694.32744  -6771182.59744  21992689.4394   21992689.6094
   4282192.87744   3336776.78544  24850510.6674   24850510.5444
  -1243914.37644   -969280.43044  24975997.4034   24975997.9594
   1132794.96644    882681.79444  25153633.7254   25153638.7674
 -22992120.86844 -17915931.07744  20590657.9394   20590657.7544
 -25322443.04344 -19731764.90444  20453166.3264   20453165.9764
 96  4 24  0  9  0.0000000  0  8G 6G16G24G 4G17G 9G20G 5
 -14127286.35744 -11008266.93344  22227654.4394   22227653.9354
 -16122557.92344 -12563018.26744  21348542.2444   21348542.9194
  -8619137.36044  -6716203.14944  22006115.9494   22006116.4344
   4377461.60244   3411012.10644  24868638.1854   24868640.2264
  -1338658.80544  -1043107.10344  24957967.1944   24957967.2134
   1219013.64744    949864.92144  25170039.6934   25170046.4694
 -23020575.43344 -17938103.46244  20585243.1684   20585243.2254
 -25286321.89044 -19703618.56044  20460040.0444   20460039.7034
 96  4 24  0  9 30.0000000  0  8G 6G16G24G 4G17G 9G20G 5
 -14189150.41444 -11056472.67844  22215881.7014   22215881.4474
 -16168425.93744 -12598759.55044  21339813.8224   21339814.8204
  -8548425.34144  -6661102.88344  22019571.6724   22019571.9914
   4472642.21144                  24886748.3544
  -1433290.08744  -1116845.58844  24939959.1734   24939961.9794
   1305050.69644   1016906.46444  25186411.9814   25186416.1194
 -23048507.08144 -17959868.38044  20579927.8214   20579927.8964
 -25249683.51044 -19675069.18344  20467011.9004   20467011.5854
 96  4 24  0 10  0.0000000  0  8G 6G16G24G 4G17G 9G20G 5
 -14250972.02144 -11104645.34544  22204117.6944   22204117.1544
 -16213770.29644 -12634092.78844  21331184.7534   21331185.7534
  -8477569.78344  -6605890.77244  22033055.0334   22033055.6174
   4567764.03944   3559299.70944  24904850.1344
  -1527798.11544  -1190488.01744  24921971.8854   24921978.1924
   1390932.34044   1083826.98244  25202754.6814
 -23075890.27944 -17981205.93844  20574717.0514   20574717.0404
 -25212522.71744 -19646112.73244  20474083.4764   20474083.1474
 96  4 24  0 10 30.0000000  0  8G 6G16G24G 4G17G 9G20G 5
 -14312746.46644 -11152781.25644  22192362.5804   22192362.0664
 -16258558.40044 -12668992.58044  21322661.7664   21322662.6844
  -8406558.08744  -6550556.99144  22046568.0954   22046568.7284
   4662849.29944   3633392.13644  24922945.2944
  -1622147.16744                  24904014.4084
   1476696.67544                  25219074.2414
 -23102685.76144 -18002085.53144  20569617.9724   20569618.0484
 -25174821.59344 -19616735.24344  20481257.7944   20481257.4474
 96  4 24  0 11  0.0000000  0  8G 6G16G24G 4G17G 9G20G 5
 -14374545.42744 -11200936.27244  22180602.3044   22180602.1024
 -16302890.64144 -12703537.15544  21314226.0774   21314226.5244
  -8335490.77944  -6495179.87844  22060092.1644   22060092.5684
   4757814.06144                  24941017.6414
  -1716409.09444                  24886078.0124
   1562258.29644   1217327.05744  25235357.6194
 -23128953.58144 -18022553.95944  20564619.3334   20564619.5134
 -25136678.03644 -19587013.00244  20488516.2674   20488515.9264
 96  4 24  0 11 30.0000000  0  8G 6G16G24G 4G17G 9G20G 5
 -14436441.03744 -11249166.59744  22168824.2304   22168823.7154
 -16346867.29544 -12737804.65144  21305857.1764   21305857.6424
  -8264475.03044  -6439842.93444  22073605.7524   22073606.7234
   4852579.44244                  24959051.1364
  -1810663.87944                  24868143.7164
   1647527.74344                  25251583.5384
 -23154790.90244 -18042686.94144  20559702.5714   20559702.8674
 -25098166.15044 -19557003.74944  20495844.7194   20495844.5994
 96  4 24  0 12  0.0000000  0  8G 6G16G24G 4G17G 9G20G 5
 -14498249.18944 -11297328.76944  22157062.2234   22157061.8234
 -16390306.65444 -12771653.48044  21297591.0544   21297591.6504
  -8193314.64344  -6384393.29644  22087147.0214   22087147.3454
   4947313.93044                  24977079.5834
  -1904721.33144  -1484193.63144  24850247.1374
   1732678.39844                  25267788.2284
 -23180024.21244 -18062349.25744  20554901.0384   20554901.1014
 -25059101.09744 -19526563.45944  20503278.4284   20503278.2494
 96  4 24  0 12 30.0000000  0  8G 6G16G24G 4G17G 9G20G 5
 -14559888.65444 -11345359.50344  22145332.4574   22145332.3314
 -16433120.46844 -12805014.87044  21289444.0464   21289444.7924
  -8121911.24944  -6328754.29044  22100734.6314   22100734.6474
   5042074.07344                  24995110.4024
  -1998500.60244  -1557268.23944  24832401.4704   24832403.2714
   1817776.16644   1416430.99744  25283982.1554
 -23204589.55844 -18081491.08844  20550226.3284   20550226.2654
 -25019404.79944 -19495631.29044  20510832.7014   20510832.5384
 96  4 24  0 13  0.0000000  0  8G 6G16G24G 4G17G 9G20G 5
 -14621315.94144 -11393224.90044  22133642.8454   22133642.6494
 -16475264.62844 -12837854.45644  21281424.0024   21281424.8934
  -8050222.08444  -6272892.60144  22114376.6974   22114377.1574
   5136886.39544                  25013151.9024
  -2091995.40944  -1630121.12844  24814609.7044   24814609.2444
   1902833.20144   1482708.94944  25300167.7844   25300175.2194
 -23228471.60044 -18100100.47344  20545681.8694   20545681.8894
 -24979052.95144 -19464188.30344  20518511.4624   20518511.2204
 96  4 24  0 13 30.0000000  0  8G 6G16G24G 4G17G 9G20G 5
 -14682568.56544 -11440954.19544  22121986.9124   22121986.9044
 -16516765.58844 -12870192.84844  21273527.1434   21273527.9064
  -7978266.19444  -6216823.08744  22128069.7584   22128070.2534
   5231711.96244                  25031197.5304
  -2185264.15744                  24796860.5364
   1987792.70244   1548910.83044  25316335.2454
 -23251729.96944 -18118223.88144  20541255.9604   20541255.6994
 -24938072.49544 -19432255.49044  20526309.8164   20526309.4704
 96  4 24  0 14  0.0000000  0  8G 6G16G24G 4G17G 9G20G 5
 -14743813.72844 -11488677.67644  22110332.6394   22110332.2174
 -16557762.61344 -12902138.55944  21265725.5824   21265726.0484
  -7906188.90644  -6160658.97844  22141785.5934   22141785.8934
   5326385.19144                  25049213.9244
  -2278467.74044  -1775423.89144  24779125.4674   24779124.5324
   2072486.46944                  25332451.6094
 -23274509.15344 -18135973.89344  20536920.9184   20536921.1994
 -24896632.52744 -19399964.61544  20534195.3784   20534195.0934
 96  4 24  0 14 30.0000000  0  8G 6G16G24G 4G17G 9G20G 5
 -14805014.16544 -11536366.31344  22098686.6534   22098686.0974
 -16598234.95144 -12933675.43044  21258023.5094   21258024.1894
  -7833964.43444  -6104380.17144  22155529.3384   22155529.8154
   5420949.91944                  25067209.5544
  -2371587.13844  -1847984.31844  24761405.3714   24761404.2874
   2156931.58244                  25348521.7414
 -23296771.63644 -18153321.28344  20532684.7454   20532684.5174
 -24854703.99144 -19367293.04344  20542173.9124   20542173.6094
 96  4 24  0 15  0.0000000  0  8G 6G16G24G 4G17G 9G20G 5
 -14866130.60844 -11583989.49644  22087056.6784   22087056.6044
 -16638176.66444 -12964798.83144  21250423.0404   21250423.5504
  -7761584.52244  -6047980.24344  22169302.0954   22169303.0514
   5515455.05044                  25085191.7614
  -2464590.67844  -1920454.41044  24743707.2754   24743711.0274
   2241147.72944                  25364547.9554
 -23318467.87044 -18170227.43844  20528556.1134   20528556.1174
 -24812253.58144 -19334214.81244  20550252.2484   20550251.9744
 96  4 24  0 15 30.0000000  0  8G 6G16G24G 4G17G 9G20G 5
 -14927194.43944 -11631571.68144  22075436.5854   22075436.1314
 -16677640.63744 -12995549.96544  21242912.8934   21242913.7964
  -7689098.88644  -5991497.94144  22183095.8704   22183096.5124
   5609875.51844                  25103158.5654
  -2557474.08744  -1992830.96844  24726031.4754   24726034.6474
   2325116.04344                  25380525.8554
 -23339621.22244 -18186710.57144  20524530.8994   20524530.7714
 -24769309.51144 -19300751.91244  20558424.2874   20558423.9804
 96  4 24  0 16  0.0000000  0  8G 6G16G24G 4G17G 9G20G 5
 -14988193.43344 -11679103.33644  22063828.7624   22063828.8524
 -16716630.64244 -13025931.77444  21235493.6834   21235494.1434
  -7616511.92644  -5934936.68344  22196909.1094   22196909.6724
   5704226.70944                  25121111.6664
  -2650219.24744  -2065099.73444  24708380.2434
   2408855.99744                  25396459.7494
 -23360222.44544 -18202763.47444  20520610.1394   20520610.2704
 -24725870.63244 -19266903.44544  20566690.4634   20566690.1414
 96  4 24  0 16 30.0000000  0  7G 6G16G24G17G 9G20G 5
 -15049102.21544 -11726564.70244  22052238.3614   22052238.1644
 -16755137.01844 -13055936.73244  21228166.0494   21228166.6394
  -7543821.85644  -5878295.07744  22210741.2054   22210741.6954
  -2742820.59944  -2137256.44844  24690757.8404
   2492387.92444                  25412357.6604
 -23380262.98144 -18218379.47644  20516796.8644   20516796.9304
 -24681910.79344 -19232649.04044  20575055.4824   20575055.4584
 96  4 24  0 17  0.0000000  0  7G 6G16G24G17G 9G20G 5
 -15109879.33944 -11773923.48044  22040672.8224   22040672.1994
 -16793083.63644 -13085505.52444  21220945.1914   21220945.7404
  -7470989.67044  -5821542.72144  22224601.2004   22224601.4304
  -2835216.97444  -2209253.43844  24673175.4734   24673178.1864
   2575772.66744                  25428226.0784
 -23399702.06844 -18233526.81844  20513097.8794   20513097.9214
 -24637375.98944 -19197946.60844  20583530.2494   20583529.9904
 96  4 24  0 17 30.0000000  0  7G 6G16G24G17G 9G20G 5
 -15170547.02344 -11821196.98044  22029127.9474   22029127.8124
 -16830459.73344 -13114629.74844  21213832.6454   21213833.2254
  -7398021.11844  -5764684.12544  22238486.4984   22238486.7784
  -2927435.31444  -2281111.71544  24655626.5314
   2659002.18744                  25444063.5934
 -23418573.17144 -18248231.57244  20509506.3544   20509506.6894
 -24592274.90744 -19162802.92044  20592112.7004   20592112.6284
 96  4 24  0 18  0.0000000  0  8G 6G16G24G25G17G 9G20G 5
 -15231151.56244 -11868421.27644  22017595.2104   22017594.7914
 -16867287.02744 -13143326.33144  21206824.4534   21206824.9874
  -7324949.46644  -5707745.18844  22252391.7204   22252392.0144
         0.01554                  25123913.0044
  -3019547.46344  -2352887.25344  24638097.9564
   2742017.29044                  25459861.7484
 -23436912.03644 -18262521.59844  20506016.5254   20506016.6594
 -24546644.25544 -19127246.58344  20600795.8264   20600795.6394
 96  4 24  0 18 30.0000000  0  8G 6G16G24G25G17G 9G20G 5
 -15291646.99844 -11915560.56544  22006083.1974   22006082.8694
 -16903487.43744 -13171534.42844  21199935.9704   21199936.8294
  -7251714.86744  -5650679.27044  22266327.5124   22266328.2094
    -22824.29144                  25119570.1784
  -3111481.95044  -2424524.45444  24620603.4144
   2824867.73744                  25475626.8404
 -23454645.35644 -18276339.76944  20502642.0244   20502641.9674
 -24500436.58544 -19091240.61944  20609588.9374   20609588.8354
 96  4 24  0 19  0.0000000  0  7G 6G16G24G25G17G20G 5
 -15352118.95244 -11962681.54644  21994575.6894   21994575.4894
 -16939135.65944 -13199312.24544  21193152.0724   21193152.9984
  -7178391.03044  -5593543.81644  22280280.2804   22280280.4994
    -45179.68244    -35205.25544  25115316.3964   25115317.5804
  -3203303.16544  -2496073.25744  24603132.0944   24603136.5374
 -23471836.69744 -18289735.61744  20499370.8574   20499370.8844
 -24453746.95744 -19054859.10544  20618473.6954   20618473.5684
 96  4 24  0 19 30.0000000  0  7G 6G16G24G25G17G20G 5
 -15412582.53344 -12009796.00444  21983070.0864   21983069.7114
 -16974266.86244 -13226687.18944  21186466.7684   21186467.6644
  -7104998.69644  -5536354.99744  22294246.3634   22294246.8874
    -67084.26844    -52273.77044  25111148.5334
  -3295032.47044  -2567550.46644  24585676.7784   24585679.8504
 -23488496.41444 -18302717.21444  20496200.3754   20496200.6484
 -24406616.03944 -19018133.72644  20627442.2414   20627442.2204
 96  4 24  0 20  0.0000000  0  8G 6G16G24G25G17G 4G20G 5
 -15472993.35444 -12056869.35944  21971574.3954   21971574.3074
 -17008840.26044 -13253627.47044  21179887.7114   21179888.4294
  -7031501.48044  -5479084.44344  22308232.8304   22308232.6244
    -88505.41644                  25107073.4594
  -3386603.08944  -2638904.06344  24568252.6484   24568252.8784
        -0.55754                  25264371.2774
 -23504560.50744 -18315234.69044  20493143.6284   20493143.7774
 -24359022.54944 -18981047.90444  20636499.1184   20636499.0214
 96  4 24  0 20 30.0000000  0  8G 6G16G24G25G17G 4G20G 5
 -15533357.07744 -12103906.01144  21960087.4114   21960087.5904
 -17042872.57344 -13280146.13944  21173411.6814   21173412.2944
  -6957917.20544  -5421746.04644  22322235.5704   22322236.0284
   -109467.82744                  25103085.0144
  -3478003.96344  -2710125.40744  24550860.3224   24550861.3814
     93641.01744                  25282190.4844
 -23520043.82644 -18327299.61544  20490197.4494   20490197.4674
 -24310986.18144 -18943616.98144  20645640.2244   20645640.2644
 96  4 24  0 21  0.0000000  0  8G 6G16G24G25G17G 4G20G 5
 -15593633.16144 -12150874.37944  21948616.9154   21948616.8884
 -17076337.23544 -13306222.48344  21167043.5264   21167044.1774
  -6884219.89344  -5364319.57444  22336259.7654   22336260.1124
   -129946.27044                  25099185.9154
  -3569220.19144  -2781202.89344  24533502.1354   24533499.3314
    187193.04344                  25299993.7154
 -23534932.26444 -18338900.99344  20487364.0164   20487363.9264
 -24262456.25944 -18905801.47144  20654875.1074   20654874.9954
 96  4 24  0 21 30.0000000  0  8G 6G16G24G25G17G 4G20G 5
 -15653819.09944 -12197772.49844  21937164.0134   21937163.8184
 -17109244.65444 -13331864.61044  21160781.5554   21160782.0794
  -6810403.96844  -5306800.67744  22350306.1514   22350306.6804
   -149947.67344                  25095380.4084
  -3660253.98044  -2852138.18844  24516177.8824   24516179.6264
    280661.69944                  25317780.2414
 -23549241.53344 -18350051.07244  20484641.1594   20484641.1124
 -24213422.11244 -18867593.06244  20664205.9064   20664206.1614
 96  4 24  0 22  0.0000000  0  7G 6G16G24G25G17G20G 5
 -15713928.24744 -12244610.78044  21925725.5314   21925725.5684
 -17141612.94944 -13357086.63644  21154621.6734   21154622.3734
  -6736473.19044  -5249192.28544  22364375.0854   22364375.6434
   -169491.85544                  25091656.7654
  -3751123.70944  -2922945.58144  24498884.5644   24498885.5434
 -23562983.47344 -18360759.07744  20482026.2164   20482026.0704
 -24163879.61444 -18828988.53544  20673633.6824   20673633.5344
 96  4 24  0 22 30.0000000  0  6G 6G16G24G17G20G 5
 -15773944.88344 -12291376.97044  21914304.8784   21914304.5784
 -17173455.18744 -13381898.75344  21148562.5554   21148563.1344
  -6662418.98244  -5191487.71644  22378466.4984   22378467.0404
  -3841848.36144  -2993640.02744  24481618.9374   24481622.7954
 -23576169.54244 -18371033.93944  20479516.8994   20479517.2244
 -24113810.39044 -18789973.56844  20683161.5604   20683161.4564
 96  4 24  0 23  0.0000000  0  7G 6G16G24G17G 4G20G 5
 -15833851.83744 -12338057.69244  21902904.9034   21902904.2484
 -17204769.74444 -13406299.69244  21142603.6634   21142604.2624
  -6588231.85544  -5133679.57444  22392584.3524   22392584.7114
  -3932428.41844  -3064221.75944  24464381.6964   24464389.1164
        -0.74354                  25371041.3254
 -23588784.41844 -18380863.71344  20477116.5154   20477116.3844
 -24063208.67044 -18750543.67144  20692790.7504   20692790.6844
 96  4 24  0 23 30.0000000  0  7G 6G16G24G25G17G20G 5
 -15893661.76144 -12384662.80644  21891523.2914   21891522.8794
 -17235580.70844 -13430308.22144  21136740.5384   21136741.3004
  -6513946.51244  -5075794.89844  22406720.0294   22406720.7654
        -0.68354                  25081041.5474
  -4022875.93644  -3134700.24844  24447170.4924   24447174.4094
 -23600837.71744 -18390255.89344  20474822.6764   20474822.7344
 -24012112.27844 -18710728.31444  20702514.1434   20702514.0904
 96  4 24  0 24  0.0000000  0  7G 6G16G25G17G24G20G 5
 -15953353.27844 -12431175.66144  21880164.9804   21880164.3464
 -17265849.74144 -13453894.46844  21130980.5724   21130981.4274
    -17649.12044                  25077684.3034
  -4113174.58644  -3205062.65944  24429987.2184   24429991.6944
  -6439565.76644  -5017835.88244  22420874.9444   22420875.1064
 -23612314.05444 -18399198.49144  20472638.7794   20472639.0024
 -23960507.01244 -18670516.43644  20712334.0964   20712334.2514
 96  4 24  0 24 30.0000000  0  7G 6G16G25G17G24G20G 5
 -16012917.39144 -12477589.24844  21868830.0904   21868829.9054
 -17295545.94244 -13477034.35844  21125329.2184   21125329.7864
    -34795.50344                  25074425.8634
  -4203303.10644  -3275292.55544  24412836.4954   24412842.6284
  -6365095.68344  -4959807.24744  22435046.1424   22435046.0004
 -23623205.49444 -18407685.32944  20470566.2294   20470566.5924
 -23908383.77244 -18629900.93944  20722252.6534   20722252.5874
 96  4 24  0 25  0.0000000  0  7G 6G16G25G17G24G20G 5
 -16072375.69044 -12523920.37544  21857515.2734   21857515.3254
 -17324639.48344 -13499704.64444  21119792.9814   21119793.5194
    -51444.40844                  25071258.9144
  -4293248.07144  -3345379.41944  24395719.9954   24395722.9494
  -6290543.99744  -4901715.02944  22449232.7694   22449232.9124
 -23633505.79344 -18415711.53444  20468606.1514   20468606.4354
 -23855747.05044 -18588885.32744  20732269.4394   20732269.2464
 96  4 24  0 25 30.0000000  0  7G 6G16G25G17G24G20G 5
 -16131729.31744 -12570169.93344  21846220.5214   21846220.5584
 -17353099.33444 -13521881.14244  21114377.4144   21114377.8624
    -67579.59144                  25068190.8164
  -4382996.10944  -3415312.82344  24378642.5664   24378644.4084
  -6215890.21044  -4843543.25944  22463438.3144   22463439.3744
 -23643204.52544 -18423268.98644  20466760.4564   20466760.5754
 -23802579.68944 -18547456.23144  20742386.7324   20742386.6704
 96  4 24  0 26  0.0000000  0  6G 6G16G17G24G20G 5
 -16191034.84944 -12616382.02144  21834935.1834   21834934.7764
 -17380978.42844 -13543605.10144  21109072.0714   21109072.6534
  -4472602.88444  -3485136.17344  24361590.6934   24361593.7574
  -6141155.32444  -4785308.29444  22477660.2034   22477659.9664
 -23652341.82444 -18430388.96044  20465021.7674   20465021.7954
 -23748926.20244 -18505648.33644  20752596.6954   20752596.6164
 96  4 24  0 26 30.0000000  0  6G 6G16G17G24G20G 5
 -16250284.60244 -12662550.64444  21823660.0284   21823660.0374
 -17408286.11744 -13564883.80244  21103875.7164   21103876.3314
  -4562072.68144  -3554852.80244  24344565.4544   24344568.6034
  -6066319.29044  -4726994.49944  22491900.7864   22491901.0504
 -23660891.41844 -18437050.97744  20463394.9804   20463395.2804
 -23694781.46844 -18463457.65144  20762900.2204   20762900.1184
 96  4 24  0 27  0.0000000  0  6G 6G16G17G24G20G 5
 -16309409.21844 -12708621.74844  21812409.0794   21812408.8584
 -17434976.91944 -13585681.80844  21098796.7224   21098797.2894
  -4651360.70444  -3624427.75744  24327573.9264   24327576.9254
  -5991312.29144  -4668547.50244  22506173.7754   22506174.3814
 -23668787.00344 -18443203.38244  20461892.2254   20461892.2264
 -23640094.96044 -18420844.80144  20773306.8704   20773306.4314
 96  4 24  0 27 30.0000000  0  7G 6G16G25G17G24G20G 5
 -16368427.21844 -12754609.78244  21801178.1904   21801177.6514
 -17461104.69444 -13606041.08944  21093824.6304   21093825.2284
        -1.18954        -0.60354  25056818.2384   25056822.5634
  -4740497.16044  -3693884.59644  24310611.3774   24310614.5764
  -5916169.32344  -4609994.56044  22520473.6154   22520473.7704
 -23676052.15744 -18448864.54044  20460509.9364   20460509.8254
 -23584897.60744 -18377833.89044  20783810.7914   20783810.4294
 96  4 24  0 28  0.0000000  0  7G 6G16G25G17G24G20G 5
 -16427334.78744 -12800511.76644  21789968.7234   21789968.3744
 -17486673.32844 -13625964.67844  21088958.7994   21088959.5634
    -13693.80344    -10670.16444  25054210.0614   25054213.4094
  -4829462.00244  -3763207.75544  24293683.0994   24293683.0694
  -5840904.54044  -4551346.68744  22534796.5414   22534797.0654
 -23682681.34144 -18454030.13744  20459248.4224   20459248.3574
 -23529191.45944 -18334426.51544  20794410.9414   20794410.8074
 96  4 24  0 28 30.0000000  0  7G 6G16G25G17G24G20G 5
 -16486117.01644 -12846316.08044  21778783.1814   21778782.5564
 -17511643.63344 -13645422.03244  21084207.3744   21084207.8984
    -26870.59644    -20937.81644  25051705.3594   25051707.6794
  -4918227.00844  -3832375.21144  24276792.2374   24276790.2984
  -5765522.74644  -4492607.63444  22549141.1504   22549141.4714
 -23688671.46644 -18458697.76944  20458108.4334   20458108.7344
 -23472965.91744 -18290614.41944  20805110.2604   20805110.3994
 96  4 24  0 29  0.0000000  0  7G 6G16G25G17G24G20G 5
 -16544804.41644 -12892046.50644  21767614.9914   21767614.3984
 -17536027.59044 -13664422.49544  21079567.3844   21079567.8164
    -39548.75744    -30816.90344  25049294.4974   25049294.5294
  -5006790.37144  -3901385.54144  24259938.4694   24259941.5734
  -5690060.34544  -4433805.77744  22563500.5584   22563500.7154
 -23694065.95144 -18462901.26644  20457081.9774   20457082.2794
 -23416255.20644 -18246424.27244  20815901.9394   20815902.0654
 96  4 24  0 29 30.0000000  0  7G 6G16G25G17G24G20G 5
 -16603416.48344 -12937718.22144  21756461.4994   21756461.3224
 -17559829.07044 -13682969.08244  21075037.9054   21075038.3824
    -51743.57044    -40319.35544  25046976.9504   25046974.9604
  -5095147.77844  -3970235.36844  24243124.8834   24243126.0584
  -5614538.12644  -4374957.31044  22577872.4394   22577872.2744
 -23698895.34444 -18466664.43044  20456162.9734   20456162.9214
 -23359075.86844 -18201868.96244  20826782.9204   20826783.1094
 96  4 24  0 30  0.0000000  0  7G 6G16G25G17G24G20G 5
 -16661923.44844 -12983308.03844  21745327.9724   21745328.0044
 -17583021.41544 -13701041.01944  21070624.5554   21070624.9434
    -63442.17044    -49435.15544  25044751.9184   25044749.7724
  -5183292.90244  -4038919.78944  24226350.7674   24226354.2944
  -5538939.88744  -4316049.59644  22592258.2434   22592258.6144
 -23703159.74144 -18469987.33844  20455351.4994   20455351.8634
 -23301422.98344 -18156944.65644  20837753.9264   20837753.9594
 96  4 24  0 30 30.0000000  0  7G 6G16G25G17G24G20G 5
 -16720309.52544 -13028803.66544  21734217.2814   21734216.7374
 -17605611.76544 -13718643.86744  21066325.7094   21066326.2194
    -74662.98544    -58178.71344  25042617.8484   25042614.6814
  -5271245.81544  -4107454.41844  24209611.3934   24209616.6834
  -5463269.13744  -4257085.38644  22606657.9304   22606658.4364
 -23706864.09944 -18472873.85444  20454646.3424   20454646.5014
 -23243290.51844 -18111646.65044  20848816.2414   20848816.0834
 96  4 24  0 31  0.0000000  0  7G 6G16G25G17G24G20G 5
 -16778590.79044 -13074217.62844  21723126.8514   21723126.0104
 -17627641.07344 -13735809.54144  21062133.1814   21062133.8314
    -85436.50644    -66573.65744  25040568.3594   25040565.3464
  -5359028.80044  -4175856.66044  24192907.8074   24192909.5104
  -5387538.93944  -4198074.85444  22621068.8534   22621069.2554
 -23710014.45944 -18475328.68644  20454047.0264   20454047.2734
 -23184697.77444 -18065989.98244  20859966.2534   20859966.2614
 96  4 24  0 31 30.0000000  0  7G 6G16G25G17G24G20G 5
 -16836755.78244 -13119540.98144  21712058.5184   21712057.9164
 -17649109.71544 -13752538.33244  21058048.3334   21058048.9604
    -95757.56844    -74616.05744  25038604.1284   25038602.6024
  -5446657.28244  -4244138.51544  24176233.6734   24176235.3734
  -5311743.88244  -4139013.77644  22635491.7914   22635492.5404
 -23712590.34444 -18477335.87344  20453556.9004   20453557.1244
 -23125636.24444 -18019968.02844  20871204.9164   20871204.5814
 96  4 24  0 32  0.0000000  0  7G 6G16G25G17G24G20G 5
 -16894812.85944 -13164780.24144  21701010.8704   21701010.3514
 -17670030.03644 -13768839.86044  21054067.0194   21054067.5004
   -105629.23244    -82308.25844  25036724.9684   25036721.8924
  -5534140.14644  -4312306.84844  24159586.1884   24159589.9284
  -5235887.60444  -4079905.00244  22649926.9034   22649927.5024
 -23714572.94644 -18478880.76544  20453179.4294   20453179.8104
 -23066099.09844 -17973575.46044  20882534.5014   20882534.3514
 96  4 24  0 32 30.0000000  0  7G 6G25G17G16G24G20G 5
 -16952762.63344 -13209935.89844  21689983.0364   21689982.4914
   -115032.01644    -89635.09644  25034934.8264   25034931.6584
  -5621452.00744  -4380341.99044  24142970.6134   24142974.0494
 -17690389.33044 -13784704.22344  21050192.9684   21050193.4614
  -5159946.71244  -4020730.29244  22664378.0874   22664378.7014
 -23715931.01044 -18479939.00244  20452920.9294   20452921.2724
 -23006069.47344 -17926799.14544  20893957.8534   20893957.6914
 96  4 24  0 33  0.0000000  0  7G 6G25G17G16G24G20G 5
 -17010611.88044 -13255013.22044  21678974.6464   21678974.6794
   -123954.29444    -96587.54544  25033238.4504   25033238.0554
  -5708586.07044  -4448238.57444  24126389.8814   24126391.2154
 -17710177.42444 -13800123.49544  21046427.3994   21046427.8824
  -5083915.36644  -3961485.10344  22678846.4414   22678846.2924
 -23716664.41044 -18480510.48944  20452781.6164   20452781.7754
 -22945554.63144 -17879644.74344  20905473.1154   20905473.0564
 96  4 24  0 33 30.0000000  0  7G 6G25G17G16G24G20G 5
 -17068349.06444 -13300003.21344  21667987.3274   21667987.6874
   -132381.49444   -103154.20344  25031632.8604   25031630.5104
  -5795534.74344  -4515990.73244  24109844.2534   24109847.4194
 -17729377.21544 -13815084.35244  21042773.8674   21042774.3444
  -5007792.15744  -3902168.31444  22693331.7994   22693332.5904
 -23716782.24744 -18480602.31644  20452759.1334   20452759.0864
 -22884539.08344 -17832100.17544  20917083.9674   20917084.3484
 96  4 24  0 34  0.0000000  0  7G 6G25G17G16G24G20G 5
 -17125971.52544 -13344903.81544  21657022.2344   21657021.8654
   -140299.03744   -109323.72544  25030125.8634   25030127.7114
  -5882285.11544  -4583588.32044  24093336.7584   24093340.7974
 -17747979.84044 -13829579.88244  21039233.6384   21039234.0544
  -4931559.91944  -3842766.58544  22707837.7544   22707838.3534
 -23716289.76244 -18480218.56744  20452852.5604   20452852.9144
 -22823017.72044 -17784161.47344  20928791.1774   20928790.9914
 96  4 24  0 34 30.0000000  0  7G 6G25G17G16G24G20G 5
 -17183467.52944 -13389705.87644  21646081.1304   21646080.7164
   -147701.59544   -115091.95444  25028714.6674   25028715.0604
  -5968835.92844  -4651030.39744  24076865.9764   24076868.9594
 -17765977.13744 -13843603.73144  21035808.9434   21035809.5084
  -4855222.30844  -3783282.74944  22722364.4984   22722364.9694
 -23715203.84544 -18479372.40344  20453059.3294   20453059.7224
 -22761001.70344 -17735837.32244  20940592.5944   20940592.7454
 96  4 24  0 35  0.0000000  0  7G 6G25G17G16G24G20G 5
 -17240862.42344 -13434429.16044  21635159.7644   21635159.2494
   -154620.75244   -120483.55444  25027397.3124   25027400.8384
  -6055211.27544  -4718335.79544  24060428.8094   24060430.3024
 -17783390.45044 -13857172.52344  21032495.3974   21032496.0314
  -4778811.84044  -3723742.13044  22736905.4514   22736906.6534
 -23713560.29644 -18478091.72244  20453372.4084   20453372.6764
 -22698499.58444 -17687134.39444  20952486.5724   20952486.8184
 96  4 24  0 35 30.0000000  0  7G 6G25G17G16G24G20G 5
 -17298164.56944 -13479080.17344  21624255.2934   21624255.0684
   -161067.52444   -125507.00144  25026171.0824   25026171.2254
  -6141419.83344  -4785511.20544  24044024.4104   24044025.6484
 -17800225.29444 -13870290.56944  21029291.5514   21029292.0884
  -4702338.53944  -3664152.56044  22751457.8514   22751458.2604
 -23711361.56844 -18476378.43244  20453790.6094   20453790.6924
 -22635528.40444 -17638065.96444  20964469.2594   20964469.3984
 96  4 24  0 36  0.0000000  0  7G 6G25G17G16G24G20G 5
 -17355375.14944 -13523659.82944  21613368.1694   21613367.7764
   -167053.64744   -130171.51444  25025030.0454   25025031.1274
  -6227469.12944  -4852562.48644  24027650.2214   24027650.9504
 -17816480.77544 -13882957.16344  21026198.3004   21026198.8764
  -4625804.16244  -3604515.38544  22766021.8444   22766022.1624
 -23708590.99344 -18474219.54744  20454317.6324   20454317.8704
 -22572103.26144 -17588643.79244  20976538.9094   20976538.6634
 96  4 24  0 36 30.0000000  0  6G25G 6G17G24G20G 5
   -172577.65844   -134476.01444  25023979.9264   25023982.0384
 -17412477.82044 -13568155.41044  21602502.1124   21602501.7654
  -6313339.62544  -4919474.47044  24011309.1004   24011309.4514
  -4549218.38844  -3544838.16244  22780595.6644   22780596.1464
 -23705232.16244 -18471602.28144  20454956.8584   20454957.2264
 -22508217.16144 -17538862.43044  20988695.9494   20988695.9694
 96  4 24  0 37  0.0000000  0  6G25G 6G17G24G20G 5
   -177652.60944   -138430.49844  25023013.9354
 -17469486.91544 -13612578.07844  21591653.5054   21591653.5984
  -6399044.30744  -4986257.24744  23994999.4704   23995001.6524
  -4472592.24244  -3485129.48544  22795177.4924   22795177.8094
 -23701283.17844 -18468525.15444  20455708.4154   20455708.4364
 -22443877.73644 -17488727.83044  21000939.4854   21000939.4514
 96  4 24  0 37 30.0000000  0  6G25G 6G17G24G20G 5
   -182256.78844                  25022137.5974
 -17526374.70944 -13656906.22044  21580827.8604   21580827.7484
  -6484570.45344  -5052900.90544  23978724.3994   23978727.1144
  -4395912.00544  -3425378.65744  22809769.1044   22809769.5644
 -23696728.77144 -18464976.27144  20456575.1774   20456575.4084
 -22379097.48144 -17438249.72944  21013266.4444   21013266.4774
 96  4 24  0 38  0.0000000  0  7G25G 6G17G16G24G20G 5
   -186372.73044                  25021355.3324
 -17583130.90744 -13701131.81544  21570027.7794   21570027.3974
  -6569899.03044  -5119390.62244  23962487.4804   23962487.9274
         0.24154         0.82854  21014978.8274   21014979.2824
  -4319168.26044  -3365578.34344  22824372.8424   22824372.2994
 -23691560.45244 -18460949.00944  20457558.6014   20457558.9184
 -22313856.54244 -17387412.64744  21025681.4314   21025681.8724
 96  4 24  0 38 30.0000000  0  7G25G 6G17G16G24G20G 5
   -190021.79044   -148068.90344  25020661.8534
 -17639775.07544 -13745270.12744  21559248.8184   21559248.3394
  -6655036.84844  -5185731.69644  23946286.5174   23946288.1134
    -13209.23644    -10292.25944  21012464.8044   21012465.3824
  -4242377.63744  -3305741.51444  22838985.0814   22838986.4964
 -23685804.18444 -18456463.61644  20458653.7694   20458654.2554
 -22248173.18744 -17336230.83544  21038180.6884   21038181.0444
 96  4 24  0 39  0.0000000  0  7G25G 6G17G16G24G20G 5
   -193203.90044   -150548.45144  25020057.8824
 -17696301.43244 -13789316.62644  21548492.0974   21548492.0264
  -6739992.89944  -5251931.12644  23930118.8754   23930119.2224
    -25835.67344    -20131.02644  21010062.3274   21010062.6764
  -4165520.55544  -3245852.88944  22853610.8304   22853610.3564
 -23679451.84844 -18451513.75044  20459862.7914   20459863.0944
 -22182052.39044 -17284708.15844  21050763.1644   21050763.4704
 96  4 24  0 39 30.0000000  0  7G25G 6G17G16G24G20G 5
   -195916.14844   -152661.86444  25019540.3084   25019538.5644
 -17752701.70544 -13833264.87844  21537759.7044   21537759.3204
  -6824753.53744  -5317978.25944  23913988.6014   23913990.7294
    -37885.82944    -29520.74044  21007769.2974   21007769.7334
  -4088591.01044  -3185907.78944  22868249.6404   22868250.6334
 -23672492.45244 -18446090.84744  20461187.0454   20461187.4734
 -22115492.85244 -17232843.60244  21063429.1964   21063429.1514
 96  4 24  0 40  0.0000000  0  7G25G 6G17G16G24G20G 5
   -198183.76444   -154428.87544  25019108.4384   25019105.5644
 -17809001.86844 -13877135.12944  21527045.8334   21527045.3354
  -6909340.36344  -5383889.98344  23897892.7014   23897893.7504
    -49377.31344    -38475.12844  21005582.4324   21005582.8164
  -4011612.58944  -3125924.62444  22882898.2264   22882897.8974
 -23664931.31644 -18440199.05444  20462625.7854   20462625.9854
 -22048503.13344 -17180643.83944  21076177.0054   21076176.9764
 96  4 24  0 40 30.0000000  0  7G25G 6G17G16G24G20G 5
   -200025.69244   -155864.09744  25018760.1384   25018757.6534
 -17865223.43844 -13920944.13944  21516347.3254   21516346.6774
  -6993773.93144  -5449682.30244  23881825.2284   23881828.9494
    -60335.55144    -47013.99844  21003496.9894   21003497.2804
  -3934606.74944  -3065920.07544  22897552.1534   22897553.0314
 -23656789.36444 -18433854.67844  20464175.4154   20464175.6364
 -21981114.36944 -17128133.13544  21089000.4644   21089000.6644
 96  4 24  0 41  0.0000000  0  7G25G 6G17G16G24G20G 5
   -201387.64144   -156925.45544  25018499.4854   25018499.3184
 -17921321.07544 -13964656.57544  21505672.1234   21505671.7624
  -7078009.92344  -5515320.63944  23865794.7634   23865795.9654
    -70712.41244    -55099.84844  21001522.4804   21001522.9094
  -3857540.41644  -3005868.40944  22912217.3864   22912217.7534
 -23648015.07444 -18427017.57244  20465845.0854   20465845.4644
 -21913268.95744 -17075266.60044  21101910.8954   21101911.0974
 96  4 24  0 41 30.0000000  0  7G25G 6G17G16G24G20G 5
   -202270.96744   -157613.79044  25018331.0644   25018331.9784
 -17977300.53344 -14008276.92244  21495019.5034   21495019.1374
  -7162038.96844  -5580797.70044  23849804.7984   23849808.3924
    -80498.42944    -62725.29944  20999660.1314   20999660.7104
  -3780420.62244  -2945775.07844  22926893.1134   22926893.0234
 -23638620.21944 -18419696.91344  20467632.8754   20467633.1244
 -21844960.00644 -17022038.86444  21114909.6484   21114909.9464
 96  4 24  0 42  0.0000000  0  7G25G 6G17G16G24G20G 5
   -202676.45444   -157929.78544  25018253.3064   25018256.9474
 -18033155.48244 -14051800.25344  21484390.7814   21484390.3464
  -7245860.30344  -5646112.92044  23833854.7084   23833856.2444
    -89690.32444    -69887.80444  20997911.0754   20997911.4834
  -3703237.08244  -2885632.05244  22941580.0344   22941581.0764
 -23628622.49544 -18411906.48644  20469535.3674   20469535.4734
 -21776179.56344 -16968443.73344  21127998.1934   21127997.8674
 96  4 24  0 42 30.0000000  0  7G25G 6G17G16G24G20G 5
   -202604.38844   -157873.58544  25018266.4514   25018269.6154
 -18088865.78144 -14095210.85944  21473789.3134   21473789.0214
  -7329463.34344  -5711258.06244  23817945.7534   23817947.6734
    -98278.67044    -76580.00444  20996276.8854   20996277.3394
  -3625974.96744  -2825427.82144  22956283.2804   22956282.9084
 -23618023.32944 -18403647.40044  20471552.2024   20471552.5434
 -21706916.17144 -16914472.27744  21141178.7214   21141179.0544
 96  4 24  0 43  0.0000000  0  7G25G 6G17G16G24G20G 5
   -202084.40944   -157468.43944  25018365.4934   25018365.4084
 -18144440.92244 -14138516.15244  21463213.9144   21463213.5724
  -7412887.60144  -5776263.90944  23802070.9314   23802072.6284
   -106284.74744    -82818.49244  20994753.1844   20994753.7814
  -3548655.53144  -2765178.92044  22970996.8014   22970997.5524
 -23606854.26944 -18394944.24344  20473677.7954   20473678.0194
 -21637193.74944 -16860143.13444  21154446.1784   21154446.2534
 96  4 24  0 43 30.0000000  0  7G25G 6G17G16G24G20G 5
   -201102.45644   -156703.33144  25018552.8964
 -18199858.79844 -14181698.90144  21452668.1924   21452668.0264
  -7496123.96044  -5841123.33544  23786231.5454   23786233.0234
   -113694.65644    -88592.43144  20993343.3204   20993343.6134
  -3471264.55944  -2704874.27744  22985723.7084   22985724.1904
 -23595122.94544 -18385802.95644  20475909.8834   20475909.9974
 -21567027.61044 -16805468.23844  21167798.3594   21167798.5264
 96  4 24  0 44  0.0000000  0  7G25G 6G17G16G24G20G 5
   -199645.07244   -155567.72344  25018830.1154   25018831.6004
 -18255101.99744 -14224745.53744  21442155.4594   21442155.0114
  -7579168.12444  -5905832.97744  23770428.2234   23770428.5534
   -120483.60444    -93882.50844  20992051.3714   20992051.6514
  -3393807.70344  -2644518.30044  23000463.5034   23000464.3924
 -23582808.64444 -18376207.40344  20478253.3244   20478253.5624
 -21496420.75444 -16750449.92744  21181234.5994   21181234.8924
 96  4 24  0 44 30.0000000  0  7G25G 6G17G16G24G20G 5
   -197682.48344                  25019202.0244
 -18310139.75644 -14267632.09244  21431682.5994   21431682.1964
  -7661992.88544  -5970371.69344  23754667.2574   23754668.7114
   -126624.15144    -98667.33644  20990882.8104   20990883.2194
  -3316274.75044  -2584103.00844  23015217.1534   23015217.7284
 -23569872.78244 -18366127.51544  20480715.0064   20480715.3314
 -21425358.31544 -16695076.61344  21194757.4894   21194757.6554
 96  4 24  0 45  0.0000000  0  7G25G 6G17G16G24G20G 5
   -195284.91944                  25019657.1984
 -18365056.84544 -14310424.61244  21421231.9344   21421231.6814
  -7744662.01144  -6034789.11844  23738936.5234   23738938.0764
   -132196.83644   -103009.67444  20989822.2504   20989822.7654
  -3238752.71644  -2523696.24744  23029968.4534   23029969.0314
 -23556392.08844 -18355623.08844  20483280.2814   20483280.5414
 -21353925.95444 -16639415.05044  21208350.4334   21208350.7354
 96  4 24  0 45 30.0000000  0  7G25G 6G17G16G24G20G 5
   -192422.77344   -149940.02744  25020202.1254
 -18419828.16144 -14353103.54044  21410809.3584   21410808.7954
  -7827123.23944  -6099044.52244  23723243.8914   23723245.7354
   -137157.78744   -106875.34044  20988878.0814   20988878.4814
  -3161210.60444  -2463273.83544  23044724.7134   23044725.0184
 -23542322.48344 -18344659.76844  20485957.7324   20485957.7134
 -21282081.49044 -16583432.36744  21222022.0084   21222022.2104
 96  4 24  0 46  0.0000000  0  7G25G 6G17G16G24G20G 5
   -189104.33844   -147354.21944  25020834.9634   25020834.9364
 -18474460.35944 -14395674.06344  21400413.1704   21400412.5934
  -7909383.61544  -6163143.46444  23707589.6324   23707592.6924
   -141509.22044   -110266.04844  20988050.1254   20988050.4824
  -3083637.30944  -2402827.14044  23059486.2924   23059486.7394
 -23527651.58244 -18333227.90744  20488749.1414   20488749.5354
 -21209802.32444 -16527110.95544  21235776.3624   21235776.6374
 96  4 24  0 46 30.0000000  0  7G25G 6G17G16G24G20G 5
   -185341.37044                  25021551.5474
 -18528972.27644 -14438150.86244  21390039.9504   21390039.6014
  -7991454.87944  -6227095.03444  23691972.9324   23691973.2864
   -145275.67044   -113200.93244  20987333.6564   20987334.0964
  -3006031.29444  -2342354.91944  23074254.5294   23074255.7444
 -23512390.34344 -18321336.04344  20491653.6604   20491653.8284
 -21137084.40044 -16470447.66344  21249614.0454   21249614.1104
 96  4 24  0 47  0.0000000  0  7G25G 6G17G16G24G20G 5
   -181139.79844                  25022348.7754
 -18583381.64344 -14480547.75544  21379685.9544   21379685.6064
  -8073350.48244  -6290909.70344  23676388.7604   23676390.2084
   -148460.55244   -115682.64744  20986727.3074   20986727.8344
  -2928394.10744  -2281858.41344  23089028.6284   23089030.2344
 -23496546.76244 -18308990.40244  20494668.4084   20494668.6164
 -21063940.83344 -16413452.69244  21263532.8744   21263532.9914
 96  4 24  0 47 30.0000000  0  7G25G 6G17G16G24G20G 5
   -176476.18144   -137514.21444  25023237.8654   25023241.7054
 -18637668.60644 -14522849.26444  21369355.6284   21369355.2964
  -8155059.61844  -6354579.09544  23660839.3704   23660841.1984
   -151032.59444   -117686.82444  20986237.9984   20986238.7174
  -2850701.62444  -2221318.82744  23103813.1424   23103813.5284
 -23480091.69644 -18296168.28344  20497799.7644   20497800.0944
 -20990350.37244 -16356109.49444  21277536.7724   21277536.8334
 96  4 24  0 48  0.0000000  0  7G25G 6G17G16G24G20G 5
   -171355.12344   -133523.81444  25024213.3964   25024215.4104
 -18691839.17744 -14565060.08244  21359047.1614   21359046.7154
  -8236588.55044  -6418108.06944  23645324.1124   23645327.2064
   -153009.07644   -119226.93144  20985861.8424   20985862.4774
  -2772962.75644  -2160743.10744  23118605.7644   23118607.5734
 -23463017.23544 -18282863.51344  20501049.1724   20501049.2704
 -20916327.44244 -16298429.30744  21291622.5684   21291622.9824
 96  4 24  0 48 30.0000000  0  7G25G 6G17G16G24G20G 5
   -165761.52844   -129165.12744  25025277.4774   25025278.8184
 -18745875.12644 -14607166.00144  21348764.6464   21348764.0594
  -8317895.96544  -6481464.44344  23629852.7754   23629854.8944
   -154374.57544   -120290.94644  20985601.8734   20985602.3264
  -2695167.09744  -2100123.13044  23133409.8804   23133411.1634
 -23445311.38344 -18269066.75344  20504418.0854   20504418.4814
 -20841873.38544 -16240413.18044  21305790.5404   21305790.9824
 96  4 24  0 49  0.0000000  0  7G25G 6G17G16G24G20G 5
   -159714.52544   -124454.00544  25026428.4914   25026427.1204
 -18799785.33744 -14649173.93644  21338505.6744   21338505.4834
  -8398985.41344  -6544650.95544  23614421.9564   23614425.1354
   -155144.02644   -120890.50444  20985455.6644   20985456.0484
  -2617331.02744  -2039471.66144  23148221.9964   23148222.6634
 -23427000.84244 -18254798.80544  20507902.6894   20507902.7164
 -20767010.95444 -16182078.83444  21320036.4164   21320036.8644
 96  4 24  0 49 30.0000000  0  7G25G 6G17G16G24G20G 5
   -153231.33044   -119402.40944  25027661.4294   25027661.0374
 -18853579.83644 -14691091.70344  21328268.7984   21328268.5584
  -8479873.94244  -6607680.87944  23599028.3104   23599031.6214
   -155341.24844   -121044.17644  20985417.9124   20985418.3744
  -2539475.79044  -1978805.24344  23163037.0974   23163037.5064
 -23408108.40744 -18240077.43344  20511497.7084   20511498.1384
 -20691750.23744 -16123434.13644  21334357.9314   21334358.3524
 96  4 24  0 50  0.0000000  0  7G25G 6G17G16G24G20G 5
   -146136.68944                  25028977.8254
 -18907226.58344 -14732894.34744  21318060.0984   21318059.7424
  -8560544.49244  -6670541.00244  23583676.8724   23583679.2094
   -154958.45544   -120745.88644  20985490.6954   20985491.1704
  -2461581.28744  -1918108.25244  23177859.7194   23177860.3144
 -23388622.44344 -18224893.57244  20515205.9744   20515206.2444
 -20616072.47144 -16064464.46244  21348759.3484   21348759.6664
 96  4 24  0 50 30.0000000  0  7G25G 6G17G16G24G20G 5
   -137981.47144                  25030396.6064
 -18960707.74944 -14774567.96644  21307883.1364   21307882.6174
  -8641006.50244  -6733238.63944  23568365.7704   23568368.5184
   -153990.54144   -119991.65744  20985675.0824   20985675.6744
  -2383647.61744  -1857380.72144  23192689.6964   23192690.5194
 -23368568.70544 -18209267.28744  20519021.7614   20519022.3004
 -20539976.45144 -16005168.88344  21363240.0344   21363240.2054
 96  4 24  0 51  0.0000000  0  6G 6G17G16G24G20G 5
 -19014019.71144 -14816109.73744  21297738.3284   21297737.6714
  -8721293.52444  -6795799.90844  23553088.0924   23553088.8354
   -152438.29244   -118782.10044  20985970.3634   20985970.7254
  -2305690.59144  -1796634.99244  23207525.0414   23207525.4074
 -23347933.03344 -18193187.55144  20522948.6614   20522949.0474
 -20463466.49444 -15945550.75244  21377799.3104   21377799.4544
 96  4 24  0 51 30.0000000  0  7G25G 6G17G16G24G20G 5
        -0.59654        -0.61254  25033472.4664   25033478.0754
 -19067170.11244 -14857525.62044  21287623.9884   21287623.6714
  -8801420.92444  -6858236.77644  23537840.5034   23537842.2704
   -150308.86644   -117122.80144  20986375.4414   20986376.1214
  -2227727.38444  -1735884.44544  23222360.5724   23222361.3154
 -23326712.86644 -18176652.36044  20526986.7314   20526986.9294
 -20386563.81444 -15885626.60444  21392433.4124   21392433.3704
 96  4 24  0 52  0.0000000  0  7G25G 6G17G16G24G20G 5
      8775.65244      6838.02044  25035144.2364
 -19120126.16244 -14898790.05944  21277546.6084   21277546.1804
  -8881349.97744  -6920519.09444  23522630.1774   23522631.9524
   -147570.24444   -114988.80344  20986896.4454   20986896.9774
  -2149737.13944  -1675112.80844  23237200.6784   23237203.1394
 -23304879.42344 -18159639.29244  20531141.8264   20531142.0964
 -20309255.22444 -15825386.16044  21407144.9434   21407145.1874
 96  4 24  0 52 30.0000000  0  7G25G 6G17G16G24G20G 5
     17979.27844     14009.64844  25036896.5684   25036896.0764
 -19172917.07644 -14939925.82444  21267501.0844   21267500.6664
  -8961080.98144  -6982647.11044  23507458.2064   23507460.0444
   -144228.59244   -112384.91144  20987532.5574   20987533.0054
  -2071746.86344  -1614340.94044  23252042.3554   23252043.9384
 -23282443.76644 -18142156.96444  20535410.9794   20535411.1404
 -20231562.49144 -15764846.38444  21421929.1734   21421929.4204
 96  4 24  0 53  0.0000000  0  7G25G 6G17G16G24G20G 5
     27623.46244     21524.59244  25038732.4404   25038734.1124
 -19225551.47244 -14980939.63044  21257485.0704   21257484.5384
  -9040593.73444  -7044605.05744  23492327.0784   23492327.7184
   -140271.37744   -109301.35644  20988285.3554   20988285.8674
  -1993746.12144  -1553561.46044  23266885.5844   23266886.9464
 -23259395.19544 -18124197.04244  20539796.8834   20539797.2544
 -20153481.13244 -15704003.78644  21436787.5404   21436787.9564
 96  4 24  0 53 30.0000000  0  7G25G 6G17G16G24G20G 5
     37711.62644     29385.46444  25040652.8384   25040652.1744
 -19278026.82144 -15021829.49844  21247499.4964   21247499.0214
  -9119865.82244  -7106375.48944  23477241.9994   23477243.9364
   -135691.91544   -105732.93444  20989157.1194   20989157.5804
  -1915720.63844  -1492762.36444  23281734.2014   23281734.7234
 -23235750.88044 -18105772.90444  20544295.9064   20544296.4644
 -20074994.78444 -15642845.61444  21451723.1164   21451723.7374
 96  4 24  0 54  0.0000000  0  7G25G 6G17G16G24G20G 5
     48253.80244     37600.05644  25042658.8784   25042655.9504
 -19330346.24444 -15062597.86644  21237543.3394   21237542.8114
  -9198900.80144  -7167961.13544  23462202.1024   23462203.6934
   -130478.03744   -101670.16244  20990149.0654   20990149.4744
  -1837668.84044  -1431942.78844  23296586.4684   23296587.1134
 -23211525.11844 -18086895.68944  20548906.0904   20548906.4034
 -19996099.69444 -15581368.94344  21466736.3724   21466736.7094
 96  4 24  0 54 30.0000000  0  7G25G 6G17G16G24G20G 5
     59270.61344     46184.58844  25044753.9984   25044755.3964
 -19382520.31444 -15103252.97444  21227614.8604   21227614.5624
  -9277719.67344  -7229378.38444  23447204.1604   23447205.0764
   -124624.98044    -97109.32144  20991262.8084   20991263.3454
  -1759581.66644  -1371095.63144  23311445.8964   23311446.3474
 -23186736.13544 -18067579.60544  20553623.4334   20553624.0514
 -19916783.11844 -15519563.83744  21481829.5374   21481829.8284
 96  4 24  0 55  0.0000000  0  7G25G 6G17G16G24G20G 5
     70746.43244     55126.75844  25046936.3184   25046937.0914
 -19434551.18644 -15143796.50144  21217713.5124   21217713.1544
  -9356340.27044  -7290641.15744  23432242.2284   23432244.6384
   -118146.80644    -92061.38244  20992495.6734   20992496.1574
  -1681456.66244  -1310218.99644  23326312.4344   23326313.4034
 -23161401.69044 -18047838.48444  20558444.4204   20558444.7334
 -19837052.90444 -15457436.41844  21497002.0754   21497002.4514
 96  4 24  0 55 30.0000000  0  7G25G 6G17G16G24G20G 5
     82655.66344     64406.65144  25049201.9024   25049202.2784
 -19486430.51344 -15184221.94644  21207841.2094   21207840.8324
  -9434767.23544  -7351753.02444  23417318.1134   23417318.0164
   -111047.22344    -86529.23244  20993846.6434   20993846.9484
  -1603301.26144  -1249318.69744  23341184.7264   23341186.3534
 -23135508.63844 -18027662.08444  20563371.7354   20563372.0004
 -19756915.40444 -15394991.62744  21512251.6174   21512251.9964
 96  4 24  0 56  0.0000000  0  7G25G 6G17G16G24G20G 5
     94975.62244     74006.60744  25051546.5664   25051545.7954
 -19538168.59744 -15224537.32744  21197995.9674   21197995.4304
  -9513011.00844  -7412722.16944  23402428.8854   23402430.4634
   -103350.49544    -80531.76344  20995311.3734   20995311.8394
  -1525126.52944  -1188403.32744  23356060.7864   23356061.6024
 -23109061.71344 -18007054.09644  20568404.4304   20568404.7244
 -19676397.74744 -15332250.61144  21527573.7584   21527574.1554
 96  4 24  0 56 30.0000000  0  7G25G 6G17G16G24G20G 5
    107685.33944     83910.27144  25053965.4834   25053965.9114
 -19589772.16344 -15264747.88844  21188176.1924   21188175.5454
  -9591080.52244  -7473555.51944  23387572.9574   23387575.0724
    -95096.53644    -74100.09444  20996882.0094   20996882.4604
  -1446940.31444  -1127478.99844  23370939.3744   23370939.7254
 -23082054.33144 -17986009.38844  20573543.4684   20573543.8614
 -19595513.07944 -15269223.61044  21542965.4854   21542965.8184
 96  4 24  0 57  0.0000000  0  7G25G 6G17G16G24G20G 5
    120784.42144     94117.31644  25056459.4074   25056457.4814
 -19641221.42344 -15304838.20844  21178385.4354   21178385.0774
  -9668950.97244  -7534233.74244  23372754.2284   23372757.0884
    -86300.54344    -67246.06144  20998555.6574   20998555.7194
  -1368741.89744  -1066545.14144  23385819.9334   23385820.5484
 -23054455.20844 -17964503.58544  20578795.5914   20578795.9314
 -19514276.09744 -15205922.08444  21558424.2204   21558424.3064
 96  4 24  0 57 30.0000000  0  7G25G 6G17G16G24G20G 5
    134304.14944    104652.15844  25059031.6864   25059030.9064
 -19692502.51644 -15344797.49544  21168626.9204   21168626.3614
  -9746624.24444  -7594758.30044  23357972.6964   23357974.8894
    -76956.66344    -59965.10344  21000333.9114   21000334.2414
  -1290528.35944  -1005599.54644  23400703.1094   23400704.2524
 -23026252.21144 -17942527.23244  20584162.6334   20584162.8224
 -19432689.76644 -15142348.33144  21573949.6054   21573949.9664
 96  4 24  0 58  0.0000000  0  7G25G 6G17G16G24G20G 5
    148274.95144    115538.55044  25061689.4804
 -19743613.10944 -15384623.92344  21158901.1704   21158900.7014
  -9824097.15144  -7655126.76644  23343230.5094   23343232.4294
    -67065.19544    -52257.45344  21002216.0204   21002216.5144
  -1212305.49144   -944646.69044  23415589.3864   23415589.7874
 -22997447.26244 -17920081.82344  20589643.8494   20589644.1604
 -19350755.21944 -15078503.25244  21589541.0674   21589541.8364
 96  4 24  0 58 30.0000000  0  7G25G 6G17G16G24G20G 5
    162719.28344    126793.82244  25064435.9974   25064438.9914
 -19794528.15044 -15424297.96644  21149212.2784   21149211.9264
  -9901356.04344  -7715328.45644  23328529.6004   23328531.1164
    -56588.60444    -44093.86144  21004209.5654   21004209.9684
  -1134067.17144   -883681.79944  23430477.5424   23430477.2204
 -22968025.97344 -17897156.15344  20595242.4994   20595242.9124
 -19268459.45044 -15014376.69144  21605201.4084   21605201.8744
 96  4 24  0 59  0.0000000  0  7G25G 6G17G16G24G20G 5
    177637.29944    138418.24744  25067274.1844   25067272.4904
 -19845234.23244 -15463809.18544  21139563.0214   21139562.6604
  -9978394.31744  -7775358.25344  23313869.6594   23313870.1824
    -45500.97844    -35454.14244  21006319.3624   21006319.6694
  -1055818.39344   -822708.73344  23445367.4734   23445366.9864
 -22937996.89744 -17873756.87844  20600956.7494   20600956.9684
 -19185807.97844 -14949972.97544  21620929.4184   21620930.0784
 96  4 24  0 59 30.0000000  0  7G25G 6G17G16G24G20G 5
    192991.97844    150382.83044  25070195.7684   25070198.2334
 -19895756.56844 -15503177.23344  21129949.0644   21129948.4484
 -10055239.54844  -7835237.61444  23299245.9494   23299248.2194
    -33800.12844    -26336.58344  21008546.1964   21008546.5794
   -977588.71444   -761750.53644  23460254.0294   23460254.8094
 -22907394.60044 -17849910.94044  20606780.1214   20606780.5844
 -19102803.00944 -14885293.79444  21636725.2064   21636725.6604
 96  4 24  1  0  0.0000000  0  7G25G 6G17G16G24G20G 5
    208766.40544    162674.52444  25073197.4804   25073197.7654
 -19946083.91344 -15542393.34644  21120371.9324   21120371.1624
 -10131860.00744  -7894941.79744  23284665.3064   23284668.1224
    -21473.49644    -16731.40344  21010891.7584   21010892.0694
   -899360.98144   -700793.85544  23475140.2244   23475139.8884
 -22876216.54144 -17825616.35844  20612713.2784   20612713.7254
 -19019427.73844 -14820326.07444  21652591.0554   21652591.3514
 96  4 24  1  0 30.0000000  0  7G25G 6G17G16G24G20G 5
    224960.89744    175293.69544  25076279.0554   25076280.2784
 -19996189.03844 -15581436.29144  21110837.4514   21110836.7514
 -10208227.16044  -7954448.60044  23270133.0474   23270134.8544
     -8498.87544     -6621.29744  21013360.5374   21013360.8344
   -821087.37044   -639801.42344  23490035.5624   23490036.2624
 -22844439.64844 -17800855.15144  20618760.3164   20618760.8154
 -18935654.82344 -14755048.49144  21668531.9844   21668532.1524
 96  4 24  1  1  0.0000000  0  7G25G 6G17G16G24G20G 5
    241563.64644    188230.84144  25079438.5634   25079441.5734
 -20046108.52344 -15620334.57944  21101338.0874   21101337.4484
 -10284349.74144  -8013764.85044  23255647.7534   23255649.7044
      5096.58644      3972.57744  21015947.8754   21015948.3364
   -742767.13944   -578772.67844  23504938.8014   23504939.6374
 -22812075.38644 -17775636.25344  20624919.0484   20624919.3524
 -18851474.22444 -14689453.23744  21684551.4184   21684551.7274
 96  4 24  1  1 30.0000000  0  7G25G 6G17G16G24G20G 5
    258562.25944    201476.43844  25082674.8144   25082678.0364
 -20095864.36744 -15659105.35344  21091869.5624   21091869.1204
 -10360239.21844  -8072899.46744  23241207.0444   23241208.1144
     19292.10644     15034.03144  21018649.3224   21018649.5444
   -664407.88844   -517713.53044  23519849.9364   23519850.4634
 -22779142.78144 -17749974.49244  20631185.9224   20631186.3144
 -18766889.82344 -14623543.33744  21700647.5624   21700647.8244
 96  4 24  1  2  0.0000000  0  7G25G 6G17G16G24G20G 5
    275949.90544    215024.88844  25085982.6294
 -20145479.25944 -15697766.29644  21082428.2234   21082427.7634
 -10435914.53944  -8131867.21044  23226805.4834   23226807.3654
     34056.25044     26538.56844  21021458.6924   21021459.1494
   -586021.98844   -456633.62644  23534767.4244   23534766.6604
 -22745649.88244 -17723876.13944  20637559.2974   20637559.8354
 -18681936.11544 -14557345.65644  21716813.4764   21716813.8634
 96  4 24  1  2 30.0000000  0  7G25G 6G17G16G24G20G 5
    293747.86544                  25089370.4984
 -20194949.67044 -15736314.65244  21073014.3424   21073013.9144
 -10511390.35144  -8190679.46444  23212443.5194   23212445.1234
     49392.47444     38488.88344  21024376.9214   21024377.2614
   -507615.79744   -395537.89144  23549687.5174   23549686.8414
 -22711586.84244 -17697333.52144  20644040.9954   20644041.6044
 -18596607.04944 -14490855.49644  21733050.4834   21733051.2024
 96  4 24  1  3  0.0000000  0  7G25G 6G17G16G24G20G 5
    311940.11444                  25092832.3834
 -20244291.38344 -15774762.73044  21063624.8634   21063624.3254
 -10586692.94144  -8249356.75544  23198114.0144   23198114.3614
     65275.30444     50865.12244  21027399.2774   21027399.7534
   -429233.46544   -334460.77644  23564602.5494   23564603.8184
 -22676990.43044 -17670375.28844  20650624.7074   20650625.2474
 -18510935.93344 -14424098.79844  21749353.7324   21749354.2374
 96  4 24  1  3 30.0000000  0  7G25G 6G17G16G24G20G 5
    330542.42844                  25096372.2374
 -20293461.24144 -15813076.89244  21054268.0754   21054267.7044
 -10661823.45344  -8307899.95544  23183816.6404   23183817.1074
     81721.45844     63680.32044  21030528.9034   21030529.3274
   -350876.42144   -273403.36544  23579512.5724   23579514.5764
 -22641843.53844 -17642988.10644  20657312.9814   20657313.3164
 -18424946.08244 -14357093.74344  21765716.9214   21765717.4774
 96  4 24  1  4  0.0000000  0  7G25G 6G17G16G24G20G 5
    349570.65744    272388.96844  25099993.3624
 -20342445.05544 -15851246.08844  21044946.8274   21044946.1564
 -10736789.05344  -8366314.65044  23169550.6404   23169551.5964
     98736.46044     76938.77444  21033766.6644   21033767.1104
   -272534.74044   -212357.88944  23594421.7434   23594422.3524
 -22606131.38144 -17615160.46244  20664108.8454   20664109.4294
 -18338642.34644 -14289844.09244  21782140.2574   21782140.7434
 96  4 24  1  4 30.0000000  0  7G25G 6G17G16G24G20G 5
    369050.21044    287566.07144  25103699.6934
 -20391205.97944 -15889241.59944  21035667.9874   21035667.5644
 -10811561.72644  -8424579.01744  23155322.2394   23155322.7874
    116351.95344     90665.14544  21037119.1424   21037119.5534
   -194188.21044   -151308.63444  23609330.3064   23609331.3084
 -22569850.51244 -17586889.66644  20671012.5574   20671013.0994
 -18252002.79244 -14222332.76644  21798626.6864   21798626.8044
 96  4 24  1  5  0.0000000  0  7G25G 6G17G16G24G20G 5
    388949.47244    303070.43244  25107486.4384   25107488.4844
 -20439770.60844 -15927084.15244  21026426.5984   21026426.3884
 -10886156.49344  -8482704.76644  23141127.2054   23141128.6994
    134547.49244    104843.49544  21040581.4954   21040581.8794
   -115855.61044    -90270.25244  23624236.3874   23624237.5064
 -22533014.91044 -17558186.60844  20678022.3464   20678022.6844
 -18165059.02944 -14154584.39844  21815171.6044   21815171.8244
 96  4 24  1  5 30.0000000  0  7G25G 6G17G16G24G20G 5
    409267.29344    318901.48044  25111353.6454   25111356.5624
 -20488126.13644 -15964763.76944  21017224.4814   21017224.1954
 -10960565.32344  -8540685.61944  23126967.7384   23126969.5294
    153346.39144    119492.00244  21044158.4314   21044158.8554
    -37522.00544    -29231.09444  23639142.5454   23639143.5874
 -22495597.47544 -17529030.17144  20685143.0634   20685143.3634
 -18077787.97644 -14086580.99844  21831779.0744   21831779.6084
 96  4 24  1  6  0.0000000  0  7G25G 6G17G16G24G20G 5
    430001.23844    335058.58944  25115301.0954
 -20536269.46544 -16002278.03744  21008063.3354   21008062.7164
 -11034746.67244  -8598489.22444  23112851.1224   23112852.2284
    172766.82944    134624.82044  21047854.4664   21047854.9464
     40832.72744     31824.51944  23654052.8414   23654054.1404
 -22457596.76644 -17499419.23244  20692374.1724   20692374.5044
 -17990157.34644 -14018297.40444  21848454.4014   21848454.9614
 96  4 24  1  6 30.0000000  0  6G 6G17G16G24G20G 5
 -20584197.18044 -16039624.29444  20998942.9704   20998942.3084
 -11108666.08544  -8656088.70944  23098785.1484   23098786.8674
    192812.83244    150245.09244  21051669.0154   21051669.5474
    119209.89344     92897.62544  23668968.1184   23668969.0214
 -22419009.55444 -17469351.28444  20699716.9804   20699717.3524
 -17902153.30944 -13949722.84944  21865201.1354   21865201.5384
 96  4 24  1  7  0.0000000  0  7G17G16G24G23G 5G 6G20
 -11182344.54344  -8713500.44644  23084764.4794   23084764.9064
    213455.06744    166329.96144  21055597.1924   21055597.5234
    197593.54944    153975.79244  23683884.8464   23683884.0464
        -0.53554                  25278561.3464
 -17813791.04244 -13880869.15144  21882015.6174   21882016.1414
 -20631923.63244 -16076813.72844  20989861.2134   20989860.6464
 -22379839.50544 -17438829.17344  20707170.6964   20707171.1054
 96  4 24  1  7 30.0000000  0  7G17G16G23G24G 6G20G 5
 -11255780.66344  -8770723.36644  23070790.0104   23070791.2514
    234678.43944    182867.66544  21059635.5494   21059635.8564
   -107220.46644    -83547.59044  25258156.7324   25258161.3794
    275969.22544    215047.75544  23698798.4604   23698798.4764
 -20679442.87244 -16113841.68844  20980818.2564   20980817.8984
 -22340118.07844 -17407877.41544  20714729.0344   20714729.6384
 -17725091.97644 -13811753.01144  21898894.5524   21898895.2024
 96  4 24  1  8  0.0000000  0  7G17G16G23G24G 5G 6G20
 -11328962.31344  -8827747.97244  23056864.0354   23056865.9984
    256468.76244    199847.14944  21063782.1714   21063782.2974
   -214433.38544   -167089.51544  25237754.2274
    354346.95144    276121.30644  23713713.6754   23713711.6864
 -17636072.37844 -13742387.10744  21915834.7714   21915835.0194
 -20726762.84344 -16150714.38744  20971813.4244   20971812.7424
 -22299858.64244 -17376506.43244  20722390.4404   20722390.8184
 96  4 24  1  8 30.0000000  0  7G17G16G23G24G 5G 6G20
 -11401906.43744  -8884587.51044  23042982.8264   23042985.1294
    278830.18844    217271.64944  21068037.2104   21068037.8164
   -321630.26444                  25217354.3524
    432738.68644    337205.77344  23728631.0744   23728631.4794
 -17546725.87144 -13672766.46244  21932836.5474   21932837.0114
 -20773865.95044 -16187418.09444  20962850.0504   20962849.5724
 -22259044.84744 -17344703.47944  20730157.5434   20730157.7274
 96  4 24  1  9  0.0000000  0  6G17G16G24G 5G 6G20
 -11474659.06044  -8941277.81744  23029138.9044   23029140.2354
    301741.31844    235124.49244  21072397.3314   21072397.6594
    511118.68144    398281.09544  23743545.9014   23743547.9174
 -17457087.73744 -13602918.58244  21949894.0034   21949893.9354
 -20820771.34344 -16223967.73744  20953924.3024   20953923.5834
 -22217705.93444 -17312491.34544  20738023.7944   20738024.0594
 96  4 24  1  9 30.0000000  0  6G17G16G24G 5G 6G20
 -11547215.96244  -8997815.62844  23015331.8954   23015333.4904
    325213.29444    253414.35244  21076863.6064   21076864.0774
    589493.87544    459352.67544  23758460.3444   23758463.2734
 -17367149.09644 -13532836.54044  21967009.5744   21967009.9924
 -20867488.50644 -16260370.71244  20945034.3284   20945033.7794
 -22175845.35744 -17279872.71544  20745989.4564   20745989.8764
 96  4 24  1 10  0.0000000  0  7G17G16G23G24G 5G 6G20
 -11619557.87244  -9054185.90044  23001565.3114   23001565.7134
    349283.46244    272170.34044  21081444.1294   21081444.3514
        -0.67754                  25156146.8834
    667898.97744    520447.53644  23773379.6104   23773380.3494
 -17276855.56844 -13462477.96544  21984191.6414   21984192.0754
 -20914000.47944 -16296613.79544  20936183.1184   20936182.9844
 -22133419.76244 -17246813.81844  20754062.6894   20754063.4584
 96  4 24  1 10 30.0000000  0  6G17G16G24G 5G 6G20
 -11691729.38644  -9110423.40744  22987831.0984   22987832.2174
    373920.83444    291368.30144  21086132.4154   21086133.0184
    746279.56544    581523.32744  23788295.3154   23788296.8694
 -17186243.71544 -13391871.34144  22001434.3564   22001434.7904
 -20960329.21444 -16332714.09944  20927367.1214   20927366.7574
 -22090461.06344 -17213339.51444  20762237.5874   20762238.3124
 96  4 24  1 11  0.0000000  0  6G17G16G24G 5G 6G20
 -11763731.01344  -9166528.53144  22974129.6194   22974131.3534
    399106.56644    310993.55444  21090925.2894   21090925.6044
    824608.17344    642558.58144  23803200.5594   23803202.5134
 -17095334.56344 -13321033.05644  22018734.1934   22018734.5874
 -21006488.96744 -16368682.72944  20918583.6164   20918583.1744
 -22046995.25744 -17179470.06344  20770509.0144   20770509.5884
 96  4 24  1 11 30.0000000  0  6G17G16G24G 5G 6G20
 -11835549.79744  -9222491.17944  22960463.1124   22960464.7954
    424845.97444    331050.23944  21095823.3484   21095823.8014
    902883.14044    703552.06444  23818096.3674   23818098.9034
 -17004114.70944 -13249952.67244  22036092.3174   22036093.5444
 -21052467.64344 -16404510.25944  20909833.9544   20909833.3854
 -22003009.46144 -17145195.42344  20778879.3154   20778879.7654
 96  4 24  1 12  0.0000000  0  7G17G23G16G24G 5G 6G20
 -11907132.72444  -9278270.03044  22946841.3204   22946842.8424
        -0.25554                  25074470.7534
    451175.34044    351566.63544  21100833.6174   21100833.8714
    981140.82644    764532.07044  23832989.2394   23832989.8754
 -16912556.04244 -13178608.28844  22053515.2074   22053515.6644
 -21098209.29244 -16440153.09644  20901129.6264   20901128.8024
 -21958453.95044 -17110476.84644  20787357.7674   20787358.2084
 96  4 24  1 12 30.0000000  0  7G17G23G16G24G 5G 6G20
 -11978499.20744  -9333880.22444  22933261.0884   22933262.0074
   -107393.99644                  25054031.9384
    478062.23844    372517.47344  21105949.8574   21105950.2574
   1059358.26344    825480.70544  23847872.5974   23847872.2574
 -16820688.60544 -13107023.28944  22070996.8654   22070997.2484
 -21143718.97344 -16475615.17844  20892469.5514   20892468.9584
 -21913343.75044 -17075326.04444  20795942.1494   20795942.5504
 96  4 24  1 13  0.0000000  0  7G17G23G16G24G 5G 6G20
 -12049651.98244  -9389323.90844  22919720.8104   22919721.2794
   -214804.42744                  25033592.9554
    505491.91344    393891.24844  21111169.5254   21111170.0344
   1137543.19244    886404.01444  23862750.5474   23862751.5854
 -16728519.66144 -13035203.35744  22088536.4944   22088536.6014
 -21189019.19044 -16510914.03844  20883849.1324   20883848.6404
 -21867685.12644 -17039747.90244  20804630.6174   20804630.7464
 96  4 24  1 13 30.0000000  0  7G17G23G16G24G 5G 6G20
 -12120570.82244  -9444585.29544  22906225.1564   22906225.9434
   -322181.19444                  25013159.1054
    533496.17544    415712.76244  21116498.8044   21116498.8394
   1215736.51544    947333.85944  23877629.7394   23877632.1904
 -16636043.65344 -12963144.15644  22106133.8534   22106134.2364
 -21234093.35644 -16546036.74944  20875271.6824   20875271.3004
 -21821442.62444 -17003714.79244  20813430.3874   20813430.8224
 96  4 24  1 14  0.0000000  0  7G23G17G16G24G 5G 6G20
   -429499.81144                  24992737.4234
 -12191259.66944  -9499667.47944  22892773.2714   22892774.2814
    562070.73944    437978.65944  21121936.1434   21121936.6534
   1293945.13544   1008275.65344  23892512.8544   23892513.7784
 -16543273.27244 -12890855.55544  22123787.9804   22123788.4504
 -21278950.07444 -16580990.02444  20866735.8694   20866735.4724
 -21774628.26344 -16967236.07544  20822338.5004   20822338.9764
 96  4 24  1 14 30.0000000  0  7G23G17G16G24G 5G 6G20
   -536726.42744   -418225.85444  24972333.6374
 -12261719.77944  -9554571.41244  22879365.4564   22879366.0804
    591236.86844    460705.52144  21127486.2964   21127486.6114
   1372179.12644   1069237.21144  23907400.8024   23907400.4744
 -16450206.75444 -12818336.21544  22141497.9414   22141498.5754
 -21323580.56444 -16615767.02544  20858242.7054   20858242.2044
 -21727249.28644 -16930317.39944  20831354.5344   20831355.1184
 96  4 24  1 15  0.0000000  0  7G17G23G16G24G 5G 6G20
 -12331963.18944  -9609306.48444  22865998.9534   22865999.5164
   -643886.50444                  24951942.3114
    620984.63644    483885.60144  21133147.0524   21133147.5784
   1450422.53944   1130206.09244  23922288.9894   23922288.6414
 -16356880.51144 -12745614.48244  22159256.7104   22159257.6444
 -21368007.68344 -16650385.55044  20849788.6984   20849788.1634
 -21679337.32844 -16892983.41444  20840471.9514   20840472.3554
 96  4 24  1 15 30.0000000  0  7G16G23G17G24G 5G 6G20
    651308.20244    507514.36144  21138917.9124   21138918.0404
   -751016.24944                  24931556.7354
 -12401999.23144  -9663879.98744  22852671.0934   22852671.6954
   1528647.79244   1191160.83144  23937175.5454   23937175.8714
 -16263295.04344 -12672690.76544  22177065.6894   22177066.2774
 -21412220.97644 -16684837.45344  20841375.1524   20841374.7774
 -21630910.25944 -16855248.04044  20849687.4354   20849687.7924
 96  4 24  1 16  0.0000000  0  7G16G23G17G24G 5G 6G20
    682202.31344    531587.70544  21144796.3984   21144796.9274
   -858125.47944   -668665.64344  24911174.6384
 -12471818.30544  -9718284.41944  22839385.2224   22839385.9004
   1606839.61744   1252089.51044  23952054.9544   23952056.1044
 -16169433.87644 -12599552.22044  22194926.8004   22194927.7614
 -21456205.29044 -16719110.92544  20833005.2004   20833004.8704
 -21581979.04344 -16817119.82544  20858998.7724   20858999.1354
 96  4 24  1 16 30.0000000  0  7G16G23G17G24G 5G 6G20
    713665.67044    556104.61644  21150783.7124   21150784.1604
   -965216.56044   -752112.87244  24890795.3674   24890799.9894
 -12541412.32344  -9772513.47744  22826141.3544   22826141.7764
   1685001.42944   1312994.76544  23966927.6474   23966928.1644
 -16075291.43944 -12526194.50844  22212841.3914   22212842.4014
 -21499949.20644 -16753197.08244  20824680.8984   20824680.3104
 -21532527.14744 -16778585.88944  20868408.7924   20868409.3584
 96  4 24  1 17  0.0000000  0  7G16G23G17G24G 5G 6G20
    745692.53744    581060.62844  21156878.4384   21156878.8334
  -1072289.61044   -835546.04744  24870419.7304
 -12610767.21344  -9826556.22044  22812944.1254   22812944.2244
   1763138.25944   1373880.59044  23981796.8704   23981799.9184
 -15980850.39944 -12452604.11044  22230813.0034   22230813.6494
 -21543445.49444 -16787090.28844  20816403.9004   20816403.2124
 -21482542.18344 -16739636.56844  20877920.8824   20877921.5154
 96  4 24  1 17 30.0000000  0  7G16G23G17G24G 5G 6G20
    778293.63844    606464.09444  21163082.4264   21163082.5734
  -1179333.88044   -918956.90044  24850049.4484
 -12679877.12644  -9880408.05444  22799792.8904   22799793.9114
   1841248.68144   1434745.86644  23996661.4294   23996663.9794
 -15886105.29744 -12378776.77644  22248842.2934   22248842.9064
 -21586695.56344 -16820791.62744  20808173.6424   20808172.8474
 -21432014.64644 -16700264.46944  20887535.9434   20887536.2684
 96  4 24  1 18  0.0000000  0  7G16G23G17G24G 5G 6G20
    811455.52044    632304.52944  21169392.9004   21169393.0734
  -1286345.04944  -1002341.93344  24829686.5814   24829689.8104
 -12748756.76444  -9934080.45544  22786685.1884   22786687.5604
   1919336.79944   1495593.76144  24011521.8544   24011520.9314
 -15791080.34944 -12304731.39044  22266925.2774   22266926.0874
 -21629725.46444 -16854321.40644  20799985.3144   20799984.7834
 -21380941.26744 -16660467.03644  20897255.0324   20897255.4404
 96  4 24  1 18 30.0000000  0  7G16G23G17G24G 5G 6G20
    845190.95844    658591.89944  21175812.2224   21175812.5594
  -1393312.05944  -1085692.56044  24809330.9504   24809337.1804
 -12817403.11844  -9987571.07944  22773622.4014   22773624.2734
   1997420.60344   1556438.27644  24026381.1204   24026381.6294
 -15695776.86544 -12230468.95744  22285060.9164   22285061.4374
 -21672528.48244 -16887674.39544  20791840.1364   20791839.8074
 -21329307.21344 -16620232.71744  20907080.5614   20907081.1294
 96  4 24  1 19  0.0000000  0  7G16G23G17G24G 5G 6G20
    879491.37344    685319.50844  21182339.5904   21182339.7624
  -1500256.31144  -1169025.45144  24788979.7284
 -12885832.66944 -10040892.75444  22760600.5884   22760601.5074
   2075482.07244   1617265.37944  24041234.8254   24041235.3824
 -15600223.70544 -12156011.95444  22303244.0994   22303244.2924
 -21715123.92244 -16920865.63444  20783734.7054   20783734.0304
 -21277149.51544 -16579590.36244  20917005.7304   20917006.0984
 96  4 24  1 19 30.0000000  0  7G16G23G17G24G 5G 6G20
    914345.07344    712478.24244  21188971.7434   21188971.9844
  -1607174.95844  -1252338.51344  24768633.6434   24768636.7024
 -12954048.93144 -10094048.24944  22747619.8534   22747621.1844
   2153523.18144   1678076.61044  24056084.4104   24056085.3084
 -15504428.05444 -12081366.01144  22321473.7244   22321474.2474
 -21757506.97344 -16953891.37644  20775669.5314   20775668.8864
 -21224469.68744 -16538541.15444  20927030.5404   20927031.0464
 96  4 24  1 20  0.0000000  0  7G16G23G17G24G 5G 6G20
    949723.72444    740046.03744  21195703.9934   21195704.4724
  -1714067.96044  -1335631.53044  24748292.2344   24748295.0424
 -13022068.60644 -10147050.56544  22734675.5394   22734676.1204
   2231537.96544   1738867.32144  24070931.3994   24070932.8164
 -15408384.99144 -12006527.29044  22339749.8504   22339750.9224
 -21799661.56944 -16986739.10044  20767647.2804   20767646.6034
 -21171281.50244 -16497095.82444  20937151.8454   20937152.3614
 96  4 24  1 20 30.0000000  0  7G16G23G17G24G 5G 6G20
    985650.87944    768041.23244  21202540.3754   21202540.8654
  -1820905.93744  -1418881.64544  24727961.8284
 -13089869.24144 -10199882.18644  22721773.3634   22721774.0044
   2309542.90344   1799650.41144  24085775.2224   24085777.5614
 -15312073.00944 -11931479.00844  22358077.7704   22358078.4784
 -21841554.71444 -17019383.10044  20759675.4504   20759674.8324
 -21117580.68644 -16455251.04044  20947370.6464   20947371.1074
 96  4 24  1 21  0.0000000  0  7G16G23G17G24G 5G 6G20
   1022095.56844    796439.70344  21209475.7124   21209476.0634
  -1927698.21544  -1502096.22544  24707639.7294   24707640.0974
 -13157477.75944 -10252564.10644  22708908.0264   22708908.5824
   2387511.94944   1860405.49444  24100612.1884   24100613.9694
 -15215507.26044 -11856232.99644  22376453.5094   22376453.4744
 -21883212.39044 -17051843.61444  20751748.5264   20751747.9994
 -21063395.28044 -16413028.65444  20957681.8744   20957682.5094
 96  4 24  1 21 30.0000000  0  7G16G23G17G24G 5G 6G20
   1059047.47344    825233.40744  21216507.7814   21216508.2074
  -2034438.03644  -1585269.92244  24687327.6514   24687334.5244
 -13224908.00444 -10305107.11644  22696076.8984   22696077.3384
   2465438.84044   1921127.73544  24115439.3284   24115442.7264
 -15118672.24444 -11780777.16644  22394880.6404   22394881.1594
 -21924631.85944 -17084118.51744  20743866.4014   20743865.3844
 -21008719.29444 -16370423.99944  20968086.3744   20968086.7594
 96  4 24  1 22  0.0000000  0  7G16G23G17G24G 5G 6G20
   1096574.56944    854475.31144  21223648.9434   21223649.4124
  -2141064.61944  -1668355.32044  24667036.0804
 -13292110.91644 -10357472.97344  22683288.8744   22683289.2484
   2543374.58444   1981856.88844  24130272.0454   24130273.0024
 -15021526.01444 -11705078.81844  22413367.0384   22413367.6934
 -21965763.23244 -17116168.92844  20736039.2874   20736038.7114
 -20953509.86644 -16327403.67344  20978592.5444   20978592.9734
 96  4 24  1 22 30.0000000  0  7G23G 6G17G16G24G20G 5
  -2247603.67444  -1751372.59344  24646761.5794   24646766.8054
 -22006644.27844 -17148024.27644  20728259.7404   20728259.4704
 -13359091.13044 -10409665.31744  22670543.2424   22670542.6984
   1134667.49344    884158.11844  21230897.7614   21230897.8034
   2621305.24344   2042582.06644  24145101.3154   24145100.7934
 -20897795.96944 -16283990.25744  20989194.1164   20989194.3454
 -14924107.67144 -11629168.44144  22431905.0124   22431905.9474
 96  4 24  1 23  0.0000000  0  7G23G 6G17G16G24G20G 5
  -2354084.29944  -1834344.28244  24626500.5344   24626505.0284
 -22047288.65944 -17179695.21044  20720525.4954   20720524.8294
 -13425860.49644 -10461693.35044  22657837.0724   22657837.7114
   1173301.35744    914262.43744  21238249.5314   21238249.5654
   2699216.30744   2103291.99544  24159927.2934   24159925.8764
 -20841591.78544 -16240194.79444  20999889.5964   20999889.9174
 -14826444.44744 -11553067.26444  22450489.8924   22450490.4754
 96  4 24  1 23 30.0000000  0  7G23G 6G17G16G24G20G 5
  -2460510.97344  -1917273.91644  24606246.5574   24606250.0334
 -22087668.88144 -17211160.31544  20712841.5754   20712840.5694
 -13492387.58844 -10513532.60944  22645177.3034   22645177.4924
   1212495.56044    944803.38044  21245707.7774   21245708.0454
   2777122.49144   2163998.10844  24174753.3074   24174755.0004
 -20784882.76744 -16196005.95744  21010681.3294   21010681.6704
 -14728525.83644 -11476767.05744  22469122.7194   22469122.6404
 96  4 24  1 24  0.0000000  0  7G23G 6G17G16G24G20G 5
  -2566909.66944  -2000181.80044  24585998.2564   24586005.1304
 -22127806.29444 -17242436.21044  20705203.5884   20705203.0134
 -13558669.68944 -10565180.95744  22632563.7104   22632564.3534
   1252225.31444    975761.64144  21253268.2894   21253268.6734
   2855013.01944   2224692.01744  24189575.6614   24189575.5084
 -20727678.08944 -16151430.89044  21021566.6054   21021567.1464
 -14630397.26244 -11400303.23944  22487796.1284   22487796.3244
 96  4 24  1 24 30.0000000  0  7G23G 6G17G16G24G20G 5
  -2673304.22444  -2083086.42744  24565752.7104   24565759.3844
 -22167722.87344 -17273540.02644  20697607.3964   20697607.1484
 -13624731.27244 -10616657.47144  22619993.0274   22619993.7144
   1292458.90144   1007112.49544  21260924.3054   21260924.8564
   2932863.27744   2285354.54744  24204388.8324   24204390.1754
 -20669981.51444 -16106472.53144  21032546.0124   21032546.5694
 -14532070.93844 -11323685.35744  22506506.9274   22506507.4964
 96  4 24  1 25  0.0000000  0  7G23G 6G17G16G24G20G 5
  -2779682.13744  -2165978.10344  24545510.8674   24545513.9134
 -22207406.77544 -17304462.53644  20690055.9824   20690055.5294
 -13690595.01244 -10667979.83444  22607459.1764   22607460.2114
   1333198.27844   1038857.47344  21268676.5984   21268676.9504
   3010664.56844   2345978.92244  24219194.4694   24219196.3884
 -20611779.75844 -16061120.52244  21043621.4994   21043621.9534
 -14433535.34144 -11246904.38944  22525257.8284   22525258.6734
 96  4 24  1 25 30.0000000  0  7G23G 6G17G16G24G20G 5
  -2886002.30244  -2248824.82544  24525278.7834   24525282.0044
 -22246848.43944 -17335196.28844  20682550.6004   20682550.0054
 -13756261.72644 -10719148.67144  22594963.0324   22594963.4004
   1374463.74344   1071012.39044  21276529.3534   21276529.6674
   3088428.26144   2406573.99644  24233991.9674   24233993.5314
 -20553056.60144 -16015362.22944  21054796.1994   21054796.5094
 -14334773.69344 -11169947.28344  22544051.0904   22544051.4734
 96  4 24  1 26  0.0000000  0  7G23G 6G17G16G24G20G 5
  -2992217.53544  -2331589.74244  24505066.3214   24505068.8284
 -22286042.11444 -17365736.80844  20675092.2124   20675091.6884
 -13821739.85644 -10770170.54044  22582502.5594   22582503.1474
   1416261.30944   1103581.93144  21284483.1434   21284483.6364
   3166163.25244   2467146.70644  24248783.4904   24248787.5404
 -20493805.34644 -15969192.42444  21066071.6244   21066071.9744
 -14235781.04444 -11092810.16744  22562889.2874   22562889.9764
 96  4 24  1 26 30.0000000  0  7G23G 6G17G16G24G20G 5
  -3098308.48144  -2414257.85944  24484878.9454   24484880.6204
 -22324982.67744 -17396080.09544  20667682.1454   20667681.8024
 -13887042.51244 -10821055.69844  22570076.3384   22570076.5884
   1458604.84644   1136576.90144  21292540.9884   21292541.2874
   3243860.47044   2527689.98144  24263568.9644   24263570.9524
 -20434048.15144 -15922628.38744  21077442.9294   21077443.3724
 -14136540.56244 -11015479.93544  22581774.2504   22581774.4194
 96  4 24  1 27  0.0000000  0  7G23G 6G17G16G24G20G 5
  -3204260.78544  -2496817.93244  24464716.5434   24464720.0844
 -22363658.33544 -17426216.96144  20660322.4514   20660322.2524
 -13952143.18844 -10871783.46544  22557688.1544   22557688.7664
   1501504.94244   1170005.55744  21300704.1914   21300704.6024
   3321537.33844   2588217.34644  24278350.7724   24278353.7654
 -20373791.32544 -15875675.02744  21088909.2894   21088910.2404
 -14037050.71644 -10937955.40844  22600706.5844   22600707.2664
 96  4 24  1 27 30.0000000  0  7G23G 6G17G16G24G20G 5
  -3310089.71444  -2579281.87944  24444577.8304   24444581.2494
 -22402080.26544 -17456156.11444  20653011.0714   20653010.6364
 -14017023.90644 -10922339.83544  22545341.5294   22545342.3364
   1544938.11344   1203849.59544  21308969.3644   21308969.9774
   3399180.36044   2648718.37744  24293126.3354   24293127.1904
 -20313066.58944 -15828357.06344  21100464.5034   21100465.5104
 -13937325.35544 -10860247.35544  22619683.6114   22619684.4424
 96  4 24  1 28  0.0000000  0  7G23G 6G17G16G24G20G 5
  -3415818.05544  -2661667.46844  24424456.4134   24424460.1464
 -22440220.53244 -17485875.79044  20645753.1614   20645752.5354
 -14081650.51844 -10972698.20744  22533043.3134   22533044.5564
   1588905.46744   1238109.87744  21317336.2184   21317336.6584
   3476787.51644   2709191.50144  24307894.7204   24307893.6964
 -20251878.61244 -15780678.13044  21112108.2784   21112109.0194
 -13837354.34744 -10782347.87344  22638707.5804   22638707.5954
 96  4 24  1 28 30.0000000  0  7G23G 6G17G16G24G20G 5
  -3521496.03644  -2744013.76144  24404347.6904   24404351.9294
 -22478086.42044 -17515381.67444  20638547.5004   20638546.9304
 -14146028.31444 -11022862.68844  22520792.7744   22520793.3034
   1633390.96744   1272773.91544  21325801.7904   21325802.1354
   3554341.38344   2769623.09044  24322652.1104   24322655.2264
 -20190248.05444 -15732654.33144  21123836.6714   21123837.2074
 -13737161.97844 -10704275.92644  22657773.1064   22657773.6814
 96  4 24  1 29  0.0000000  0  7G23G 6G17G16G24G20G 5
  -3627131.76044  -2826327.18144  24384244.5354   24384250.1124
 -22515663.97044 -17544662.87344  20631396.6594   20631396.2204
 -14210151.60844 -11072828.85944  22508590.5444   22508590.9134
   1678393.45144   1307840.79244  21334365.3714   21334365.2314
   3631857.58144   2830025.34344  24337403.4404   24337404.7804
 -20128172.31244 -15684283.62944  21135649.4104   21135649.9444
 -13636753.25344 -10626035.37944  22676881.0174   22676881.4894
 96  4 24  1 29 30.0000000  0  7G23G 6G17G16G24G20G 5
  -3732725.17544  -2908607.60944  24364149.6884   24364154.4694
 -22552945.37444 -17573713.30244  20624302.5384   20624301.9974
 -14274020.33944 -11122596.67344  22496437.1694   22496437.1954
   1723913.74544   1343311.15744  21343027.2494   21343027.5904
   3709335.69844   2890397.90644  24352147.1074   24352147.1624
 -20065649.85244 -15635564.84044  21147546.8394   21147547.3284
 -13536140.29144 -10547635.67444  22696027.1554   22696027.1594
 96  4 24  1 30  0.0000000  0  7G23G 6G17G16G24G20G 5
  -3838275.44244  -2990854.43844  24344066.8014   24344070.8644
 -22589942.94144 -17602542.56144  20617261.6774   20617261.2144
 -14337655.62944 -11172182.58844  22484327.2104   22484327.4354
   1769939.84344   1379175.65344  21351785.8704   21351786.3164
   3786786.93844   2950749.49044  24366885.5114   24366885.5914
 -20002674.47344 -15586493.12644  21159530.6084   21159531.0094
 -13435349.88144 -10469097.70244  22715206.6544   22715207.6364
 96  4 24  1 30 30.0000000  0  7G23G 6G17G16G24G20G 5
  -3943759.58244  -3073049.73744  24323992.5564   24323998.5254
 -22626686.64344 -17631174.00944  20610269.9594   20610269.3264
 -14401083.10544 -11221606.57844  22472257.0164   22472258.8014
   1816463.59744   1415427.93644  21360639.3264   21360639.7464
   3864222.04844   3011088.54444  24381621.2864   24381620.7964
 -19939241.73644 -15537065.02944  21171601.5884   21171602.0554
 -13334393.13244 -10390430.13444  22734418.1254   22734418.5934
 96  4 24  1 31  0.0000000  0  7G23G 6G17G16G24G20G 5
  -4049158.87344  -3155178.90144  24303935.2564   24303937.1614
 -22663183.61144 -17659613.19644  20603324.5994   20603324.1204
 -14464306.23744 -11270871.32144  22460226.4154   22460227.5924
   1863473.46844   1452059.00544  21369585.0334   21369585.6034
   3941645.17144   3071418.24244  24396353.7704   24396354.6254
 -19875347.62244 -15487277.41644  21183759.7944   21183760.5174
 -13233266.25244 -10311629.98844  22753662.1444   22753662.4274
 96  4 24  1 31 30.0000000  0  7G23G 6G17G16G24G20G 5
  -4154448.08644  -3237222.32544  24283900.2034   24283904.9724
 -22699416.36244 -17687846.49544  20596429.7114   20596429.1564
 -14527308.63044 -11319964.06344  22448237.2394   22448238.2904
   1910979.29544   1489076.53744  21378624.8414   21378624.9884
   4019055.24944   3131737.76544  24411083.2794   24411086.3904
 -19810963.31744 -15437107.84044  21196011.8224   21196012.3474
 -13131954.92644 -10232686.11844  22772940.9964   22772941.6184
 96  4 24  1 32  0.0000000  0  7G23G 6G17G16G24G20G 5
  -4259631.27644  -3319183.15944  24263884.3044   24263887.7564
 -22735386.07144 -17715874.82744  20589584.9104   20589584.1414
 -14590121.34944 -11368909.01144  22436284.1224   22436285.4164
   1958971.37544   1526472.97044  21387757.0064   21387757.3844
   4096427.91844   3192028.10744  24425805.8424   24425810.5654
 -19746100.49144 -15386565.38444  21208355.2244   21208355.7014
 -13030449.50644 -10153590.99844  22792257.1104   22792257.5484
 96  4 24  1 32 30.0000000  0  7G23G 6G17G16G24G20G 5
  -4364725.40044  -3401074.56144  24243885.4244   24243888.1934
 -22771092.39544 -17743697.92644  20582790.2784   20582789.3754
 -14652762.99444 -11417720.65644  22424364.3384   22424364.1174
   2007453.33844   1564251.12444  21396983.1864   21396983.1384
   4173730.71944   3252264.03344  24440516.7224   24440519.9054
 -19680775.35444 -15335662.69044  21220785.9074   21220786.5704
 -12928740.24744 -10074337.03944  22811611.2994   22811611.8204
 96  4 24  1 33  0.0000000  0  7G23G 6G17G16G24G20G 5
  -4469738.41644  -3482902.76544  24223902.5694   24223904.4874
 -22806513.28644 -17771298.61244  20576049.8044   20576049.3514
 -14715222.61244 -11466390.46644  22412478.3924   22412478.7064
   2056436.19144   1602419.58144  21406304.4204   21406304.1244
   4250952.70544   3312436.96744  24455213.6464   24455214.9674
 -19614990.65944 -15284401.90044  21233304.5854   21233304.9054
 -12826827.23444  -9994924.32044  22831004.4964   22831005.4884
 96  4 24  1 33 30.0000000  0  7G23G 6G17G16G24G20G 5
  -4574644.18344  -3564647.44444  24203938.9254   24203940.6194
 -22841634.23744 -17798665.57644  20569366.7904   20569366.0654
 -14777483.56744 -11514905.46544  22400630.6154   22400631.0814
   2105934.85244   1640989.96544  21415723.7354   21415724.1734
   4328107.13244   3372557.30844  24469895.7734   24469897.0014
 -19548732.04244 -15232771.81444  21245913.1394   21245913.4944
 -12724698.97544  -9915343.88744  22850439.3034   22850440.2854
 96  4 24  1 34  0.0000000  0  7G23G 6G17G16G24G20G 5
  -4679431.33044  -3646299.62544  24183998.4214   24184002.2944
 -22876460.30244 -17825802.76044  20562739.4764   20562738.5754
 -14839532.48544 -11563255.25944  22388823.3044   22388824.1794
   2155955.36644   1679966.98944  21425242.2854   21425242.6154
   4405216.98344   3432642.93644  24484570.0094   24484571.4534
 -19481991.31244 -15180766.06044  21258613.2124   21258613.7544
 -12622344.89644  -9835587.47244  22869916.3254   22869916.4864
 96  4 24  1 34 30.0000000  0  7G23G 6G17G16G24G20G 5
  -4784102.10444  -3727861.15844  24164080.5274   24164082.6834
 -22910998.17644 -17852715.37744  20556167.0024   20556166.4924
 -14901345.88144 -11611421.51744  22377060.7824   22377061.5964
   2206500.47644   1719352.79744  21434860.6044   21434860.7984
   4482307.73344   3492713.71544  24499240.0594   24499238.1124
 -19414765.65444 -15128382.44544  21271406.0024   21271406.5394
 -12519782.15444  -9755668.46044  22889433.4954   22889434.7654
 96  4 24  1 35  0.0000000  0  7G23G 6G17G16G24G20G 5
  -4888642.38544  -3809321.06444  24144187.5214   24144190.5554
 -22945255.09244 -17879409.06644  20549648.1744   20549647.7514
 -14962906.82644 -11659391.06344  22365346.1074   22365346.5784
   2257566.23144   1759144.29944  21444578.0714   21444578.3084
   4559392.36444   3552779.71244  24513907.2394   24513910.1164
 -19347048.92344 -15075616.17244  21284291.8684   21284292.3464
 -12417026.88744  -9675599.46244  22908986.3704   22908986.7004
 96  4 24  1 35 30.0000000  0  7G23G 6G17G16G24G20G 5
  -4993039.82344  -3890669.64444  24124321.6644   24124324.2584
 -22979230.14944 -17905883.12744  20543182.8214   20543182.3214
 -15024208.98244 -11707158.94444  22353680.6954   22353680.6714
   2309151.70744   1799340.77744  21454394.4064   21454394.7124
   4636481.88144   3612849.44244  24528576.6714   24528577.4094
 -19278842.72644 -15022468.49244  21297271.3314   21297271.7204
 -12314068.04344  -9595371.80244  22928579.1774   22928579.9114
 96  4 24  1 36  0.0000000  0  7G23G 6G17G16G24G20G 5
  -5097330.49744  -3971934.98144  24104474.9874   24104478.4114
 -23012931.47644 -17932143.89344  20536770.0004   20536769.3974
 -15085275.68944 -11754743.36044  22342060.2324   22342060.7014
   2361246.47744   1839934.11844  21464307.7384   21464308.2774
   4713559.33944   3672909.77044  24543243.8914   24543249.0014
 -19210182.95844 -14968967.38144  21310336.9414   21310337.4744
 -12210919.50644  -9514996.33544  22948207.8574   22948209.2134
 96  4 24  1 36 30.0000000  0  7G23G 6G17G16G24G20G 5
  -5201512.91744  -4053116.01844  24084649.8354   24084654.1464
 -23046336.64344 -17958173.88544  20530413.1864   20530412.5604
 -15146104.87044 -11802142.69344  22330484.2694   22330484.6884
   2413849.39744   1880923.41344  21474317.8294   21474318.5514
   4790623.97244   3732960.08844  24557907.2044   24557911.5274
 -19141076.63044 -14915118.30744  21323487.3174   21323487.8974
 -12107580.29044  -9434472.28144  22967872.3844   22967873.6554
 96  4 24  1 37  0.0000000  0  7G23G 6G17G16G24G20G 5
  -5305589.46144  -4134214.54044  24064843.3854   24064845.5134
 -23079442.26844 -17983970.46944  20524113.5134   20524112.9354
 -15206734.45844 -11849386.48544  22318947.0464   22318947.7254
   2466935.22144   1922288.99644  21484420.1064   21484419.7844
   4867645.93744   3792977.16244  24572563.6014   24572564.9684
 -19071545.13844 -14860937.93144  21336719.0924   21336719.6944
 -12004070.81144  -9353815.57944  22987570.1884   22987570.4184
 96  4 24  1 37 30.0000000  0  7G23G 6G17G16G24G20G 5
  -5409565.63544  -4215234.85944  24045058.3364   24045060.4174
 -23112231.73444 -18009520.69344  20517873.5784   20517873.1174
 -15267178.42944 -11896485.64044  22307444.4854   22307446.3254
   2520495.67944   1964024.43044  21494611.9744   21494612.0964
   4944628.93644   3852963.87344  24587215.5004   24587219.1304
 -19001606.54644 -14806440.33844  21350027.8734   21350028.4594
 -11900404.45344  -9273036.62544  23007296.2034   23007297.2594
 96  4 24  1 38  0.0000000  0  7G23G 6G17G16G24G20G 5
  -5513419.39944  -4296159.77844  24025296.2034   24025299.3134
 -23144689.26744 -18034812.27044  20511697.2414   20511696.7544
 -15327429.39544 -11943434.41244  22295979.4354   22295980.0494
   2574543.05844   2006139.27244  21504896.9164   21504897.4374
   5021586.36144   3912930.64644  24601859.8844   24601864.1714
 -18931238.10744 -14751607.79944  21363418.1894   21363418.8364
 -11796594.22844  -9192145.54844  23027051.2744   23027052.4324
 96  4 24  1 38 30.0000000  0  7G23G 6G17G16G24G20G 5
  -5617123.84044  -4376968.36344  24005560.7434   24005563.1484
 -23176813.44844 -18059844.08944  20505584.3054   20505583.6794
 -15387480.12044 -11990227.14144  22284552.3014   22284552.6514
   2629077.82944   2048633.90944  21515274.4164   21515274.8944
   5098508.52144   3972870.00044  24616498.7994   24616501.3274
 -18860427.22544 -14696430.49944  21376893.0034   21376893.7644
 -11692672.87744  -9111167.88544  23046826.9614   23046828.3394
 96  4 24  1 39  0.0000000  0  7G23G 6G17G16G24G20G 5
  -5720660.12944  -4457645.91544  23985859.1314   23985861.9814
 -23208622.86044 -18084630.63744  20499531.2014   20499530.6114
 -15447322.30944 -12036857.37444  22273164.5114   22273165.2614
   2684111.20244   2091517.06844  21525747.2274   21525747.4584
   5175391.21444   4032778.59144  24631129.9014   24631129.6754
 -18789181.05544 -14640914.01844  21390450.9824   21390451.8544
 -11588647.87744  -9030109.46444  23066623.0404   23066623.1334
 96  4 24  1 39 30.0000000  0  7G23G 6G17G16G24G20G 5
  -5824047.79544  -4538207.65944  23966185.2204   23966187.7654
 -23240156.79744 -18109202.52944  20493530.6624   20493530.1144
 -15506945.29644 -12083316.80744  22261818.9204   22261819.2384
   2739630.92044   2134779.19244  21536312.2084   21536312.2304
   5252213.76244   4092640.33744  24645748.3574   24645746.8784
 -18717513.71544 -14585069.35144  21404088.8704   21404089.9234
 -11484515.38044  -8948967.29344  23086438.6994   23086439.2074
 96  4 24  1 40  0.0000000  0  8G23G 6G17G16G26G24G20G 5
  -5927283.40844  -4618650.91344  23946540.8064   23946544.5214
 -23271415.81444 -18133560.19844  20487581.9294   20487581.2244
 -15566336.18544 -12129595.37644  22250516.8054   22250517.1624
   2795631.74744   2178416.20344  21546968.8454   21546969.2874
        -0.40254                  24043472.5484
   5328961.23444   4152443.65444  24660351.8844   24660348.7934
 -18645414.33644 -14528888.02944  21417808.8594   21417809.5774
 -11380244.74944  -8867717.46844  23106281.3824   23106282.4384
 96  4 24  1 40 30.0000000  0  8G23G 6G17G16G26G24G20G 5
  -6030374.96444  -4698981.91944  23926922.3304   23926923.8734
 -23302389.07644 -18157695.19844  20481687.9884   20481687.3544
 -15625486.91644 -12175686.80144  22239260.6744   22239261.2694
   2852104.01344   2222420.56644  21557715.3144   21557715.6954
    -79108.14844                  24028419.0594
   5405634.52844                  24674942.4924
 -18572896.48644 -14472380.62844  21431608.6984   21431609.5824
 -11275806.87944  -8786337.32844  23126154.4264   23126155.0054
 96  4 24  1 41  0.0000000  0  7G23G 6G17G16G24G20G 5
  -6133312.49644  -4779192.92244  23907334.3174   23907336.0954
 -23333046.49444 -18181584.08744  20475854.0774   20475853.4864
 -15684382.80344 -12221579.65844  22228053.2554   22228053.7554
   2909061.84144   2266803.28744  21568554.0504   21568554.2104
   5482273.62844                  24689524.8284
 -18499936.80844 -14415528.94644  21445492.2044   21445492.7944
 -11171135.59444  -8704775.30944  23146072.3124   23146073.1304
 96  4 24  1 41 30.0000000  0  7G23G 6G17G16G24G20G 5
  -6236126.93944  -4859307.97744  23887768.7544   23887770.7514
 -23363374.96344 -18205216.65344  20470082.6554   20470082.0614
 -15743044.14544 -12267289.75644  22216890.2294   22216891.2494
   2966477.29644   2311542.60144  21579479.8004   21579480.0444
   5558870.14544   4331593.39344  24704098.5824   24704098.6724
 -18426548.74444 -14358343.44844  21459457.7964   21459458.2934
 -11066238.03244  -8623036.97744  23166034.0924   23166035.4004
 96  4 24  1 42  0.0000000  0  7G23G 6G17G26G24G20G 5
  -6338844.47744  -4939347.52744  23868222.7814   23868225.9874
 -23393385.73244 -18228601.65844  20464371.9724   20464371.2684
 -15801502.64544 -12312841.79644  22205766.0204   22205766.3434
        -0.49954                  23983381.5884
   5635414.64144   4391238.40844  24718668.6004   24718669.7954
 -18352768.25844 -14300852.16644  21473498.1234   21473498.4994
 -10961167.93844  -8541164.19944  23186028.4704   23186028.9184
 96  4 24  1 42 30.0000000  0  7G23G 6G17G26G24G20G 5
  -6441465.54744  -5019311.94644  23848694.1164   23848695.3914
 -23423093.98744 -18251750.93944  20458718.6644   20458718.1264
 -15859770.54444 -12358245.31944  22194678.4714   22194678.6894
    -78708.40344                  23968403.9984
   5711919.71944   4450852.77944  24733227.1544   24733226.1934
 -18278606.92144 -14243064.12744  21487610.2584   21487610.7884
 -10855959.67744  -8459183.75144  23206048.5414   23206049.4794
 96  4 24  1 43  0.0000000  0  7G23G 6G17G26G24G20G 5
  -6543958.84344  -5099176.75844  23829190.3594   23829191.9064
 -23452487.45844 -18274654.93144  20453125.0914   20453124.5434
 -15917826.78344 -12403483.91344  22183630.2674   22183631.0884
   -157317.10944                  23953445.6724
   5788410.57344   4510456.05544  24747783.4174   24747785.2794
 -18204036.94244 -14184957.66444  21501800.1904   21501801.1864
 -10750612.74044  -8377095.26644  23226095.3084   23226096.1504
 96  4 24  1 43 30.0000000  0  7G23G 6G17G26G24G20G 5
  -6646308.93344  -5178929.99344  23809714.1814   23809716.7464
 -23481559.63744 -18297308.56944  20447593.0864   20447592.5604
 -15975645.81644 -12448537.67544  22172627.8654   22172628.2714
   -235826.41944                  23938507.1464
   5864891.13944   4570051.31144  24762337.4304   24762338.8044
 -18129051.05544 -14126527.11944  21516069.3974   21516070.2964
 -10645153.73444  -8294919.43644  23246164.2024   23246165.7034
 96  4 24  1 44  0.0000000  0  7G23G 6G17G26G24G20G 5
  -6748489.92744  -5258551.46344  23790270.1864   23790272.9854
 -23510311.78044 -18319712.82844  20442121.8304   20442121.2464
 -16033229.01344 -12493407.65944  22161670.0954   22161670.6614
   -314235.59244                  23923586.1134
   5941356.91944   4629635.05144  24776888.3424
 -18053634.09444 -14067760.67444  21530420.8834   21530421.4754
 -10539588.59144  -8212660.91644  23266252.4954   23266253.4184
 96  4 24  1 44 30.0000000  0  7G23G 6G17G26G24G20G 5
  -6850530.10344  -5338063.22744  23770852.1154   23770853.2104
 -23538785.53144 -18341900.15844  20436702.9504   20436702.4664
 -16090631.36744 -12538136.74144  22150746.2394   22150747.1754
   -392575.56844                  23908675.4594
   6017751.78744   4689164.89844  24791427.0834   24791427.8544
 -17977821.99344 -14008686.32444  21544847.3714   21544848.0794
 -10433947.24244  -8130342.99344  23286355.2134   23286355.0484
 96  4 24  1 45  0.0000000  0  6G23G 6G17G26G20G 5
  -6952427.68644  -5417463.89844  23751461.5734   23751461.8064
 -23566959.27944 -18363853.72244  20431341.9334   20431341.3674
 -16147848.67744 -12582721.63544  22139858.3694   22139859.7844
   -470841.31544                  23893783.9294
 -17901614.71644 -13949304.04444  21559349.4764   21559350.0404
 -10328218.11544  -8047956.67044  23306475.3354   23306475.6634
 96  4 24  1 45 30.0000000  0  6G23G 6G17G26G20G 5
  -7054131.54244  -5496713.55744  23732107.1214   23732109.4504
 -23594773.64444 -18385527.24944  20426048.9494   20426048.4024
 -16204832.64544 -12627124.69344  22129014.7144   22129015.6814
   -548971.80444                  23878915.6194
 -17824969.47844 -13889580.49844  21573934.8554   21573935.3994
 -10222346.94544  -7965459.66544  23326621.7464   23326622.0374
 96  4 24  1 46  0.0000000  0  7G23G 6G17G26G16G20G 5
  -7155662.35544  -5575828.41944  23712787.1754   23712788.0274
 -23622254.13244 -18406940.60744  20420819.6894   20420819.1614
 -16261633.00544 -12671384.69244  22118206.0504   22118207.3744
   -626981.02244                  23864069.6434
        -0.26354         0.72854  21681726.0134   21681726.0134
 -17747925.04144 -13829545.87944  21588595.8584   21588596.2644
 -10116345.87444  -7882861.45244  23346793.1694   23346793.7394
 96  4 24  1 46 30.0000000  0  7G23G 6G17G26G16G20G 5
  -7257004.82644  -5654796.52744  23693502.1904   23693502.8444
 -23649372.04944 -18428071.44544  20415659.5464   20415658.8054
 -16318203.33944 -12715465.45144  22107441.4094   22107441.9794
   -704841.02444                  23849253.3364
     62055.53844     48355.90844  21693535.0684   21693535.1974
 -17670467.03344 -13769189.00444  21603335.3004   21603336.2534
 -10010188.07544  -7800141.12844  23366994.2584   23366994.8804
 96  4 24  1 47  0.0000000  0  7G23G 6G17G26G16G20G 5
  -7358181.26944  -5733635.26344  23674248.9634   23674251.0764
 -23676144.64144 -18448933.20244  20410564.5814   20410564.0804
 -16374551.81744 -12759373.33744  22096718.0584   22096718.6804
   -782578.09144                  23834460.8844
    124541.74644     97046.46144  21705425.3194   21705425.6684
 -17592621.92744 -13708530.49444  21618148.7954   21618149.8014
  -9903899.76244  -7717319.11144  23387220.8204   23387221.1414
 96  4 24  1 47 30.0000000  0  7G23G 6G17G26G16G20G 5
  -7459188.80044  -5812342.34844  23655027.4004   23655028.7974
 -23702589.30044 -18469539.42244  20405532.4334   20405531.9014
 -16430683.36344 -12803112.17844  22086037.1574   22086037.1344
   -860199.29644                  23819691.1824
    187438.80644    146057.16244  21717394.0734   21717394.1714
 -17514399.87944 -13647578.26044  21633034.2734   21633034.8214
  -9797496.45544  -7634407.45444  23407467.2124   23407467.1734
 96  4 24  1 48  0.0000000  0  7G23G 6G17G26G16G20G 5
  -7560018.93844  -5890911.20444  23635841.3414   23635843.8004
 -23728694.30544 -18489880.97744  20400564.6424   20400564.1144
 -16486586.33744 -12846672.91044  22075399.2274   22075399.0274
   -937691.91044                  23804944.3924
    250774.56244    195409.70144  21729446.4934   21729446.9234
 -17435794.70344 -13586327.49044  21647991.7374   21647992.6294
  -9690971.52644  -7551401.02344  23427738.3474   23427738.4644
 96  4 24  1 48 30.0000000  0  7G23G 6G17G26G16G20G 5
  -7660674.04844  -5969343.72044  23616686.3884   23616689.4324
 -23754450.06144 -18509950.38944  20395663.6914   20395663.0894
 -16542237.33144 -12890037.28744  22064808.5054   22064809.4774
  -1015047.62044                  23790223.0384
    314556.51044    245109.92844  21741584.0314   21741584.6534
 -17356805.15844 -13524777.21344  21663023.0584   21663024.0084
  -9584330.20844  -7468303.87244  23448031.2164   23448030.8074
 96  4 24  1 49  0.0000000  0  7G23G 6G17G26G16G20G 5
  -7761157.76044  -6047642.62944  23597564.9114   23597567.9794
 -23779871.51344 -18529759.30944  20390826.0744   20390825.5084
 -16597667.37444 -12933229.50844  22054260.3264   22054261.1384
  -1092269.28244                  23775530.2414
    378766.06844    295143.35244  21753802.9094   21753802.7184
 -17277449.33444 -13462941.52144  21678124.1034   21678124.5954
  -9477579.89344  -7385121.83344  23468346.6504   23468347.2734
 96  4 24  1 49 30.0000000  0  7G23G 6G17G26G16G20G 5
  -7861476.74444  -6125813.20944  23578474.5544   23578474.6164
 -23804956.32044 -18549305.90944  20386052.4744   20386051.8794
 -16652879.16444 -12976251.65744  22043754.6464   22043754.6184
  -1169339.46344                  23760864.5554
    443402.52044    345509.42144  21766102.7004   21766103.2684
 -17197727.12344 -13400820.33244  21693295.2364   21693295.5594
  -9370723.50844  -7301857.13244  23488680.0624   23488682.1434
 96  4 24  1 50  0.0000000  0  7G23G 6G17G26G16G20G 5
  -7961634.69444  -6203858.29944  23559414.9674   23559415.4684
 -23829704.24744 -18568590.00044  20381343.2054   20381342.6314
 -16707873.29244 -13019104.19444  22033289.6394   22033290.2324
  -1246243.14044                  23746230.2024
    508471.19544    396212.28644  21778484.5134   21778484.5644
 -17117637.23844 -13338412.63744  21708535.7004   21708535.9344
  -9263768.91144  -7218515.92844  23509033.0664   23509033.6984
 96  4 24  1 50 30.0000000  0  7G23G 6G17G26G16G20G 5
  -8061613.02344  -6281763.44144  23540389.9424   23540391.0894
 -23854114.34444 -18587610.84844  20376698.2194   20376697.6044
 -16762639.66144 -13061779.26344  22022867.3304   22022868.2064
  -1322977.57744                  23731627.1214
    573970.60744    447250.78444  21790948.9844   21790949.1144
 -17037167.26244 -13275708.77044  21723848.7134   21723849.2924
  -9156712.35144  -7135095.24144  23529405.3724   23529406.1904
 96  4 24  1 51  0.0000000  0  8G23G 6G17G22G26G16G20G 5
  -8161415.82444  -6359531.78544  23521398.9774   23521400.2624
 -23878205.51344 -18606383.18344  20372113.9184   20372113.1964
 -16817198.65244 -13104292.73844  22012485.3824   22012485.6664
        -0.42554                  24958522.7824
  -1399557.37744                  23717053.4744
    639898.96044    498623.52544  21803494.5504   21803494.8874
 -16956317.53644 -13212708.99644  21739233.6744   21739234.2004
  -9049574.52444  -7051611.24744  23549792.7454   23549793.1394
 96  4 24  1 51 30.0000000  0  7G23G 6G17G26G16G20G 5
  -8261063.17144  -6437179.01244  23502436.2264   23502436.2904
 -23901998.34844 -18624923.04944  20367586.0604   20367585.5684
 -16871566.19444 -13146657.02644  22002139.0844   22002139.7874
  -1476014.84644                  23702504.7194
    706239.23244    550317.24344  21816118.8674   21816118.7034
 -16875101.64344 -13149423.89544  21754688.7794   21754689.4684
  -8942393.15844  -6968093.31544  23570188.0934   23570189.4724
 96  4 24  1 52  0.0000000  0  7G23G 6G17G26G16G20G 5
  -8360514.64844  -6514673.61944  23483510.8334   23483510.9014
 -23925467.75644 -18643210.89144  20363120.0364   20363119.3364
 -16925708.07944 -13188845.48444  21991836.6284   21991836.7674
  -1552337.18844                  23687982.4034
    773016.84844    602351.75744  21828825.9454   21828826.5144
 -16793499.22844 -13085837.61244  21770216.5464   21770217.4054
  -8835130.21244  -6884511.81244  23590599.3584   23590599.9674
 96  4 24  1 52 30.0000000  0  7G23G 6G17G26G16G20G 5
  -8459774.44844  -6592018.86144  23464622.6854   23464624.1074
 -23948605.18644 -18661240.05244  20358717.0274   20358716.4544
 -16979637.40044 -13230868.31244  21981574.3564   21981574.6724
  -1628536.71044                  23673480.6424
    840223.35744    654720.45644  21841614.6224   21841615.2684
 -16711523.58044 -13021960.49744  21785816.1484   21785816.9004
  -8727785.03644  -6800866.24744  23611027.5764   23611028.0794
 96  4 24  1 53  0.0000000  0  7G23G 6G17G26G16G20G 5
  -8558864.56244  -6669231.86844  23445765.9704   23445766.4924
 -23971412.09044 -18679011.65744  20354376.9414   20354376.6144
 -17033367.22344 -13272735.67944  21971349.9364   21971350.3274
  -1704613.35844                  23659004.6374
    907840.46144    707409.10944  21854482.1874   21854482.0294
 -16629197.73144 -12957810.49944  21801482.6294   21801483.5834
  -8620376.12444  -6717170.98444  23631466.3224   23631466.8574
 96  4 24  1 53 30.0000000  0  7G23G 6G17G26G16G20G 5
  -8657787.78244  -6746314.83144  23426941.4244   23426943.7154
 -23993885.63944 -18696523.50444  20350100.5594   20350099.9504
 -17086900.39844 -13314449.81044  21961163.0994   21961163.3934
  -1780558.22544                  23644551.8204
    975844.75344    760399.46544  21867423.1664   21867423.6354
 -16546546.64544 -12893407.06844  21817210.7824   21817211.9114
  -8512906.81144  -6633428.68844  23651917.1264   23651917.5304
 96  4 24  1 54  0.0000000  0  7G23G 6G17G26G16G20G 5
  -8756526.10444  -6823253.74744  23408151.8994   23408153.6384
 -24015995.82144 -18713752.21244  20345893.0304   20345892.4864
 -17140234.62044 -13356008.91444  21951013.9494   21951014.2104
  -1856325.44744                  23630134.5924
   1044242.73744    813696.59444  21880438.8504   21880439.3884
 -16463568.81444 -12828749.03044  21833000.5904   21833001.6654
  -8405362.57844  -6549627.97544  23672381.4134   23672380.5884
 96  4 24  1 54 30.0000000  0  7G23G 6G17G26G16G20G 5
  -8855067.09944  -6900038.86844  23389399.3044   23389401.4334
 -24037718.33044 -18730678.83644  20341759.3864   20341758.8774
 -17193367.19044 -13397410.89344  21940903.0304   21940903.2274
  -1931896.40544  -1505372.74744  23615754.2404
   1113041.60344    867306.10044  21893530.5254   21893530.8884
 -16380259.14744 -12763832.42144  21848854.0614   21848854.5794
  -8297757.86144  -6465780.17544  23692858.9874   23692860.1624
 96  4 24  1 55  0.0000000  0  7G23G 6G17G26G16G20G 5
  -8953399.97744  -6976661.81244  23370687.3924   23370688.8954
 -24059062.54644 -18747310.68544  20337697.9384   20337697.2744
 -17246291.88744 -13438650.89544  21930831.5044   21930831.2544
  -2007262.69544  -1564099.65344  23601412.0684
   1182239.30744    921226.37844  21906698.5424   21906698.8964
 -16296613.64344 -12698654.11944  21864771.6504   21864771.7754
  -8190087.37744  -6381881.12044  23713348.1234   23713347.8034
 96  4 24  1 55 30.0000000  0  7G23G 6G17G26G16G20G 5
  -9051483.28044  -7053090.31444  23352023.7954   23352023.8954
 -24079998.93144 -18763624.74744  20333713.8084   20333713.0474
 -17298982.31344 -13479708.34744  21920804.9754   21920804.8454
  -2082398.67744  -1622647.12644  23587113.7034   23587114.9324
   1251874.26944    975487.37844  21919949.7154   21919950.0064
 -16212594.85344 -12633184.93544  21880759.2684   21880759.7084
  -8082304.46044  -6297894.46544  23733859.2124   23733862.0194
 96  4 24  1 56  0.0000000  0  8G23G 6G17G22G26G16G20G 5
  -9149331.05744  -7129335.27244  23333403.2104   23333405.7614
 -24100532.20044 -18779624.69144  20329806.3124   20329805.4814
 -17351436.31244 -13520581.57044  21910822.8894   21910822.9854
         0.04454                  24802649.8574
  -2157331.96144                  23572854.9414
   1321951.22844   1030092.80544  21933285.2384   21933285.1054
 -16128204.34844 -12567426.10744  21896818.6744   21896819.1174
  -7974412.25144  -6213822.62744  23754389.6374   23754390.8544
 96  4 24  1 56 30.0000000  0  8G23G 6G17G22G26G16G20G 5
  -9246999.15944  -7205440.22744  23314817.3664   23314818.9484
 -24120725.12144 -18795359.43144  20325963.8134   20325963.0544
 -17403683.70244 -13561293.79544  21900880.6294   21900881.6504
    -80119.54844    -62431.19444  24787404.0744
  -2232132.28944  -1739322.55744  23558620.3574
   1392426.89144   1085008.90544  21946695.5384   21946696.0844
 -16043483.47044 -12501409.84544  21912940.4574   21912940.9294
  -7866453.02044  -6129698.56444  23774932.9754   23774933.1924
 96  4 24  1 57  0.0000000  0  7G23G 6G17G26G16G20G 5
  -9344506.07244  -7281419.58444  23296262.6934   23296263.9084
 -24140598.29244 -18810845.01344  20322181.8914   20322181.2444
 -17455739.80644 -13601856.97644  21890974.7554   21890974.8514
  -2306795.58444  -1797501.69744  23544411.6944
   1463287.06344   1140224.60944  21960180.0584   21960180.5044
 -15958429.60744 -12435134.11344  21929125.9344   21929126.6194
  -7758435.17644  -6045528.83244  23795488.6074   23795489.3274
 96  4 24  1 57 30.0000000  0  8G23G 6G17G22G26G16G20G 5
  -9441807.22944  -7357238.62344  23277746.0984   23277747.6104
 -24160074.83844 -18826021.54044  20318475.7764   20318474.9534
 -17507544.77444 -13642224.46244  21881116.6494   21881116.9964
        -0.08554                  24757087.0554
  -2381264.70844  -1855529.51544  23530240.8314   23530239.9424
   1534580.51444   1195777.94544  21973746.9674   21973746.9604
 -15873002.23444 -12368567.34344  21945381.4254   21945382.1844
  -7650324.94044  -5961287.09944  23816061.2174   23816062.9684
 96  4 24  1 58  0.0000000  0  8G23G 6G17G22G26G16G20G 5
  -9538917.02344  -7432908.51944  23259267.2234   23259268.5104
 -24179168.34344 -18840899.59544  20314842.3074   20314841.5254
 -17559126.50944 -13682418.00244  21871301.1374   21871301.0204
    -79909.56244                  24742022.8714
  -2455551.87244  -1913415.58144  23516105.2214   23516106.0724
   1606276.28444   1251644.77244  21987390.1444   21987390.6974
 -15787239.26144 -12301739.06744  21961701.6134   21961702.5624
  -7542173.62344  -5877013.34744  23836642.3274   23836644.0614
 96  4 24  1 58 30.0000000  0  7G23G 6G17G26G16G20G 5
  -9635844.62944  -7508436.45944  23240822.7244   23240823.5004
 -24197904.83244 -18855499.45444  20311276.7784   20311276.4204
 -17610530.55444 -13722473.07944  21861519.0544   21861519.5314
  -2529659.03044  -1971161.40744  23502002.9524   23502002.4264
   1678330.06844   1307790.57344  22001102.1334   22001102.4744
 -15701171.16344 -12234673.03344  21978079.7284   21978080.6134
  -7434018.12944  -5792736.35844  23857223.2634   23857225.1304
 96  4 24  1 59  0.0000000  0  8G23G 6G17G22G26G16G20G 5
  -9732539.05044  -7583782.69944  23222422.2984   23222423.7864
 -24216239.07544 -18869785.87344  20307788.1684   20307787.5644
 -17661725.75544 -13762365.41844  21851776.9414   21851777.3764
         0.00354                  24712079.0064
  -2603528.52844  -2028721.98444  23487945.4744   23487946.2604
   1750783.60944   1364247.86844  22014889.6244   22014890.1304
 -15614773.68244 -12167350.33344  21994521.0284   21994521.9594
  -7325820.29344  -5708426.36344  23877813.2834   23877813.9034
 96  4 24  1 59 30.0000000  0  7G23G 6G17G26G16G20G 5
  -9828972.42544  -7658925.53544  23204071.7694   23204072.8654
 -24234162.46044 -18883752.14744  20304377.3114   20304376.5664
 -17712692.11544 -13802079.44444  21842078.3564   21842078.6074
  -2677158.32244  -2086095.78844  23473934.3714   23473932.4494
   1823655.93944   1421031.49544  22028756.0824   22028756.5674
 -15528056.51744 -12099778.53044  22011022.8104   22011023.3824
  -7217560.10144  -5624067.78844  23898413.9684   23898415.8524
 96  4 24  2  0  0.0000000  0  7G23G 6G17G26G16G20G 5
  -9925126.81744  -7733850.98944  23185773.4544   23185774.9014
 -24251699.65944 -18897417.49444  20301040.1514   20301039.6374
 -17763425.50544 -13841611.93344  21832424.0414   21832424.2594
  -2750534.88944  -2143272.27944  23459971.3214   23459969.4724
   1896960.95144   1478152.28444  22042705.7564   22042705.8764
 -15441005.16144 -12031946.30744  22027588.5654   22027588.9564
  -7109217.24544  -5539644.81544  23919030.8944   23919030.5764
 96  4 24  2  0 30.0000000  0  8G23G 6G17G22G26G16G20G 5
 -10021036.96044  -7808586.10944  23167522.7234   23167523.2584
 -24268885.66544 -18910809.18544  20297769.6674   20297769.0914
 -17813934.85244 -13880969.83844  21822812.6634   21822812.6184
        -0.37354                  24667664.1674
  -2823681.48744  -2200269.60044  23446051.9124   23446052.6404
   1970683.73444   1535598.61344  22056734.6474   22056735.4184
 -15353632.63044 -11963863.82144  22044214.5784   22044214.9494
  -7000800.81344  -5455164.44844  23939661.7854   23939661.6554
 96  4 24  2  1  0.0000000  0  7G23G 6G17G26G16G20G 5
 -10116729.34744  -7883151.55844  23149313.1324   23149314.7564
 -24285736.38344 -18923939.61344  20294563.1984   20294562.6354
 -17864227.06244 -13920158.55244  21813242.4334   21813242.7404
  -2896631.17844  -2257113.47044  23432169.6184   23432168.0174
   2044815.42044   1593363.56044  22070840.9424   22070841.4724
 -15265954.94044 -11895543.55044  22060899.2764   22060899.8184
  -6892327.39644  -5370639.73744  23960303.7204   23960308.4084
 96  4 24  2  1 30.0000000  0  7G23G 6G17G26G16G20G 5
 -10212256.71744  -7957588.41144  23131135.2914   23131136.7604
 -24302289.98644 -18936838.52344  20291413.1354   20291412.6464
 -17914348.75044 -13959214.39244  21803704.3284   21803704.8744
  -2969436.60544  -2313844.88044  23418315.1764   23418313.9684
   2119284.79544   1651391.63844  22085012.1714   22085012.4564
 -15178009.81944 -11827014.89144  22077634.5664   22077635.5614
  -6783852.97844  -5286114.21144  23980947.5174   23980950.6324
 96  4 24  2  2  0.0000000  0  7G23G 6G17G26G16G20G 5
 -10307591.51444  -8031875.21444  23112993.8474   23112994.4224
 -24318489.50444 -18949461.51844  20288330.3644   20288329.6734
 -17964267.32444 -13998111.95844  21794205.1224   21794205.6024
  -3042060.66144  -2370435.03544  23404495.3134   23404495.1024
   2194103.79944   1709692.15444  22099250.3714   22099250.7074
 -15089744.18644 -11758236.49244  22094431.1284   22094432.3134
  -6675354.67144  -5201570.09244  24001591.7874   24001594.2794
 96  4 24  2  2 30.0000000  0  7G23G 6G17G26G16G20G 5
 -10402767.42144  -8106038.20544  23094882.0244   23094883.2674
 -24334340.48644 -18961812.93344  20285314.0214   20285313.3974
 -18014018.69744 -14036879.24444  21784737.8244   21784738.1264
  -3114541.46344  -2426913.54144  23390703.9704   23390703.0194
   2269218.64444   1768223.20144  22113544.4544   22113544.6154
 -15001195.81444 -11689237.77644  22111280.9834   22111282.1224
  -6566882.46344  -5117046.30644  24022233.6464   24022234.1284
 96  4 24  2  3  0.0000000  0  7G23G 6G17G26G16G20G 5
 -10497737.84844  -8180041.08544  23076809.7674   23076811.7454
 -24349801.87444 -18973860.76644  20282371.8074   20282371.3124
 -18063569.88044 -14075490.52544  21775308.4694   21775308.8594
  -3186839.32844  -2483249.50544  23376944.8524   23376947.7634
   2344639.74744   1826992.89244  22127896.4164   22127896.3484
 -14912349.57044 -11620006.94944  22128188.4624   22128189.3474
  -6458415.59644  -5032526.67144  24042875.5404
 96  4 24  2  3 30.0000000  0  7G23G 6G17G26G16G20G 5
 -10592480.45344  -8253866.44844  23058780.2164   23058782.3104
 -24364857.47144 -18985592.39344  20279507.0154   20279506.4344
 -18112902.91044 -14113931.83044  21765920.5304   21765921.1944
  -3258914.82044  -2539412.18744  23363229.4654   23363228.5744
   2420368.49444   1886002.29944  22142306.7004   22142306.8164
 -14823203.81044 -11550542.73044  22145152.2794   22145152.8714
  -6349939.89744  -4948000.14044  24063516.3244
 96  4 24  2  4  0.0000000  0  8G23G 6G17G22G26G16G20G 5
 -10686954.50744  -8327482.53144  23040802.9494   23040804.2354
 -24379499.24144 -18997001.56244  20276720.7474   20276720.0044
 -18161987.76444 -14152179.74744  21756580.2014   21756580.5554
        -0.60454                  24566093.2514
  -3330731.10344  -2595372.89244  23349563.9344   23349561.8084
   2496451.52544   1945287.77444  22156784.8824   22156785.1974
 -14733750.42944 -11480838.80244  22162174.5454   22162175.0654
  -6241431.57844                  24084163.9264
 96  4 24  2  4 30.0000000  0  7G23G 6G17G26G16G20G 5
 -10781137.94544  -8400872.17244  23022879.5474   23022880.8604
 -24393721.42744 -19008083.78144  20274014.4354   20274013.8534
 -18210800.58544 -14190215.69044  21747291.7024   21747292.0214
  -3402252.48444  -2651103.77844  23335952.8944   23335952.5234
   2572922.22044   2004875.32344  22171337.1124   22171337.5014
 -14643997.28744 -11410901.28844  22179253.6424   22179254.2564
  -6132870.05544                  24104822.6014
 96  4 24  2  5  0.0000000  0  8G23G 6G17G22G26G16G20G 5
 -10875034.89444  -8474038.57144  23005011.4614   23005011.7444
 -24407530.48144 -19018844.07944  20271386.4954   20271386.0154
 -18259351.77244 -14228047.75644  21738052.3384   21738052.6044
        -0.05854                  24537717.3634
  -3473464.14144  -2706593.34044  23322401.6354   23322401.0454
   2649787.59044   2064770.41644  22185963.8874   22185964.2014
 -14553950.85744 -11340735.25244  22196389.0944   22196389.8064
  -6024243.68644                  24125493.6984
 96  4 24  2  5 30.0000000  0  8G23G 6G17G22G26G16G20G 5
 -10968672.83044  -8547003.14744  22987193.7564   22987193.5864
 -24420941.82344 -19029294.47344  20268834.2944   20268833.6804
 -18307680.69544 -14265706.63144  21728855.8024   21728856.1624
    -73968.81644                  24523639.7204
  -3544386.76944  -2761857.69744  23308906.0784   23308905.3484
   2727040.79344   2124967.71144  22200664.6364   22200664.6504
 -14463618.49644 -11270346.41344  22213578.3734   22213579.8574
  -5915567.52544                  24146175.2724
 96  4 24  2  6  0.0000000  0  8G23G 6G17G22G26G16G20G 5
 -11062103.43744  -8619806.17244  22969414.5214   22969414.5384
 -24434006.84444 -19039475.00244  20266348.2434   20266347.7014
 -18355859.50444 -14303248.54144  21719687.7134   21719687.9934
   -147609.84344   -115020.31444  24509629.8464
  -3615089.58144  -2816950.74844  23295451.2484   23295450.6684
   2804633.32344   2185429.42344  22215430.2534   22215430.3904
 -14373035.70044 -11199762.43544  22230815.9264   22230816.3404
  -5806902.56244                  24166856.6794
 96  4 24  2  6 30.0000000  0  8G23G 6G17G22G26G16G20G 5
 -11155310.58144  -8692435.07344  22951678.9324   22951678.4944
 -24446685.00344 -19049354.08344  20263935.7164   20263935.2054
 -18403874.59744 -14340662.88244  21710550.5944   21710551.0064
   -220902.37144   -172131.31144  24495680.3974
  -3685544.85944  -2871850.93444  23282044.6854   23282044.5094
   2882577.03344   2246164.77744  22230262.0434   22230261.8234
 -14282165.91244 -11128954.82044  22248107.7664   22248108.5584
  -5698224.10644                  24187536.5974
 96  4 24  2  7  0.0000000  0  7G23G 6G17G22G26G16G20
 -11248303.97744  -8764897.42644  22933982.3684   22933982.7224
 -24458990.67644 -19058942.91744  20261594.1394   20261593.5164
 -18451747.73044 -14377966.60044  21701440.3004   21701440.7444
   -293875.78044                  24481796.0304
  -3755781.99044  -2926581.13144  23268678.0454   23268678.5434
   2960854.52044   2307160.21344  22245157.4314   22245157.8134
 -14191015.70444 -11057928.69644  22265453.3064   22265453.8724
 96  4 24  2  7 30.0000000  0  7G23G 6G17G22G26G16G20
 -11341071.81044  -8837184.00044  22916329.1014   22916329.4804
 -24470928.69544 -19068245.26544  20259322.0064   20259321.4954
 -18499466.33844 -14415149.90644  21692360.1604   21692360.7164
   -366525.81244                  24467969.4624
  -3825807.43544  -2981146.39844  23255353.1804   23255352.8474
   3039466.28244   2368416.13344  22260117.0634   22260117.0614
 -14099597.12644 -10986693.45144  22282849.9004   22282851.0044
 96  4 24  2  8  0.0000000  0  7G23G 6G17G22G26G16G20
 -11433549.36344  -8909244.37144  22898730.4494   22898731.4844
 -24482449.81944 -19077222.76344  20257129.8824   20257129.3304
 -18546951.76044 -14452151.51044  21683323.7374   21683324.5274
   -438791.18544                  24454218.4264
  -3895559.53944  -3035498.63344  23242079.8914   23242081.5144
   3118455.83244   2429966.42744  22275148.9844   22275149.2994
 -14007883.31144 -10915228.15144  22300302.4834   22300303.1274
 96  4 24  2  8 30.0000000  0  7G23G 6G17G22G26G16G20
 -11525764.57644  -8981100.33944  22881182.5184   22881183.0704
 -24493574.67144 -19085891.47744  20255012.9284   20255012.3284
 -18594214.22544 -14488979.37744  21674329.8094   21674330.5364
   -510702.90844   -397949.78044  24440531.8404
  -3965056.15544  -3089651.79144  23228854.9914   23228854.0414
   3197798.31244   2491791.73744  22290247.0554   22290247.5944
 -13915930.80944 -10843576.85844  22317800.7524   22317801.3284
 96  4 24  2  9  0.0000000  0  7G23G 6G17G22G26G16G20
 -11617706.19044  -9052743.11144  22863686.0444   22863688.2724
 -24504286.74744 -19094238.54544  20252974.3734   20252973.7914
 -18641245.06844 -14525626.76644  21665380.3974   21665380.8594
   -582251.86244   -453702.18944  24426915.8774   24426916.8244
  -4034294.92644  -3143604.03744  23215679.1754   23215677.8044
   3277496.26644   2553894.03944  22305412.9594   22305412.6724
 -13823745.89344 -10771744.47344  22335343.2554   22335343.7984
 96  4 24  2  9 30.0000000  0  7G23G 6G17G22G26G16G20
 -11709369.00844  -9124168.61944  22846243.1054   22846244.9464
 -24514580.32944 -19102259.52144  20251015.6524   20251015.0244
 -18688039.88544 -14562090.23544  21656475.6714   21656475.9484
   -653407.80144   -509148.32444  24413376.0264
  -4103263.01244  -3197345.36644  23202555.2224   23202555.5914
   3357541.52744   2616266.96344  22320644.5454   22320644.8264
 -13731327.71544 -10699730.31044  22352929.5484   22352930.1754
 96  4 24  2 10  0.0000000  0  7G23G 6G17G22G26G16G20
 -11800766.60844  -9195387.48344  22828850.8334   22828851.6684
 -24524451.31644 -19109951.19744  20249137.3534   20249136.9564
 -18734617.58844 -14598384.52344  21647611.9204   21647612.5174
   -724166.59944                  24399912.1634
  -4171968.97744  -3250882.45144  23189480.3974   23189480.2124
   3437916.14044   2678896.53344  22335939.6444   22335940.3624
 -13638675.99344 -10627534.17744  22370559.9254   22370561.2704
 96  4 24  2 10 30.0000000  0  7G23G 6G17G22G26G16G20
 -11891951.13044  -9266440.32944  22811499.0344   22811499.4944
 -24533936.22644 -19117342.03444  20247332.2434   20247331.6784
 -18781042.47544 -14634559.73444  21638777.4654   21638778.2804
   -794564.90344                  24386514.6644
  -4240464.80644  -3304255.77944  23176446.1604   23176446.6904
   3518568.26044   2741742.33344  22351287.5824   22351288.1594
 -13545811.86544 -10555172.53744  22388231.5554   22388232.2404
 96  4 24  2 11  0.0000000  0  7G23G 6G17G22G26G16G20
 -11982867.49644  -9337284.20944  22794199.0544   22794199.2854
 -24542994.29044 -19124400.26444  20245608.6494   20245607.8124
 -18827268.12444 -14670579.70144  21629981.4624   21629981.8224
   -864531.51744                  24373202.2024
  -4308695.13844  -3357422.25444  23163462.6444   23163462.2114
   3599531.53444   2804830.59244  22366694.2644   22366694.7274
 -13452670.64744 -10482594.97144  22405956.0254   22405956.2404
 96  4 24  2 11 30.0000000  0  7G23G 6G17G22G26G16G20
 -12073503.90644  -9407909.95044  22776951.5094   22776951.9584
 -24551627.84644 -19131127.71144  20243965.6684   20243964.7974
 -18873276.87244 -14706430.65544  21621226.1064   21621226.4084
   -934057.13644   -727836.04644  24359970.1284
  -4376645.40444  -3410370.47744  23150532.2744   23150531.9134
   3680812.11844   2868166.10744  22382161.3554   22382161.7784
 -13359240.56444 -10409792.31344  22423735.6084   22423736.1474
 96  4 24  2 12  0.0000000  0  7G23G 6G17G22G26G16G20
 -12163862.14044  -9478318.92144  22759756.7024   22759757.8164
 -24559829.66744 -19137518.74044  20242404.9844   20242404.3434
 -18919055.29344 -14742102.13444  21612514.3584   21612514.9844
  -1003157.49144   -781680.44444  24346820.2994
  -4444298.09744  -3463086.82544  23137658.3854   23137657.6164
   3762415.38744   2931753.05644  22397689.9684   22397690.2734
 -13265511.11644 -10336756.39444  22441571.3124   22441571.5554
 96  4 24  2 12 30.0000000  0  7G23G 6G17G22G26G16G20
 -12253946.93044  -9548514.81244  22742613.8844   22742614.2164
 -24567607.99044 -19143579.76744  20240924.9054   20240924.0804
 -18964585.58744 -14777580.26744  21603849.9194   21603850.8894
  -1071839.29344   -835198.69944  24333750.0814   24333748.7934
  -4511639.10444  -3515560.29444  23124843.2764   23124842.7024
   3844348.91944   2995597.35844  22413281.2784   22413280.9674
 -13171474.89344 -10263481.42244  22459466.0054   22459466.9644
 96  4 24  2 13  0.0000000  0  7G23G 6G17G22G26G16G20
 -12343775.78744  -9618511.28244  22725519.2874   22725519.7964
 -24574989.10344 -19149331.28544  20239520.1584   20239519.4204
 -19009874.29144 -14812870.14444  21595231.8804   21595233.0034
  -1140126.32244   -888409.35744  24320755.6764   24320755.2624
  -4578681.27444  -3567800.91644  23112085.6784   23112084.5634
   3926610.96744   3059697.65444  22428935.4484   22428935.1324
 -13077164.36044 -10189992.70544  22477412.6334   22477413.0274
 96  4 24  2 13 30.0000000  0  7G23G 6G17G22G26G16G20
 -12433396.44244  -9688345.51844  22708465.6514   22708466.4864
 -24581997.72444 -19154792.54744  20238186.5734   20238185.6134
 -19054955.94144 -14847998.67844  21586653.4504   21586653.7794
  -1208073.45844                  24307824.3304
  -4645454.58144  -3619832.02344  23099379.1924   23099379.4834
   4009177.30644   3124035.04844  22444647.1964   22444647.1784
 -12982616.36444 -10116318.96244  22495404.6924   22495404.9314
 96  4 24  2 14  0.0000000  0  7G23G 6G17G22G26G16G20
 -12522788.49144  -9758001.61044  22691455.1324   22691455.4414
 -24588610.42044 -19159945.29744  20236928.2854   20236927.6504
 -19099829.25344 -14882964.87444  21578114.2984   21578114.4744
  -1275662.73144   -994022.06644  24294962.6544
  -4711935.56844  -3671635.34944  23086727.8734   23086728.3534
   4092068.12644   3188625.28544  22460420.3364   22460420.8854
 -12887821.77644 -10042453.05444  22513443.4944   22513444.2704
 96  4 24  2 14 30.0000000  0  7G23G 6G17G22G26G16G20
 -12611901.04844  -9827439.93444  22674497.8964   22674497.7224
 -24594777.74844 -19164751.00544  20235754.4594   20235753.8204
 -19144478.40144 -14917756.40444  21569617.8654   21569618.1404
  -1342852.30844  -1046377.58244  24282177.0944
  -4778096.24944  -3723189.08344  23074137.8334   23074138.2574
   4175317.02944   3253494.55444  22476262.0334   22476261.8874
 -12792764.18244  -9968382.21444  22531532.2314   22531532.6604
 96  4 24  2 15  0.0000000  0  7G23G 6G17G22G26G16G20
 -12700735.97144  -9896661.92544  22657592.6614   22657592.0514
 -24600513.45144 -19169220.38644  20234663.2324   20234662.1584
 -19188945.12544 -14952405.78444  21561156.1074   21561156.5074
  -1409665.25844  -1098439.58444  24269462.0154
  -4843961.58244  -3774512.69544  23061604.6734   23061604.2714
   4258886.17944   3318613.36944  22492165.4954   22492165.6594
 -12697492.97844  -9894144.91944  22549661.6194   22549661.9454
 96  4 24  2 15 30.0000000  0  7G23G 6G17G22G26G16G20
 -12789287.30044  -9965662.91944  22640741.6284   22640742.0654
 -24605828.18644 -19173361.73644  20233651.5684   20233651.0264
 -19233252.55744 -14986931.03544  21552724.5684   21552724.9974
  -1476114.87044                  24256818.4634
  -4909542.33444  -3825614.55344  23049124.6184   23049123.9164
   4342739.91144   3383953.93544  22508122.1434   22508122.6464
 -12602030.01944  -9819758.20044  22567827.3274   22567828.0194
 96  4 24  2 16  0.0000000  0  7G23G 6G17G22G26G16G20
 -12877512.34644 -10034409.67244  22623953.5224   22623954.0824
 -24610703.94344 -19177161.02544  20232723.9344   20232723.2114
 -19277373.20744 -15021310.74744  21544329.0474   21544329.6384
  -1542162.07844  -1201683.77144  24244250.8894   24244253.7854
  -4974814.70744  -3876476.09544  23036704.3114   23036703.5184
   4426900.56644   3449533.64244  22524137.0044   22524137.1694
 -12506367.55744  -9745216.03744  22586031.8364   22586032.5864
 96  4 24  2 16 30.0000000  0  7G23G 6G17G22G26G16G20
 -12965430.54044 -10102917.31744  22607222.9934   22607223.7294
 -24615162.78044 -19180635.44544  20231875.3224   20231874.7154
 -19321299.07944 -15055538.67844  21535970.0144   21535970.5004
  -1607817.23844  -1252843.64044  24231758.6994
  -5039790.13644  -3927106.26044  23024339.7854   23024339.8474
   4511348.32644   3515337.09044  22540206.9774   22540207.2034
 -12410523.68944  -9670532.51144  22604269.6514   22604271.2294
 96  4 24  2 17  0.0000000  0  7G23G 6G17G22G26G16G20
 -13053039.39644 -10171183.92244  22590551.0604   22590552.0494
 -24619211.88144 -19183790.58844  20231105.0654   20231104.3604
 -19365009.44744 -15089598.68644  21527652.5014   21527652.6484
  -1673068.00744  -1303688.39344  24219341.2994
  -5104450.72644  -3977491.11144  23012035.1134   23012034.2114
   4596092.79144   3581371.72944  22556333.9084   22556334.0574
 -12314494.56444  -9595704.64244  22622543.5984   22622545.5534
 96  4 24  2 17 30.0000000  0  7G23G 6G17G22G26G16G20
 -13140325.78644 -10239199.24744  22573940.6384   22573942.1384
 -24622813.92444 -19186597.37244  20230419.3714   20230418.6354
 -19408458.44244 -15123455.02544  21519384.3624   21519384.7024
  -1737869.08444  -1354182.72744  24207009.3794
  -5168758.93144  -4027601.36144  22999798.0614   22999797.3144
   4681177.64244   3647671.60544  22572525.3204   22572525.2324
 -12218233.46744  -9520696.01544  22640861.6774   22640863.0374
 96  4 24  2 18  0.0000000  0  7G23G 6G17G22G26G16G20
 -13227338.68544 -10307001.46244  22557382.4684   22557383.8984
 -24626001.12244 -19189080.90344  20229813.0514   20229812.0954
 -19451678.61144 -15157133.05644  21511159.5544   21511160.0264
  -1802258.27844  -1404356.02844  24194756.3854   24194754.7084
  -5232749.02144  -4077463.74444  22987621.1964   22987620.4664
   4766565.91444   3714207.92444  22588773.7154   22588774.0674
 -12121785.61944  -9445541.85844  22659215.0964   22659215.7254
 96  4 24  2 18 30.0000000  0  7G23G 6G17G22G26G16G20
 -13314100.03844 -10374607.67344  22540872.7784   22540873.2174
 -24628786.19944 -19191251.09344  20229282.9664   20229282.3634
 -19494708.47044 -15190662.80044  21502971.3304   21502971.6194
  -1866263.43744  -1454230.13244  24182575.4884   24182578.3094
  -5296440.51444  -4127093.45844  22975500.8144   22975500.5764
   4852220.68244   3780951.88644  22605072.8414   22605073.8364
 -12025161.67544  -9370250.48044  22677602.4384   22677603.0414
 96  4 24  2 19  0.0000000  0  7G23G 6G17G22G26G16G20
 -13400630.91344 -10442034.29144  22524406.5184   22524407.3754
 -24631184.90644 -19193120.21744  20228826.5944   20228825.8194
 -19537588.17044 -15224075.53644  21494811.5614   21494811.8894
  -1929900.32344  -1503817.28644  24170467.0564   24170465.6224
  -5359864.02844  -4176514.33544  22963431.4904   22963431.3794
   4938109.55344   3847878.26044  22621416.9934   22621417.4234
 -11928374.27444  -9294831.72444  22696019.9604   22696020.5334
 96  4 24  2 19 30.0000000  0  7G23G 6G17G22G26G16G20
 -13486877.86944 -10509239.67444  22507994.0964   22507995.0794
 -24633146.59544 -19194648.80544  20228453.2244   20228452.6564
 -19580265.37044 -15257330.48044  21486690.1544   21486690.6814
  -1993114.71544  -1553075.46144  24158437.2964   24158435.6764
  -5422968.50944  -4225686.64744  22951422.8214   22951421.9424
   5024274.00444   3915019.37744  22637813.8184   22637814.3754
 -11831363.28944  -9219238.76044  22714481.1774   22714481.6304
 96  4 24  2 20  0.0000000  0  7G23G 6G17G22G26G16G20
 -13572825.19744 -10576211.58244  22491639.1624   22491639.5784
 -24634684.98944 -19195847.55144  20228160.4294   20228159.8224
 -19622749.12344 -15290434.68144  21478605.6274   21478606.1964
  -2055911.27944  -1602007.17344  24146486.4914   24146487.2764
  -5485754.50444  -4274610.77744  22939474.6954   22939473.8344
   5110696.95944   3982361.93444  22654259.9364   22654260.1124
 -11734132.83244  -9143474.77244  22732983.4034   22732984.3634
 96  4 24  2 20 30.0000000  0  7G23G 6G17G22G26G16G20
 -13658461.60544 -10642941.21644  22475343.2074   22475343.8444
 -24635798.55944 -19196715.26844  20227948.5044   20227947.9104
 -19665033.77044 -15323383.73644  21470559.3034   21470559.8014
  -2118267.12244  -1650595.44944  24134622.6434   24134622.6584
  -5548208.10144  -4323275.89144  22927590.2934   22927589.8244
   5197391.42444   4049916.06244  22670757.1044   22670757.5124
 -11636651.65544  -9067515.43044  22751532.5704   22751533.2564
 96  4 24  2 21  0.0000000  0  7G23G 6G17G22G26G16G20
 -13743798.47844 -10709437.44944  22459104.0514   22459103.9934
 -24636514.85044 -19197273.41844  20227812.1264   20227811.3154
 -19707118.59544 -15356177.08544  21462550.6774   21462551.2064
  -2180192.63244  -1698849.11044  24122837.5604   24122838.6384
  -5610335.41344  -4371686.75444  22915768.0024   22915767.8624
   5284345.51644   4117672.48944  22687304.0024   22687304.4024
 -11538953.55244  -8991387.04244  22770124.3354   22770125.3994
 96  4 24  2 21 30.0000000  0  7G23G 6G17G22G26G16G20
 -13828817.50544 -10775686.01144  22442925.2524   22442925.7494
 -24636803.94244 -19197498.68444  20227757.3274   20227756.7554
 -19748984.11944 -15388799.55144  21454583.9174   21454584.4464
  -2241680.15344  -1746761.40444  24111136.6904   24111138.2524
  -5672111.52344  -4419823.93944  22904012.2714   22904011.8964
   5371581.26444   4185648.40044  22703903.9704   22703903.7024
 -11441043.33944  -8915093.37744  22788756.1104   22788756.9914
 96  4 24  2 22  0.0000000  0  7G23G 6G17G22G26G16G20
 -13913533.30244 -10841698.28644  22426804.3584   22426804.9344
 -24636657.44844 -19197384.53544  20227784.9544   20227784.2544
 -19790649.98044 -15421266.44144  21446655.2294   21446655.6264
  -2302733.51844  -1794335.41244  24099519.1044   24099519.7814
  -5733540.83644  -4467690.91644  22892323.4044   22892322.9284
   5459087.39044   4253834.99044  22720556.0334   22720556.8904
 -11342944.74644  -8838652.92544  22807423.6284   22807424.7114
 96  4 24  2 22 30.0000000  0  7G23G 6G17G22G26G16G20
 -13997972.30944 -10907494.88344  22410735.8184   22410736.7324
 -24636078.09144 -19196933.08744  20227895.5524   20227894.8374
 -19832129.45744 -15453588.09444  21438761.9994   21438762.0664
  -2363372.07744  -1841586.20244  24087980.0954   24087979.1264
  -5794632.28644  -4515294.61544  22880697.9134   22880697.0144
   5546855.12244   4322225.42344  22737257.4784   22737257.8954
 -11244690.16644  -8762090.92344  22826120.8234   22826120.9644
 96  4 24  2 23  0.0000000  0  7G23G 6G17G22G26G16G20
 -14082131.27144 -10973073.25744  22394720.4314   22394721.3954
 -24635043.62744 -19196127.00944  20228092.1194   20228091.5564
 -19873415.35144 -15485758.90044  21430905.6654   21430905.5944
  -2423594.86744  -1888513.06244  24076519.7274   24076520.1704
  -5855375.86344  -4562627.22444  22869138.0354   22869138.5094
   5634888.22244   4390822.64644  22754009.8474   22754009.9634
 -11146305.41844  -8685427.48744  22844843.1134   22844842.6844
 96  4 24  2 23 30.0000000  0  7G23G 6G17G22G26G16G20
 -14166003.84144 -11038428.46344  22378759.9324   22378761.5274
 -24633532.79644 -19194949.73844  20228379.6854   20228379.0904
 -19914512.43944 -15517782.58844  21423085.1614   21423085.1874
  -2483390.93144  -1935107.37644  24065141.1754   24065140.7044
  -5915763.30244  -4609682.34844  22857646.7874   22857646.9234
   5723196.29044   4459634.11244  22770814.5024   22770814.6584
 -11047770.33944  -8608646.90644  22863593.8054   22863594.4704
 96  4 24  2 24  0.0000000  0  7G23G 6G17G22G26G16G20
 -14249573.09344 -11103547.32144  22362857.6094   22362858.9134
 -24631556.71844 -19193409.93644  20228755.6914   20228755.1164
 -19955416.07844 -15549655.53744  21415301.9004   21415302.0764
  -2542744.34044  -1981356.76844  24053845.2234   24053847.4724
  -5975774.34144  -4656444.16444  22846226.9474   22846225.9714
   5811773.32144   4528655.16044  22787669.9004   22787670.3264
 -10949071.55144  -8531738.76744  22882375.6124   22882376.1084
 96  4 24  2 24 30.0000000  0  7G23G 6G17G22G26G16G20
 -14332846.48144 -11168435.63544  22347011.5124   22347011.8144
 -24629140.72044 -19191527.34044  20229215.4264   20229214.6434
 -19996130.50844 -15581381.04744  21407554.0674   21407554.1094
  -2601675.90844  -2027277.46144  24042629.4604   24042632.6174
  -6035425.80344  -4702925.78044  22834876.2054   22834876.4094
   5900608.62144   4597877.46244  22804574.5864   22804575.5204
 -10850213.26344  -8454706.33244  22901187.7314   22901188.7624
 96  4 24  2 25  0.0000000  0  7G23G 6G17G22G26G16G20
 -14415809.88644 -11233082.42244  22331224.3944   22331224.4904
 -24626291.13944 -19189306.88944  20229757.8164   20229757.1604
 -20036656.85444 -15612959.99944  21399841.9384   21399842.0194
  -2660180.95644  -2072865.77644  24031498.7984   24031500.0544
  -6094716.39144  -4749126.21444  22823592.9144   22823591.8074
   5989693.37244   4667294.14244  22821526.5714   22821527.0204
 -10751181.93644  -8377539.07944  22920033.0174   22920033.2444
 96  4 24  2 25 30.0000000  0  7G23G 6G17G22G26G16G20
 -14498444.03644 -11297472.63944  22315499.8284   22315499.8514
 -24622996.44444 -19186739.59144  20230384.8004   20230384.1014
 -20076973.84844 -15644375.82444  21392169.3624   21392169.8954
  -2718240.21144  -2118106.76544  24020449.1584   24020450.5354
  -6153641.88944  -4795042.16044  22812379.9644   22812379.5414
   6079027.02444   4736904.77344  22838526.5824   22838526.1254
 -10651951.65244  -8300216.77544  22938915.8664   22938916.3244
 96  4 24  2 26  0.0000000  0  7G23G 6G17G22G26G16G20
 -14580758.53244 -11361613.77644  22299835.4624   22299835.7624
 -24619274.51944 -19183839.39244  20231092.8854   20231092.3354
 -20117078.39544 -15675626.10444  21384537.9014   21384538.2554
  -2775860.42544  -2163005.63344  24009484.9114   24009484.6254
  -6212214.36644  -4840683.01744  22801233.7634   22801233.2814
   6168590.96144   4806694.86144  22855570.6864   22855571.1274
 -10552547.39944  -8222758.91944  22957831.3794   22957832.0484
 96  4 24  2 26 30.0000000  0  7G23G 6G17G22G26G16G20
 -14662759.27644 -11425510.42444  22284231.1994   22284232.0944
 -24615122.25144 -19180603.85644  20231883.2094   20231882.6574
 -20156969.98844 -15706710.45244  21376947.0574   21376947.5284
  -2833040.01044  -2207561.09444  23998602.9414   23998605.1644
  -6270444.26344  -4886056.92944  22790153.1354   22790153.4044
   6258392.40644   4876670.00544  22872658.3634   22872658.8114
 -10452971.35344  -8145167.19644  22976780.2184   22976780.9474
 96  4 24  2 27  0.0000000  0  7G23G 6G17G22G26G16G20
 -14744430.58444 -11489150.37244  22268689.8854   22268690.1024
 -24610527.69044 -19177023.67844  20232757.3094   20232756.7444
 -20196651.92144 -15737631.42944  21369395.6804   21369395.9764
  -2889756.24544  -2251755.55844  23987811.4154   23987810.5564
  -6328322.07444  -4931156.49844  22779138.7224   22779139.2104
   6348423.02344   4946823.72844  22889790.7824   22889791.1794
 -10353235.47944  -8067450.94244  22995758.5754   22995760.5534
 96  4 24  2 27 30.0000000  0  7G23G 6G17G22G26G16G20
 -14825790.59744 -11552547.75744  22253208.3644   22253208.4604
 -24605494.54644 -19173101.74644  20233715.4334   20233714.7514
 -20236140.70244 -15768401.89844  21361881.1954   21361881.8194
  -2946019.89744  -2295597.34344  23977104.7054   23977103.5904
  -6385853.81744  -4975986.40544  22768191.2254   22768191.4964
   6438685.00044   5017157.73244  22906967.1664   22906967.1744
 -10253369.88544  -7989633.60444  23014762.4484   23014764.1244
 96  4 24  2 28  0.0000000  0  7G23G 6G17G22G26G16G20
 -14906823.51944 -11615690.26144  22237787.4764   22237787.9534
 -24600019.18044 -19168835.22544  20234757.2274   20234756.4214
 -20275435.26344 -15799021.02544  21354403.5124   21354403.8774
  -3001818.29144  -2339076.59044  23966485.5484   23966486.0194
  -6443014.85644  -5020527.45144  22757313.9904   22757313.7954
   6529201.90744   5087690.38344  22924191.5874   22924191.4604
 -10153363.34644  -7911706.44144  23033793.3654   23033794.1904
 96  4 24  2 28 30.0000000  0  7G23G 6G17G22G26G16G20
 -14987533.19544 -11678580.87744  22222428.3034   22222429.3124
 -24594097.87444 -19164221.22044  20235883.9294   20235883.2954
 -20314547.76844 -15829498.29144  21346960.8534   21346961.2684
  -3057164.22644  -2382203.28544  23955953.9434   23955956.8704
  -6499804.91244  -5064779.41344  22746506.9524   22746506.5434
   6619963.50244   5158413.70444  22941463.3584   22941464.2064
 -10053222.91544  -7833674.94144  23052849.6884   23052850.7474
 96  4 24  2 29  0.0000000  0  7G23G 6G17G22G26G16G20
 -15067924.73344 -11741223.59944  22207130.1984   22207130.9384
 -24587723.70244 -19159254.32944  20237096.8454   20237096.2454
 -20353475.59244 -15859831.65044  21339553.1554   21339553.6344
  -3112071.15044  -2424987.87744  23945505.0764   23945506.3854
  -6556220.38044  -5108739.48744  22735772.0334   22735771.6004
   6710970.76944   5229328.45444  22958781.4144   22958782.3704
  -9952957.83944  -7755546.31544  23071929.2084   23071930.2374
 96  4 24  2 29 30.0000000  0  7G23G 6G17G22G26G16G20
 -15148004.84644 -11803623.65144  22191891.3304   22191892.5914
 -24580893.28044 -19153931.92544  20238396.7614   20238396.0594
 -20392202.72144 -15890008.62444  21332183.4664   21332183.9304
  -3166555.49244  -2467443.20944  23935137.7614   23935137.9124
  -6612254.96144  -5152402.77544  22725109.1584   22725108.7964
   6802229.12544   5300438.85944  22976148.1804   22976148.1824
  -9852555.54544  -7677310.75544  23091035.5774   23091036.6414
 96  4 24  2 30  0.0000000  0  7G23G 6G17G22G26G16G20
 -15227770.39944 -11865778.59444  22176712.6754   22176713.5214
 -24573610.19944 -19148256.79744  20239782.4484   20239782.0404
 -20430722.93544 -15920024.36644  21324853.2624   21324853.7584
  -3220625.63044  -2509575.76544  23924848.8204   23924848.3274
  -6667902.10844  -5195764.15744  22714519.6364   22714519.4654
   6893708.36244   5371721.37944  22993556.0074   22993556.4504
  -9752013.46244  -7598966.29444  23110167.9314   23110169.3154
 96  4 24  2 30 30.0000000  0  7G23G 6G17G22G26G16G20
 -15307232.41844 -11927697.01744  22161592.0444   22161591.8904
 -24565862.92444 -19142219.96244  20241256.7474   20241256.2044
 -20469033.79744 -15949876.97444  21317562.8054   21317563.2044
  -3274288.31044  -2551390.80844  23914637.3144   23914638.2624
  -6723154.20344  -5238817.70344  22704005.5004   22704004.8114
   6985401.55244   5443170.61544  23011004.5244   23011005.0174
  -9651345.02844  -7520523.36144  23129324.3804   23129325.7824
 96  4 24  2 31  0.0000000  0  7G23G 6G17G22G26G16G20
 -15386380.68944 -11989370.97444  22146530.3294   22146530.2364
 -24557645.50944 -19135816.78044  20242820.7784   20242820.1904
 -20507128.98144 -15979561.52444  21310313.7144   21310314.2254
  -3327521.74544  -2592871.39344  23904507.1424   23904507.4994
  -6777996.07544  -5281551.60344  22693569.2654   22693568.6614
   7077324.29544   5514798.71744  23028496.6634   23028496.6554
  -9550537.02344  -7441971.67344  23148508.5954   23148509.6444
 96  4 24  2 31 30.0000000  0  7G23G 6G17G22G26G16G20
 -15465189.55344 -12050780.44944  22131533.5734   22131533.6154
 -24548948.36144 -19129039.78244  20244475.3554   20244474.8604
 -20544996.91144 -16009068.99044  21303107.7694   21303108.1264
  -3380292.21544  -2633991.21044  23894464.9334   23894464.6814
  -6832410.34944  -5323952.30744  22683214.5214   22683214.7314
   7169483.18544   5586610.83044  23046033.5264   23046034.0024
  -9449571.57744  -7363297.29144  23167721.2104   23167722.8384
 96  4 24  2 32  0.0000000  0  7G23G 6G17G22G26G16G20
 -15543649.45144 -12111917.99944  22116603.1924   22116603.3744
 -24539777.34944 -19121893.53644  20246220.8034   20246220.1934
 -20582643.32044 -16038403.84344  21295943.8194   21295944.0554
  -3432573.86244  -2674730.12144  23884515.3094   23884514.6984
  -6886399.43344  -5366021.69344  22672940.8824   22672939.8004
   7261882.13144   5658610.01144  23063616.5704   23063616.9544
  -9348454.37844  -7284504.67744  23186962.3214   23186963.3924
 96  4 24  2 32 30.0000000  0  7G23G 6G17G22G26G16G20
 -15621775.01244 -12172795.03044  22101736.5054   22101736.6824
 -24530162.87644 -19114401.73844  20248050.2884   20248049.7214
 -20620094.01844 -16067586.19144  21288817.2984   21288817.3714
  -3484367.08444  -2715088.43544  23874659.1584   23874660.4464
  -6940003.18644  -5407790.83644  22662740.4224   22662739.4994
   7354513.67244   5730790.42944  23081244.0224   23081244.1084
  -9247207.89244  -7205611.31844  23206229.5934   23206231.2744
 96  4 24  2 33  0.0000000  0  7G23G 6G17G22G26G16G20
 -15699551.19044 -12233399.81244  22086935.7014   22086935.5534
 -24520109.69744 -19106568.09444  20249963.2734   20249962.5664
 -20657352.36344 -16096618.65544  21281727.4314   21281727.6534
  -3535668.92044  -2755063.81344  23864898.1554   23864898.7434
  -6993231.28644  -5449267.24544  22652611.9564   22652610.5814
   7447364.83544   5803141.99044  23098912.6234   23098913.0414
  -9145827.47344  -7126613.59044  23225521.3154   23225521.8074
 96  4 24  2 33 30.0000000  0  7G23G 6G17G22G26G16G20
 -15776976.66444 -12293731.32044  22072201.9084   22072201.8304
 -24509611.41544 -19098387.61344  20251960.9224   20251960.3444
 -20694421.78144 -16125503.90144  21274672.9494   21274672.9064
  -3586492.32544  -2794666.44844  23855227.2794   23855226.3484
  -7046084.76744  -5490451.73844  22642553.7154   22642553.3924
   7540409.73944   5875644.49644  23116618.3554   23116618.9414
  -9044331.21344  -7047525.60244  23244835.1404   23244836.1904
 96  4 24  2 34  0.0000000  0  7G23G 6G17G22G26G16G20
 -15854049.76744 -12353788.25444  22057535.7584   22057535.7454
 -24498658.47744 -19089852.85444  20254045.2904   20254044.5454
 -20731304.00744 -16154243.27744  21267654.7394   21267654.9544
  -3636841.95044  -2833899.90344  23845646.3104   23845644.6874
  -7098554.70344  -5531337.37244  22632568.8304   22632567.9694
   7633637.52444   5948289.51444  23134358.9154   23134359.3634
  -8942737.33344  -6968361.54944  23264168.9104   23264168.9964
 96  4 24  2 34 30.0000000  0  8G23G 6G17G22G26G16G20G21
 -15930766.04344 -12413567.14244  22042936.8984   22042937.3744
 -24487225.97944 -19080944.41444  20256220.9124   20256220.0614
 -20767995.32744 -16182833.90244  21260672.4974   21260672.6954
  -3686727.48344  -2872771.73044  23836153.0654   23836149.0714
  -7150624.72644  -5571911.37844  22622660.2874   22622659.5474
   7727053.03744   6021080.82344  23152135.7774   23152136.0084
  -8841041.51944  -6889118.05444  23283521.1764   23283521.7714
        -0.56954                  25545690.4214
 96  4 24  2 35  0.0000000  0  7G23G 6G17G22G26G16G20
 -16007156.63744 -12473092.25744  22028399.9794   22028400.4374
 -24475323.15944 -19071669.48744  20258486.1404   20258485.1804
 -20804525.14144 -16211298.67444  21253721.0394   21253721.2944
  -3736184.90044  -2911309.94644  23826741.2264   23826740.2774
  -7202296.53244  -5612175.09844  22612827.4694   22612826.6404
   7820623.54544   6093992.90044  23169941.8574   23169941.4044
  -8739273.13644  -6809818.02744  23302886.7254   23302886.8464
 96  4 24  2 35 30.0000000  0  7G23G 6G17G22G26G16G20
 -16083206.65944 -12532351.98244  22013928.3804   22013928.9634
 -24462942.56744 -19062022.26744  20260842.0304   20260841.2044
 -20840874.64644 -16239622.94244  21246803.7754   21246804.0414
  -3785189.25444  -2949495.11744  23817416.1954   23817414.6734
  -7253553.10044  -5652115.24344  22603074.1324   22603073.6464
   7914372.83644   6167044.29344  23187782.5024   23187782.9144
  -8637425.44244  -6730456.17544  23322267.4974   23322267.7064
 96  4 24  2 36  0.0000000  0  7G23G 6G17G22G26G16G20
 -16158887.71244 -12591324.20744  21999526.7504   21999526.3354
 -24450060.58944 -19051984.36644  20263293.3164   20263292.5944
 -20877007.07144 -16267778.06444  21239927.9594   21239927.7994
  -3833694.97844  -2987291.76544  23808186.5984   23808185.7764
  -7304366.22144  -5691709.85844  22593404.1514   22593402.8594
   8008349.12844   6240272.58244  23205664.6654   23205664.4404
  -8535455.36744  -6650998.97944  23341670.9324   23341671.9654
 96  4 24  2 36 30.0000000  0  8G23G 6G17G22G26G16G20G21
 -16234198.52744 -12650007.93544  21985196.1094   21985195.7564
 -24436680.35744 -19041558.20744  20265839.5094   20265838.7674
 -20912910.84744 -16295755.01444  21233095.8764   21233095.7264
  -3881695.61944  -3024694.84444  23799052.0904   23799051.5914
  -7354725.57244  -5730950.87844  22583821.0724   22583820.4644
   8102566.38644   6313688.63644  23223593.6184   23223593.2354
  -8433340.77144  -6571429.18744  23361103.0314   23361104.4764
        -0.67954         0.40254  25469551.6594   25469553.6854
 96  4 24  2 37  0.0000000  0  8G23G 6G17G22G26G16G20G21
 -16309163.63044 -12708422.27344  21970930.6024   21970930.5454
 -24422840.03144 -19030773.53744  20268473.2364   20268472.4564
 -20948604.12444 -16323567.94244  21226303.7154   21226303.5164
  -3929210.08844  -3061719.09344  23790010.7974   23790008.3374
  -7404657.80244  -5769859.08844  22574319.4594   22574318.2104
   8196992.41744   6387267.34744  23241562.4594   23241563.5894
  -8331106.03944  -6491765.75944  23380558.4514   23380558.6574
    -99697.73144    -77685.46644  25450579.8454   25450579.2474
 96  4 24  2 37 30.0000000  0  8G23G 6G17G22G26G16G20G21
 -16383768.03244 -12766555.54944  21956733.5154   21956734.0444
 -24408532.93944 -19019625.14944  20271196.0214   20271195.2994
 -20984066.31444 -16351200.80644  21219555.6034   21219555.2984
  -3976218.90644  -3098349.32544  23781063.9114   23781064.4884
  -7454152.69544  -5808426.50844  22564900.8104   22564900.2804
   8291643.69644   6461021.57844  23259574.1184   23259574.0584
  -8228743.86444  -6412003.03144  23400036.5164   23400037.6724
   -199276.13244   -155278.83544  25431629.8594   25431630.8324
 96  4 24  2 38  0.0000000  0  8G23G 6G17G22G26G16G20G21
 -16458050.89044 -12824438.26444  21942597.5584   21942598.5654
 -24393775.81344 -19008126.09144  20274003.9954   20274003.2124
 -21019324.47744 -16378674.68244  21212846.0514   21212846.3064
  -4022763.17544  -3134617.58944  23772206.0654   23772206.8374
  -7503216.43044  -5846657.97144  22555563.9444   22555563.1644
   8386490.05144   6534927.83444  23277623.2704   23277622.7284
  -8126284.44844  -6332164.53044  23419534.0484   23419534.5984
   -298798.90744   -232828.92844  25412690.8994   25412690.6464
 96  4 24  2 38 30.0000000  0  8G23G 6G17G22G26G16G20G21
 -16532018.34044 -12882075.20844  21928521.7664   21928522.5214
 -24378581.40344 -18996286.29444  20276895.4494   20276894.8334
 -21054392.67644 -16406000.53644  21206172.6724   21206173.0764
  -4068859.61744  -3170536.84444  23763433.4494   23763436.6624
  -7551845.38744  -5884550.65644  22546309.8994   22546309.2224
   8481521.47844   6608978.31544  23295706.8724   23295706.4774
  -8023744.68844  -6252263.43844  23439046.8464   23439047.3044
   -398295.10444   -310358.31944  25393756.8724   25393756.2814
 96  4 24  2 39  0.0000000  0  8G23G 6G17G22G26G16G20G21
 -16605681.68044 -12939475.18744  21914503.7374   21914504.4164
 -24362955.71244 -18984110.43044  20279868.7664   20279867.8504
 -21089297.94144 -16433199.43144  21199530.2884   21199530.4164
  -4114516.08044  -3206113.30844  23754745.8394   23754745.9124
  -7600059.25944  -5922119.88444  22537135.2504   22537135.0484
   8576714.93544   6683155.01844  23313821.5974   23313822.1064
  -7921158.01544  -6172325.76344  23458568.2504   23458569.1614
   -497792.16344   -387888.32644  25374823.3664
 96  4 24  2 39 30.0000000  0  8G23G 6G17G22G26G16G20G21
 -16679028.67944 -12996628.66244  21900546.8864   21900547.4304
 -24346881.55044 -18971585.10744  20282927.5074   20282926.8684
 -21124035.05844 -16460267.30344  21192920.0724   21192920.2784
  -4159720.54344  -3241337.54844  23746143.6234   23746144.7254
  -7647832.37044  -5959345.67244  22528044.2144   22528044.0204
   8672084.55244   6757469.00544  23331969.5894   23331970.5624
  -7818525.47044  -6092352.36444  23478097.4234   23478098.7794
   -597283.20644   -465413.79644  25355890.6884
 96  4 24  2 40  0.0000000  0  8G23G 6G17G22G26G16G20G21
 -16752057.46044 -13053534.18144  21886650.4914   21886650.3474
 -24330346.31044 -18958700.50544  20286074.3244   20286073.3594
 -21158602.80644 -16487203.19744  21186342.1604   21186341.8054
  -4204474.03944  -3276210.39344  23737627.1044   23737628.2854
  -7695158.72944  -5996223.32544  22519038.2024   22519037.0324
   8767625.57944   6831916.54344  23350149.5854   23350151.4194
  -7715842.01444  -6012339.29844  23497639.4984   23497641.3334
   -696731.24644                  25336962.1814
 96  4 24  2 40 30.0000000  0  8G23G 6G17G22G26G16G20G21
 -16824745.86144 -13110174.46444  21872818.0744   21872818.3524
 -24313344.28344 -18945452.17444  20289309.7234   20289309.0084
 -21193004.84744 -16514009.96544  21179795.7794   21179795.8004
  -4248750.16644  -3310711.25944  23729202.3894   23729204.6644
  -7742054.58544  -6032765.52744  22510114.7484   22510113.9084
   8863329.85244   6906491.31944  23368361.6924   23368360.9784
  -7613107.83044  -5932286.70044  23517188.5384   23517187.7434
   -796091.01644                  25318052.7834
 96  4 24  2 41  0.0000000  0  8G23G 6G17G22G26G16G20G21
 -16897084.20544 -13166541.98044  21859052.5654   21859052.7314
 -24295859.73644 -18931827.85044  20292636.8414   20292636.2014
 -21227234.00044 -16540682.01944  21173282.1744   21173282.2794
  -4292540.99844  -3344833.96444  23720868.8904   23720868.5684
  -7788525.78544  -6068976.83244  22501271.6654   22501270.7834
   8959188.26444   6981186.17544  23386602.2384   23386602.8504
  -7510325.69344  -5852196.72544  23536747.6784   23536747.9074
   -895347.52644                  25299162.9694
 96  4 24  2 41 30.0000000  0  8G23G 6G17G22G26G16G20G21
 -16969045.65944 -13222615.81044  21845359.2004   21845359.4164
 -24277872.49044 -18917811.81844  20296059.7264   20296058.8824
 -21261248.05644 -16567186.46444  21166809.2904   21166809.6554
  -4335836.44244  -3378570.64944  23712630.1204   23712629.6974
  -7834539.55744  -6104831.68744  22492514.6474   22492514.4334
   9055216.14544   7056013.07844  23404876.7484   23404877.0004
  -7407459.23244  -5772041.03544  23556321.8214   23556322.8574
   -994477.10144   -774915.09544  25280302.4154
 96  4 24  2 42  0.0000000  0  8G23G 6G17G22G26G16G20G21
 -17040621.78344 -13278389.38744  21831738.4974   21831738.4844
 -24259390.92544 -18903410.59844  20299576.6094   20299576.0004
 -21295061.83344 -16593534.84844  21160374.8484   21160375.0874
  -4378635.84644  -3411920.81544  23704486.7044   23704487.3504
  -7880115.13544  -6140345.09544  22483842.2764   22483842.3124
   9151392.16644   7130955.42944  23423178.7204   23423178.5644
  -7304511.34144  -5691821.91444  23575912.5064   23575912.8354
  -1093485.31344   -852064.30144  25261465.6304   25261468.8464
 96  4 24  2 42 30.0000000  0  8G23G 6G17G22G26G16G20G21
 -17111798.96444 -13333852.10244  21818193.7594   21818193.4494
 -24240435.25144 -18888639.94444  20303183.8554   20303182.9324
 -21328672.74344 -16619725.15844  21153978.8714   21153979.1844
  -4420937.75444  -3444883.34844  23696437.4474   23696434.2864
  -7925256.63444  -6175520.26244  22475252.3214   22475251.5624
   9247715.78544   7206012.79444  23441508.7794   23441508.7914
  -7201486.58944  -5611542.89044  23595516.7514   23595517.2724
  -1192390.78644   -929133.40844  25242646.9274   25242647.9544
 96  4 24  2 43  0.0000000  0  8G23G 6G17G22G26G16G20G21
 -17182575.91844 -13389002.94744  21804725.8174   21804725.5924
 -24221000.34944 -18873495.86944  20306882.0184   20306881.3634
 -21362058.79144 -16645740.24744  21147625.4524   21147625.6414
  -4462753.09044  -3477466.76544  23688479.2674   23688476.7734
  -7969934.57244  -6210334.21644  22466750.4504   22466749.5924
   9344203.88844   7281198.33044  23459869.4934   23459869.7984
  -7098369.21044  -5531191.69744  23615139.4784   23615141.0584
  -1291209.14744  -1006134.61744  25223842.1934   25223841.9344
 96  4 24  2 43 30.0000000  0  8G23G 6G17G22G26G16G20G21
 -17252985.87644 -13443867.82144  21791326.8044   21791326.7074
 -24201131.02944 -18858013.28444  20310663.1224   20310662.2104
 -21395254.49444 -16671607.01944  21141309.0594   21141309.1844
  -4504116.03244  -3509697.63744  23680607.9514   23680605.3254
  -8014186.45644  -6244816.17644  22458330.0764   22458329.6204
   9440821.71144   7356484.94144  23478254.8194   23478255.3714
  -6995193.31144  -5450794.88944  23634773.8524   23634773.7044
  -1389979.48644  -1083098.37744  25205046.7314   25205050.3544
 96  4 24  2 44  0.0000000  0  8G23G 6G17G22G26G16G20G21
 -17323029.38544 -13498447.15444  21777997.8614   21777997.9424
 -24180833.92044 -18842197.34944  20314525.4884   20314524.8444
 -21428268.64444 -16697332.32044  21135026.4774   21135026.3924
  -4545006.59444  -3541560.38944  23672826.8104   23672828.0004
  -8058012.83244  -6278966.57844  22449989.2254   22449988.0964
   9537582.78544   7431883.16744  23496668.0594   23496667.9714
  -6891972.75844  -5370363.29844  23654415.5194   23654415.4014
  -1488692.00044  -1160017.12444  25186262.6074   25186263.8094
 96  4 24  2 44 30.0000000  0  8G23G 6G17G22G26G16G20G21
 -17392715.83544 -13552748.26044  21764737.1234   21764736.9464
 -24160094.45444 -18826036.72244  20318471.8764   20318471.0224
 -21461076.73244 -16722897.05344  21128783.5224   21128783.2594
  -4585420.27244  -3573051.51244  23665137.0384   23665136.3384
  -8101393.00844  -6312769.29944  22441734.6644   22441734.2204
   9634508.95144   7507410.03344  23515112.3654   23515112.7944
  -6788706.34644  -5289895.95844  23674066.4774   23674066.4534
  -1587334.03644  -1236880.90344  25167491.8634   25167493.4184
 96  4 24  2 45  0.0000000  0  8G23G 6G17G22G26G16G20G21
 -17462027.44644 -13606757.29244  21751547.3214   21751547.4494
 -24138854.25544 -18809485.91544  20322513.8414   20322512.9904
 -21493664.02144 -16748289.73344  21122582.4544   21122582.2274
  -4625320.98744  -3604142.93744  23657543.7604   23657544.1914
  -8144288.51844  -6346194.34744  22433571.6594   22433570.7424
   9731625.52644   7583085.29244  23533592.4214   23533592.7394
  -6685366.38444  -5209371.31644  23693731.4474   23693732.0074
  -1685874.57944  -1313665.62244  25148739.6574   25148740.1484
 96  4 24  2 45 30.0000000  0  7G23G 6G17G22G26G16G20
 -17530968.83344 -13660477.82844  21738427.6374   21738427.8634
 -24117119.08344 -18792549.41144  20326649.8424   20326649.1364
 -21526054.05744 -16773528.71144  21116418.9364   21116418.4494
  -4664703.83144  -3634830.84944  23650049.3874   23650047.9654
  -8186707.97944  -6379248.45044  22425499.7104   22425498.7614
   9828919.20644   7658898.54344  23552108.1524   23552109.2864
  -6581981.45244  -5128811.63244  23713405.2104   23713405.8914
 96  4 24  2 46  0.0000000  0  8G23G 6G17G22G26G16G20G21
 -17599543.03444 -13713912.24744  21725378.4404   21725378.8184
 -24094870.44044 -18775212.80244  20330883.8214   20330883.1064
 -21558257.69244 -16798622.44244  21110290.4824   21110290.1294
  -4703555.36944  -3665104.74744  23642656.0284   23642656.4414
  -8228634.27744  -6411918.26844  22417521.2044   22417520.7024
   9926391.01944   7734850.60144  23570656.4064   23570656.3754
  -6478557.50944  -5048221.55144  23733085.7114   23733086.9144
        -1.16554                  25111293.9374
 96  4 24  2 46 30.0000000  0  7G23G 6G17G22G26G16G20
 -17667747.00844 -13767058.17244  21712399.7524   21712400.2094
 -24072105.85744 -18757474.16144  20335215.8424   20335214.9294
 -21590290.42144 -16823582.99844  21104194.8194   21104194.5614
  -4741889.09844  -3694975.17944  23635361.5074   23635361.1054
  -8270080.32244  -6444213.87644  22409634.3914   22409633.1954
  10024013.93044   7810920.38444  23589232.4734   23589233.5224
  -6375097.51644  -4967603.38644  23752772.8394   23752775.1234
 96  4 24  2 47  0.0000000  0  7G23G 6G17G22G26G16G20
 -17735573.45244 -13819909.92244  21699492.5454   21699493.1784
 -24048838.66944 -18739343.88244  20339643.3434   20339642.5534
 -21622162.68544 -16848418.51944  21098129.7744   21098129.3454
  -4779712.08344  -3724447.63044  23628163.5944   23628163.5354
  -8311051.07644  -6476139.10944  22401837.9864   22401837.0354
  10121773.06144   7887096.34344  23607835.7984   23607835.6884
  -6271606.55344  -4886961.07744  23772467.0924   23772469.2404
 96  4 24  2 47 30.0000000  0  7G23G 6G17G22G26G16G20
 -17803033.06044 -13872475.82944  21686655.7294   21686656.1784
 -24025102.40544 -18720848.09044  20344160.2574   20344159.4284
 -21653872.39744 -16873127.37344  21092095.7254   21092095.3784
  -4817039.59244  -3753534.00044  23621059.8564   23621059.4234
  -8351557.89844  -6507702.83844  22394129.4524   22394128.8104
  10219659.22344   7963371.26544  23626462.8274   23626462.9074
  -6168102.90544  -4806308.90344  23792163.0884   23792162.7434
 96  4 24  2 48  0.0000000  0  8G23G 6G17G22G26G16G20G21
 -17870116.18944 -13924748.37344  21673890.4514   21673890.7134
 -24000875.55644 -18701970.02644  20348770.4084   20348769.7644
 -21685392.03544 -16897688.12044  21086097.5744   21086097.1024
  -4853867.00244  -3782230.67144  23614051.4844   23614051.9944
  -8391594.37644  -6538900.08144  22386510.9494   22386510.5234
  10317689.90944   8039758.79144  23645117.4654   23645117.1214
  -6064561.39744  -4725627.18544  23811866.0464   23811868.0944
        -0.58554                  25036676.4834
 96  4 24  2 48 30.0000000  0  8G23G 6G17G22G26G16G20G21
 -17936820.90544 -13976726.05544  21661196.9154   21661197.0024
 -23976155.50244 -18682707.64644  20353474.6434   20353473.8364
 -21716693.07144 -16922078.52444  21080141.3504   21080140.7584
  -4890198.63644  -3810541.01344  23607138.2434   23607137.9864
  -8431144.98144  -6569718.72844  22378985.2414   22378984.3184
  10415879.88044   8116270.46244  23663802.6654   23663802.4474
  -5960977.46144  -4644912.45144  23831578.2154   23831579.3264
    -97762.16544    -76177.10544  25018073.6894   25018071.9044
 96  4 24  2 49  0.0000000  0  8G23G 6G17G22G26G16G20G21
 -18003198.08244 -14028448.50744  21648565.7854   21648565.6554
 -23950977.76044 -18663088.62644  20358265.4634   20358264.5124
 -21747794.49844 -16946313.39044  21074222.6624   21074222.2914
  -4926065.38944  -3838489.11744  23600314.0394   23600315.3384
  -8470232.80844  -6600176.75844  22371546.8524   22371546.2084
  10514207.63544   8192889.47244  23682514.1174   23682514.8154
  -5857391.28044  -4564195.92444  23851290.1714   23851290.7054
   -195456.63544   -152302.60744  24999484.4254   24999478.2654
 96  4 24  2 49 30.0000000  0  8G23G 6G17G22G26G16G20G21
 -18069256.67044 -14079922.71444  21635995.6974   21635995.5724
 -23925326.92044 -18643100.95544  20363146.9384   20363145.8884
 -21778697.42344 -16970393.58044  21068342.0854   21068341.7784
  -4961451.01244  -3866062.32544  23593579.4764   23593580.9984
  -8508861.64644  -6630277.13544  22364195.6664   22364194.6714
  10612668.60244   8269612.30644  23701249.8104   23701249.8434
  -5753804.66144  -4483479.07344  23871002.5524   23871002.0994
   -293078.52844   -228371.57844  24980908.4064   24980905.2754
 96  4 24  2 50  0.0000000  0  8G23G 6G17G22G26G16G20G21
 -18134987.08644 -14131141.19544  21623487.4444   21623487.1994
 -23899198.41144 -18622741.07744  20368118.8634   20368118.1464
 -21809404.89344 -16994321.46244  21062498.6644   21062498.4334
  -4996348.55744  -3893255.21344  23586938.7924   23586937.9924
  -8547029.67944  -6660018.44144  22356932.5374   22356931.8614
  10711245.67344   8346425.60244  23720007.8274   23720008.9024
  -5650215.05744  -4402759.90644  23890714.3854   23890714.9384
   -390620.38944   -304378.18544  24962345.9544   24962342.7264
 96  4 24  2 50 30.0000000  0  8G23G 6G17G22G26G16G20G21
 -18200357.15144 -14182078.88944  21611047.8944   21611047.5784
 -23872584.64844 -18602003.07544  20373183.3164   20373182.3704
 -21839906.35444 -17018088.82044  21056694.3544   21056694.2084
  -5030720.93444  -3920038.89344  23580398.1434   23580397.1664
  -8584703.94944  -6689374.99344  22349763.6374   22349762.0004
  10809944.93044   8423334.08844  23738790.4044   23738789.8594
  -5546601.17044  -4322021.81544  23910431.8314   23910432.5054
   -488047.86044   -380295.63344  24943804.4844   24943805.8874
 96  4 24  2 51  0.0000000  0  8G23G 6G17G22G26G16G20G21
 -18265351.92044 -14232724.13944  21598679.7614   21598679.6204
 -23845502.41344 -18580900.02944  20378337.0764   20378336.2264
 -21870229.11944 -17041716.93844  21050924.0694   21050923.9984
  -5064575.55344  -3946419.09544  23573956.1144   23573955.2914
  -8621898.84244  -6718358.00244  22342685.8924   22342685.0114
  10908738.96444   8500316.46044  23757590.4124   23757590.8784
  -5442967.28244  -4241268.13044  23930153.1064   23930155.2664
   -585351.18044   -456116.36044  24925288.4214   24925293.2654
 96  4 24  2 51 30.0000000  0  8G23G 6G17G22G26G16G20G21
 -18329945.53044 -14283056.80044  21586387.5384   21586387.7664
 -23817941.34444 -18559423.86644  20383581.4344   20383580.6714
 -21900377.10644 -17065208.86844  21045187.0414   21045186.8124
  -5097917.76744  -3972400.05244  23567610.7824   23567610.5324
  -8658609.53444  -6746963.72744  22335700.0544   22335698.6034
  11007621.94444   8577368.09344  23776406.9524   23776408.1264
  -5339317.14244  -4160501.82044  23949875.5994   23949878.5544
   -682521.08544   -531833.09944  24906794.8424   24906798.1214
 96  4 24  2 52  0.0000000  0  8G23G 6G17G22G26G16G20G21
 -18394110.30444 -14333055.30444  21574177.5464   21574177.4844
 -23789907.94044 -18537579.65844  20388916.2134   20388915.4124
 -21930347.58144 -17088562.47444  21039483.8164   21039483.8644
  -5130761.22344  -3997992.33744  23561361.7044   23561360.2884
  -8694821.46644  -6775180.80744  22328808.5974   22328807.9924
  11106605.68444   8654498.26844  23795243.0684   23795245.6194
  -5235646.28344  -4079719.35344  23969603.7994   23969605.1574
   -779568.25844   -607454.18744  24888326.6814   24888333.3104
 96  4 24  2 52 30.0000000  0  8G23G 6G17G22G26G16G20G21
 -18457844.24944 -14382718.09844  21562049.4244   21562049.4314
 -23761386.03444 -18515354.79144  20394343.8924   20394343.0244
 -21960136.58944 -17111774.67444  21033815.0414   21033815.2294
  -5163109.88744  -4023199.06944  23555206.6964   23555205.3824
  -8730524.52144  -6803001.35044  22322015.2204   22322013.6564
  11205721.31344   8731731.23444  23814104.2244   23814106.4794
  -5131950.20444  -3998917.19144  23989337.1844   23989340.1084
   -876504.52944   -682988.83344  24869878.7904   24869889.9604
 96  4 24  2 53  0.0000000  0  8G23G 6G17G22G26G16G20G21
 -18521172.22944 -14432064.54944  21549998.5754   21549998.8934
 -23732378.73144 -18492751.70444  20399863.4554   20399862.8314
 -21989746.76344 -17134847.52444  21028180.4124   21028180.6764
  -5194992.02344  -4048042.27344  23549139.0324   23549138.1804
  -8765732.62644  -6830436.23044  22315315.1404   22315314.5264
  11304959.23344   8809059.47444  23832988.7904   23832990.4344
  -5028246.37244  -3918109.01644  24009071.6424   24009071.7184
   -973353.09944   -758455.14044  24851448.3494   24851453.4784
 96  4 24  2 53 30.0000000  0  8G23G 6G17G22G26G16G20G21
 -18584108.70544 -14481105.93944  21538021.8734   21538022.2614
 -23702883.06744 -18469768.07244  20405476.5584   20405475.8184
 -22019166.01744 -17157771.60944  21022581.9184   21022582.1314
  -5226411.10644  -4072524.67144  23543160.6454   23543161.2154
  -8800442.56844  -6857482.91544  22308709.8154   22308708.6774
  11404328.94444   8886490.41944  23851897.3434   23851898.5574
  -4924537.75244  -3837297.10744  24028805.7084   24028807.3234
  -1070120.43244   -833858.12544  24833035.4724   24833042.8804
 96  4 24  2 54  0.0000000  0  8G23G 6G17G22G26G16G20G21
 -18646663.71444 -14529850.08144  21526118.1994   21526118.3124
 -23672898.76444 -18446403.68044  20411182.2154   20411181.3714
 -22048385.32644 -17180539.88944  21017022.0254   21017022.1724
  -5257348.62844  -4096631.82244  23537272.6974   23537272.8054
  -8834635.97744  -6884127.12644  22302202.8434   22302202.1724
  11503846.94044   8964036.89344  23870836.2764   23870836.7644
  -4820809.47644  -3756469.88944  24048545.5994   24048545.0904
  -1166781.73744   -909178.56744  24814643.2004   24814647.7274
 96  4 24  2 54 30.0000000  0  8G23G 6G17G22G26G16G20G21
 -18708846.15444 -14578303.91044  21514285.1224   21514285.5424
 -23642422.98244 -18422656.32044  20416981.6794   20416981.0804
 -22077392.53244 -17203142.89344  21011502.2464   21011502.0104
  -5287791.10544  -4120353.22844  23531479.0844   23531479.5094
  -8868307.30344  -6910364.50444  22295795.6514   22295794.8744
  11603502.40744   9041690.48344  23889799.6354   23889801.1534
  -4717062.81644  -3675628.32944  24068287.8834   24068287.9414
  -1263299.01744   -984386.73244  24796277.2134   24796279.5234
 96  4 24  2 55  0.0000000  0  8G23G 6G17G22G26G16G20G21
 -18770650.47744 -14626463.10244  21502524.5044   21502524.6864
 -23611476.19544 -18398541.94044  20422870.8694   20422870.2974
 -22106184.29344 -17225578.02044  21006023.1054   21006023.0604
  -5317722.84344  -4143676.63744  23525783.4704   23525784.8584
  -8901461.48944  -6936198.92044  22289486.7144   22289485.7534
  11703260.08044   9119423.71444  23908783.7484   23908783.1964
  -4613319.48044  -3594789.37344  24088029.1194   24088030.8024
  -1359658.42244  -1059471.97944  24777940.9194   24777938.4964
 96  4 24  2 55 30.0000000  0  8G23G 6G17G22G26G16G20G21
 -18832065.02944 -14674318.57544  21490837.4424   21490837.5274
 -23580076.83144 -18374074.90744  20428845.3484   20428844.8724
 -22134773.26344 -17247855.12844  21000582.9394   21000582.7764
  -5347129.54844  -4166590.96644  23520187.1554   23520187.7364
  -8934102.66144  -6961633.57444  22283275.2504   22283274.4094
  11803117.22144   9197234.47444  23927784.9764   23927786.6554
  -4509598.85544  -3513968.10544  24107765.7814   24107766.4184
  -1455855.92244  -1134431.01144  24759635.7224   24759630.2424
 96  4 24  2 56  0.0000000  0  8G23G 6G17G22G26G16G20G21
 -18893097.71044 -14721876.48544  21479223.7184   21479223.6794
 -23548240.16244 -18349267.11644  20434903.8584   20434903.2494
 -22163178.07144 -17269988.73244  20995177.7034   20995177.4664
  -5376012.79944                  23514691.2574
  -8966247.97644  -6986681.85644  22277157.4944   22277156.1824
  11903049.33544   9275103.62144  23946801.3024   23946801.6744
  -4405928.48744  -3433186.00444  24127494.3714   24127494.5344
  -1551907.32644  -1209276.30644  24741358.9624
 96  4 24  2 56 30.0000000  0  8G23G 6G17G22G26G16G20G21
 -18953712.89444 -14769109.07644  21467689.1254   21467689.0284
 -23515938.55044 -18324097.02844  20441050.9774   20441050.3654
 -22191375.57544 -17291960.80344  20989811.8294   20989811.6134
  -5404336.46744  -4211169.23944  23509301.6274   23509301.6684
  -8997880.11944  -7011330.25844  22271138.6724   22271137.3304
  12003062.50044   9353035.98144  23965833.3754   23965835.3104
  -4302295.87544  -3352433.34544  24147215.1674   24147214.6064
  -1647812.24844  -1284007.35844  24723108.2524   24723106.2474
 96  4 24  2 57  0.0000000  0  7G23G 6G17G22G26G20G21
 -19013933.04844 -14816033.85044  21456229.3474   21456229.1704
 -23483183.92844 -18298573.94544  20447283.6914   20447282.9414
 -22219398.17044 -17313796.57744  20984479.1724   20984479.1494
  -5432123.21744  -4232820.67744  23504014.2104   23504014.7504
  -9029018.09844  -7035593.59844  22265213.3464   22265212.8744
  -4198727.25944  -3271730.52644  24166924.0914   24166924.8204
  -1743620.27044  -1358662.86744  24704873.3474   24704871.0334
 96  4 24  2 57 30.0000000  0  7G23G 6G17G22G26G20G21
 -19073773.06544 -14862662.41244  21444841.8854   21444841.8924
 -23449956.48344 -18272682.43144  20453606.7194   20453606.1484
 -22247258.71844 -17335506.08144  20979177.5814   20979177.6344
  -5459395.14144  -4254071.59244  23498824.4204   23498823.5984
  -9059661.83144  -7059471.80844  22259381.9784   22259381.3344
  -4095209.90444  -3191067.63244  24186621.7534   24186624.9514
  -1839341.04544  -1433250.40544  24686659.6614   24686659.4034
 96  4 24  2 58  0.0000000  0  8G23G 6G17G22G26G28G20G21
 -19133188.99644 -14908960.51944  21433535.4344   21433535.1134
 -23416159.36144 -18246347.01044  20460038.5524   20460037.7004
 -22274880.90244 -17357029.85144  20973921.0684   20973921.3304
  -5486098.16944  -4274879.15444  23493743.2274   23493745.3084
  -9089747.89444  -7082915.47244  22253656.6574   22253655.9314
        -0.08114        -0.12814  25335915.503    25335915.959
  -3991668.16044  -3110385.77644  24206324.7464   24206324.2994
  -1934921.97144  -1507728.99844  24668471.4734   24668469.5824
 96  4 24  2 58 30.0000000  0  8G23G 6G17G22G26G28G20G21
 -19192241.29344 -14954975.27644  21422298.0554   21422298.1984
 -23381841.28344 -18219605.64944  20466568.7384   20466568.1914
 -22302315.80244 -17378407.67844  20968700.4674   20968700.6754
  -5512293.45144  -4295291.04544  23488758.1824   23488758.0884
  -9119326.60644  -7105963.79844  22248027.8044   22248027.3444
   -104670.261 4    -81561.217 4  25315997.778    25315998.100
  -3888146.10044  -3029719.22244  24226024.9474   24226023.8224
  -2030413.71244  -1582138.09844  24650300.2474   24650299.7684
 96  4 24  2 59  0.0000000  0  8G23G 6G17G22G26G28G20G21
 -19250952.63844 -15000724.35844  21411125.5044   21411125.3594
 -23347018.13244 -18192470.72644  20473195.2534   20473194.5334
 -22329570.68044 -17399645.23044  20963514.0694   20963513.9904
  -5538015.36244  -4315334.08544  23483863.0164   23483864.2434
  -9148419.99844  -7128633.96244  22242491.5974   22242491.0544
   -209391.302 4   -163161.915 4  25296070.422    25296071.834
  -3784652.95144  -2949075.22244  24245718.7474   24245720.4754
  -2125805.88544  -1656469.59944  24632147.7084   24632150.1724
 96  4 24  2 59 30.0000000  0  8G23G 6G17G22G26G28G20G21
 -19309322.56144 -15046207.39244  21400018.2604   21400018.0964
 -23311692.22444 -18164944.04244  20479917.5764   20479916.9204
 -22356627.94344 -17420728.79944  20958365.4514   20958365.1264
  -5563253.22144  -4334999.93644  23479059.3124   23479062.3834
  -9177021.26744  -7150920.66144  22237048.9504   22237048.3104
   -314154.015 4   -244795.174 4  25276133.712    25276135.816
  -3681174.59944  -2868442.73044  24265409.7084   24265407.6674
  -2221070.52844  -1730701.69944  24614017.4714   24614020.0324
 96  4 24  3  0  0.0000000  0  8G23G 6G17G22G26G28G20G21
 -19367324.71044 -15091403.85444  21388980.7214   21388980.9274
 -23275869.38344 -18137030.14344  20486734.6204   20486733.8664
 -22383468.91944 -17441643.83544  20953257.8054   20953257.8094
  -5587977.43844  -4354265.53444  23474355.6274   23474356.5934
  -9205103.66144  -7172803.04144  22231704.9644   22231704.2694
   -418938.879 4   -326445.650 4  25256194.162    25256196.192
  -3577704.39444  -2787816.58244  24285099.7454   24285102.3034
  -2316177.37644  -1804810.85744  24595918.0914   24595922.4864
 96  4 24  3  0 30.0000000  0  8G23G 6G17G22G26G28G20G21
 -19424944.88444 -15136302.66944  21378015.8734   21378016.0924
 -23239594.72344 -18108764.18344  20493637.3904   20493636.7414
 -22410128.43144 -17462417.47144  20948184.4494   20948184.5714
  -5612197.98644  -4373138.66644  23469746.4544   23469746.7014
  -9232666.37244  -7194280.47044  22226459.8774   22226459.9684
   -523757.125 4   -408122.312 4  25236248.218    25236251.728
  -3474264.00044  -2707213.69844  24304783.3884   24304786.3954
  -2411100.60844  -1878776.96344  24577854.0394   24577859.9454
 96  4 24  3  1  0.0000000  0  8G23G 6G17G22G26G28G20G21
 -19482167.12844 -15180891.41044  21367127.2614   21367127.2614
 -23202863.46644 -18080142.43244  20500626.9054   20500626.2634
 -22436612.16944 -17483054.14044  20943144.6194   20943144.4974
  -5635905.33844  -4391611.91844  23465236.0204   23465235.3584
  -9259692.54744  -7215339.82644  22221317.6784   22221316.3834
   -628602.293 4   -489819.808 4  25216297.343    25216301.697
  -3370857.26444  -2626637.02844  24324461.7544   24324460.8154
  -2505816.74544  -1952581.64444  24559829.8704   24559831.9194
 96  4 24  3  1 30.0000000  0  8G23G 6G17G22G26G28G20G21
 -19538996.60044 -15225174.09644  21356312.7044   21356312.9994
 -23165691.88544 -18051177.56844  20507700.4074   20507699.9034
 -22462942.97044 -17503571.64144  20938134.2274   20938134.0084
  -5659111.35844  -4409694.49944  23460818.9554   23460819.0774
  -9286185.54344  -7235983.79744  22216275.1384   22216274.6734
   -733487.004 4   -571547.986 4  25196337.589    25196346.983
  -3267516.67844  -2546111.88244  24344126.8834   24344126.5744
  -2600357.24744  -2026249.49544  24541839.4584   24541840.8744
 96  4 24  3  2  0.0000000  0  8G23G 6G17G22G26G28G20G21
 -19595408.63144 -15269131.50244  21345577.5334   21345577.6624
 -23128066.33744 -18021858.96244  20514860.4164   20514859.7664
 -22489118.17144 -17523967.88844  20933153.2074   20933153.2144
  -5681813.45644  -4427384.41544  23456499.2004   23456499.8824
  -9312144.28544  -7256211.24944  22211335.7794   22211334.5574
   -838407.174 4   -653303.910 4  25176370.698    25176376.279
  -3164254.73844  -2465648.02944  24363776.5064   24363777.8994
  -2694729.02844  -2099785.87144  24523883.8804   24523884.8574
 96  4 24  3  2 30.0000000  0  8G23G 6G17G22G26G28G20G21
 -19651414.40644 -15312772.34644  21334920.4674   21334920.6584
 -23089975.85644 -17992178.06944  20522108.8534   20522108.1814
 -22515134.55044 -17544240.38144  20928202.4864   20928202.5994
  -5704024.40044  -4444691.62644  23452272.8884   23452273.2724
  -9337583.33044  -7276033.88644  22206494.8764   22206493.7924
   -943371.393 4   -735094.230 4  25156396.258    25156399.609
  -3061077.91744  -2385250.52344  24383410.6504   24383411.2254
  -2788958.84144  -2173211.68244  24505952.3674   24505950.4644
 96  4 24  3  3  0.0000000  0  8G23G 6G17G22G26G28G20G21
 -19707040.62744 -15356117.43644  21324334.9394   21324334.7334
 -23051410.83544 -17962127.40644  20529447.1614   20529446.7494
 -22540975.89644 -17564376.48444  20923285.1894   20923285.2864
  -5725743.49944  -4461615.56344  23448139.5994   23448140.1064
  -9362511.55344  -7295458.46744  22201751.0144   22201750.2234
  -1048379.937 4   -816919.148 4  25136414.329    25136413.831
  -2957990.21244  -2304922.46944  24403027.7404   24403027.1814
  -2883102.89544  -2246570.62744  24488038.6614   24488038.2494
 96  4 24  3  3 30.0000000  0  8G23G 6G17G22G26G28G20G21
 -19762261.29644 -15399146.51044  21313826.7274   21313826.6864
 -23012348.17844 -17931688.98744  20536880.9284   20536880.1984
 -22566602.93144 -17584345.58944  20918408.4604   20918408.5604
  -5746944.41544  -4478135.77944  23444105.4644   23444107.1934
  -9386906.22444  -7314467.28544  22197109.2794   22197108.6094
  -1153401.579 4   -898754.198 4  25116430.253    25116430.153
  -2854958.05544  -2224637.66744  24422634.1154   24422633.8444
  -2977156.69544  -2319859.29944  24470141.0454   24470141.6344
 96  4 24  3  4  0.0000000  0  8G23G 6G17G22G26G28G20G21
 -19817069.41544 -15441854.11544  21303397.0734   21303396.6184
 -22972781.45244 -17900857.77744  20544410.2314   20544409.2924
 -22592020.94644 -17604151.82544  20913571.6154   20913571.2594
  -5767620.07044  -4494246.66844  23440171.5514   23440170.4984
  -9410758.76444  -7333053.67044  22192569.7474   22192568.8174
  -1258423.654 4   -980589.471 4  25096443.515    25096446.917
  -2751959.26244  -2144378.83844  24442233.7814   24442235.8354
  -3071106.07744  -2393066.55444  24452263.3634   24452260.2784
 96  4 24  3  4 30.0000000  0  8G23G 6G17G22G26G28G20G21
 -19871508.12444 -15484273.86844  21293037.8184   21293037.6164
 -22932736.65644 -17869654.03944  20552030.5904   20552029.9934
 -22617259.43544 -17623818.17144  20908768.7404   20908768.3844
  -5787794.74344  -4509967.17444  23436330.9284   23436331.8464
  -9434082.00744  -7351227.62244  22188132.2604   22188130.5724
  -1363463.776 4  -1062438.863 4  25076453.590    25076455.838
  -2649014.91544  -2064162.48044  24461822.5894   24461826.6354
  -3164963.24244  -2466201.97544  24434402.8924   24434400.7694
 96  4 24  3  5  0.0000000  0  8G23G 6G17G22G26G28G20G21
 -19925553.74544 -15526387.32044  21282753.3774   21282753.0734
 -22892207.46244 -17838072.85044  20559742.8134   20559742.0734
 -22642314.30544 -17643341.43744  20904001.1064   20904000.7734
  -5807452.79844  -4525285.10544  23432591.1234   23432590.7664
  -9456862.35544  -7368978.53944  22183796.7864   22183795.7674
  -1468504.659 4  -1144288.897 4  25056461.879    25056465.509
  -2546118.34744  -1983983.30844  24481403.1524
  -3258680.65444  -2539228.51844  24416569.2384   24416566.8094
 96  4 24  3  5 30.0000000  0  7G23G 6G17G22G26G20G21
 -19979192.86344 -15568184.01444  21272545.7804   21272545.3234
 -22851183.97144 -17806106.49944  20567549.3094   20567548.6174
 -22667186.01944 -17662721.98844  20899268.1304   20899267.6404
  -5826597.80544  -4540203.26444  23428947.2714   23428947.7974
  -9479094.02944  -7386301.91044  22179566.3204   22179565.2204
  -2443271.67644  -1903843.05744  24500974.9974
  -3352215.09444  -2612112.45444  24398768.6444   24398768.1664
 96  4 24  3  6  0.0000000  0  7G23G 6G17G22G26G20G21
 -20032441.80944 -15609676.68044  21262412.9874   21262413.2534
 -22809662.86344 -17773752.39244  20575450.5454   20575449.9714
 -22691879.88944 -17681963.95944  20894568.9784   20894568.6604
  -5845233.79444  -4554724.82544  23425401.1214   23425401.0084
  -9500774.94444  -7403196.10544  22175440.9614   22175440.5504
  -2340493.24044  -1823755.96444  24520532.1934
  -3445561.16644  -2684849.63844  24381005.5664   24381005.4794
 96  4 24  3  6 30.0000000  0  8G23G 6G17G22G26G28G20G21
 -20085282.43644 -15650851.17444  21252357.9554   21252358.0154
 -22767615.63644 -17740988.32544  20583451.9264   20583451.3644
 -22716343.76144 -17701026.70644  20889913.5154   20889913.4674
  -5863327.90344  -4568824.14244  23421957.6944   23421957.4254
  -9521886.16444  -7419646.39344  22171423.2964   22171421.9394
        -0.49814         0.09614  24996491.011    24996492.158
  -2237774.90944  -1743715.73344  24540082.0524
  -3538691.37444  -2757418.59144  24363282.5344   24363282.3364
 96  4 24  3  7  0.0000000  0  8G23G 6G17G22G26G28G20G21
 -20137722.48344 -15691713.53144  21242378.8384   21242378.8274
 -22725067.46544 -17707833.91444  20591548.5374   20591547.9114
 -22740594.06744 -17719923.04044  20885298.9264   20885298.8794
  -5880897.39944  -4582514.62744  23418614.2284   23418616.5114
  -9542453.89944  -7435673.18844  22167509.4464   22167508.2304
   -105064.932 4    -81868.254 4  24976496.844    24976498.240
  -2135133.56244                  24559611.2554
  -3631633.08344  -2829840.64344  24345595.4154   24345596.3684
 96  4 24  3  7 30.0000000  0  7G23G22G26G20G 6G17G21
 -20189786.51244 -15732282.88344  21232471.2854   21232471.3804
  -5897965.93244  -4595814.78744  23415366.8864   23415366.0724
  -9562486.07744  -7451282.65844  22163697.2274   22163696.5804
  -2032585.23744                  24579125.6534
 -22682030.03344 -17674298.25844  20599738.3114   20599737.6024
 -22764639.75244 -17738659.93144  20880723.3314   20880723.3074
  -3724424.81944  -2902145.86344  24327937.3654   24327938.7004
 96  4 24  3  8  0.0000000  0  7G23G22G26G 6G17G20G21
 -20241497.08344 -15772576.81644  21222631.1934   21222630.9354
  -5914556.23444  -4608742.29344  23412209.4664   23412208.8214
  -9582009.22544  -7466495.48544  22159981.9604   22159981.2954
 -22638541.38444 -17640411.00344  20608014.0964   20608013.4014
 -22788506.66144 -17757257.51744  20876181.3704   20876181.4974
  -1930156.53044                  24598619.1064
  -3817098.87444  -2974359.38344  24310301.3184   24310302.5534
 96  4 24  3  8 30.0000000  0  7G23G 6G17G22G26G20G21
 -20292842.22344 -15812585.99944  21212860.7044   21212860.4514
 -22594616.42044 -17606183.76344  20616372.7654   20616371.9934
 -22812202.48044 -17775721.78244  20871672.1304   20871672.4514
  -5930673.08544  -4621300.88044  23409142.7864   23409143.9504
  -9601034.82244  -7481320.61544  22156362.0454   22156361.2234
  -1827859.31744  -1424301.03544  24618083.6964
  -3909657.57144  -3046482.98744  24292688.1784   24292691.3144
 96  4 24  3  9  0.0000000  0  8G23G 6G17G22G26G28G20G21
 -20343771.28244 -15852270.96044  21203168.7284   21203168.4304
 -22550210.91444 -17571582.07944  20624822.6884   20624822.0024
 -22835703.95144 -17794034.60844  20867199.9554   20867200.1174
  -5946281.59544  -4633463.34444  23406172.0844   23406171.4034
  -9619506.44044  -7495714.05844  22152846.5674   22152845.3014
         0.49414         0.04514  24896476.166    24896482.930
  -1725650.33744                  24637534.6284
  -4002065.47844  -3118489.10644  24275103.7864   24275105.2244
 96  4 24  3  9 30.0000000  0  7G23G22G26G20G 6G17G21
 -20394258.76244 -15891611.83344  21193561.5304   21193561.5714
  -5961357.39844  -4645210.74344  23403303.6174   23403303.2854
  -9637397.25044  -7509654.94244  22149442.3324   22149441.7404
  -1623517.90544                  24656970.7684
 -22505293.24944 -17536581.30744  20633370.3504   20633369.7534
 -22858983.90244 -17812174.82044  20862769.9924   20862769.8144
  -4094305.05444  -3190364.05644  24257553.7984   24257554.1404
 96  4 24  3 10  0.0000000  0  7G23G 6G17G22G26G20G21
 -20444310.86544 -15930613.45844  21184036.6374   21184036.4464
 -22459886.92244 -17501199.76244  20642010.9164   20642010.3074
 -22882069.27644 -17830163.41744  20858377.0654   20858376.9644
  -5975900.25244  -4656542.82544  23400536.4814   23400536.3354
  -9654726.70444  -7523158.39344  22146144.2414   22146143.0324
  -1521475.74544                  24676386.5184
  -4186398.71144  -3262125.33244  24240029.6674   24240030.3224
 96  4 24  3 10 30.0000000  0  8G23G 6G17G22G26G28G20G21
 -20493918.26644 -15969268.55844  21174596.6444   21174596.7904
 -22413986.10044 -17465432.89644  20650745.1724   20650744.3824
 -22904968.20044 -17848006.72544  20854019.3354   20854019.6344
  -5989911.04944  -4667460.33144  23397871.4624   23397871.0034
  -9671492.80944  -7536222.86644  22142954.2724   22142953.5854
        -0.11614         0.30614  24836480.505    24836486.799
  -1419520.79944  -1106115.16544  24695788.8834
  -4278355.56344  -3333779.97844  24222529.9544   24222530.7314
 96  4 24  3 11  0.0000000  0  8G23G26G 6G17G22G28G20G21
 -20543084.89744 -16007580.20144  21165240.7624   21165240.7734
  -9687683.04544  -7548838.63144  22139873.4374   22139872.8154
 -22367590.76044 -17429280.69144  20659574.1034   20659573.4884
 -22927686.94444 -17865709.63444  20849696.3794   20849696.4524
  -6003389.73044  -4677963.19444  23395306.5834   23395306.4944
   -105064.348 4    -81867.901 4  24816487.429    24816496.915
  -1317638.48444                  24715177.4844
  -4370174.91544  -3405327.50344  24205056.3614   24205056.2994
 96  4 24  3 11 30.0000000  0  8G23G26G 6G17G22G28G20G21
 -20591790.89744 -16045532.91344  21155972.0744   21155972.1564
  -9703287.76944  -7560998.13044  22136903.3904   22136902.6404
 -22320695.53344 -17392738.96544  20668498.1414   20668497.4384
 -22950203.68544 -17883255.13944  20845411.5974   20845411.5264
  -6016308.94244  -4688030.12244  23392847.1314   23392847.7524
   -210081.663 4   -163699.453 4  24796503.801    24796512.715
  -1215793.97644                  24734557.5434
  -4461817.43744  -3476737.23644  24187618.9524   24187619.7744
 96  4 24  3 12  0.0000000  0  8G23G 6G17G22G26G28G20G21
 -20640060.64844 -16083145.69044  21146786.9064   21146786.8824
 -22273341.62544 -17355839.82044  20677509.3074   20677508.6424
 -22972553.82144 -17900670.82444  20841158.3484   20841158.3654
  -6028698.98844  -4697684.70044  23390489.2994   23390488.6554
  -9718339.46944  -7572726.72344  22134039.4504   22134038.8704
   -315070.578 4   -245508.885 4  24776524.360    24776532.142
  -1114015.16644                  24753923.3944
  -4553288.43744  -3548013.29644  24170211.7674   24170211.3714
 96  4 24  3 12 30.0000000  0  8G23G26G 6G17G22G28G20G21
 -20687905.82744 -16120427.63244  21137682.1154   21137682.1104
  -9732828.74844  -7584017.05044  22131281.9364   22131280.9814
 -22225518.85244 -17318575.32444  20686609.5084   20686608.9054
 -22994718.42244 -17917941.93444  20836940.3134   20836940.3604
  -6040567.03644  -4706932.51744  23388230.8734   23388231.7244
   -420025.574 4   -327291.957 4  24756551.016    24756557.084
  -1012317.03744                  24773276.8944
  -4644563.58944  -3619136.79244  24152843.0474   24152842.0984
 96  4 24  3 13  0.0000000  0  8G23G26G 6G17G22G28G20G21
 -20735366.03044 -16157409.59344  21128651.0294   21128650.7734
  -9746773.01044  -7594882.69944  22128628.6224   22128627.7454
 -22177255.30644 -17280967.37044  20695793.7014   20695793.0054
 -23016703.19944 -17935072.91844  20832756.9694   20832756.6504
  -6051928.10044  -4715785.30544  23386068.3484   23386069.0504
   -524962.999 4   -409061.389 4  24736581.592    24736582.572
   -910728.66644                  24792608.8064
  -4735647.54944  -3690111.27844  24135509.6924   24135510.9274
 96  4 24  3 13 30.0000000  0  8G23G26G 6G17G22G28G20G21
 -20782433.55844 -16194085.57344  21119694.1684   21119694.1944
  -9760173.96244  -7605324.99344  22126078.6354   22126077.1864
 -22128533.06244 -17243001.99344  20705065.0624   20705064.6174
 -23038489.41244 -17952049.18244  20828611.4134   20828610.7734
  -6062770.72344  -4724234.10844  23384005.2894   23384006.6784
   -629872.861 4   -490809.263 4  24716616.817    24716615.090
   -809252.27144                  24811920.4774
  -4826526.27744  -3760925.84844  24118214.4864   24118215.9494
 96  4 24  3 14  0.0000000  0  7G23G26G22G20G21G 6G17
 -20829095.64244 -16230445.62144  21110814.4144   21110814.3904
  -9772999.87044  -7615319.20344  22123638.1624   22123637.4254
  -6073073.58644  -4732262.31644  23382044.1764   23382045.4014
   -707896.99544                  24831206.2134
  -4917193.91444  -3831575.91244  24100959.9964   24100963.7794
 -22079322.18244 -17204655.85844  20714429.7724   20714429.0594
 -23060048.65544 -17968848.58644  20824508.8034   20824508.4274
 96  4 24  3 14 30.0000000  0  7G23G26G22G20G21G 6G17
 -20875392.92044 -16266521.40344  21102004.8764   21102004.6684
  -9785262.43644  -7624874.43044  22121304.4064   22121303.4534
  -6082853.97244  -4739883.39944  23380183.4014   23380183.3144
   -606681.39344                  24850466.9414
  -5007684.75044  -3902088.19944  24083739.8784   24083742.5524
 -22029632.00944 -17165936.25444  20723885.6434   20723884.9334
 -23081406.20344 -17985490.82344  20820444.6634   20820444.2344
 96  4 24  3 15  0.0000000  0  7G23G22G26G20G 6G17G21
 -20921258.83844 -16302261.06544  21093276.6064   21093276.4134
  -6092054.35744  -4747052.52144  23378433.4874   23378433.0944
  -9796916.73444  -7633955.69244  22119086.4794   22119085.1254
   -505533.59044                  24869715.5084
 -21979408.82644 -17126801.31644  20733442.8824   20733442.2504
 -23102533.06444 -18001953.30544  20816424.4084   20816423.9234
  -5097958.73244  -3972431.54044  24066562.5614   24066562.4704
 96  4 24  3 15 30.0000000  0  7G23G26G22G20G21G 6G17
 -20966749.48744 -16337708.30844  21084620.1494   21084620.0144
  -9808039.38644  -7642622.69044  22116969.9304   22116969.4384
  -6100748.88544  -4753827.49044  23376778.4444   23376777.6394
   -404516.70044                  24888938.7134
  -5188094.87744  -4042667.48544  24049410.8494   24049412.3344
 -21928711.98844 -17087297.29244  20743090.0374   20743089.5814
 -23123499.89944 -18018291.09444  20812434.2464   20812433.9344
 96  4 24  3 16  0.0000000  0  7G23G22G26G 6G17G20G21
 -21011873.14244 -16372869.58344  21076033.0374   21076032.9454
  -6108957.20244  -4760223.58244  23375217.1454   23375216.6954
  -9818638.10944  -7650881.43644  22114952.7874   22114952.2074
 -21877564.35144 -17047442.00244  20752822.9674   20752822.4934
 -23144314.71944 -18034510.42744  20808473.4454   20808473.4534
   -303646.77344                  24908132.9584
  -5278109.80544  -4112808.95444  24032281.7834   24032281.4044
 96  4 24  3 16 30.0000000  0  7G23G26G 6G17G22G20G21
 -21056612.00644 -16407731.01844  21067519.4304   21067519.3684
  -9828707.67544  -7658727.84844  22113036.6874   22113036.0104
 -21825959.02044 -17007230.06744  20762643.2934   20762642.5894
 -23164970.39144 -18050605.74544  20804542.7804   20804542.6684
  -6116672.78244  -4766235.71444  23373749.0454   23373749.6684
   -202899.74544                  24927303.4394
  -5367987.16344  -4182843.23044  24015178.4354   24015179.8584
 96  4 24  3 17  0.0000000  0  8G23G26G 6G17G22G28G20G21
 -21100923.47344 -16442259.42044  21059087.5614   21059087.3084
  -9838223.38344  -7666142.66844  22111225.4534   22111224.4284
 -21773888.82544 -16966655.90544  20772551.7214   20772551.2824
 -23185421.30044 -18066541.51344  20800651.1314   20800650.6594
  -6123883.60544  -4771854.54744  23372376.4994   23372376.3724
        -0.55414        -0.10614  24577001.510    24577002.425
   -102255.99344                  24946454.8754
  -5457692.67144  -4252743.60344  23998108.2134   23998106.9514
 96  4 24  3 17 30.0000000  0  7G23G26G22G28G21G 6G17
 -21144804.77344 -16476452.62244  21050736.7564   21050736.8034
  -9847160.99644  -7673107.03344  22109525.3444   22109524.4984
  -6130587.52144  -4777078.37544  23371100.2914   23371100.5814
   -104704.942 4    -81587.816 4  24557076.259    24557078.550
  -5547205.39144  -4322493.75444  23981074.7414   23981075.3394
 -21721355.23744 -16925720.65144  20782548.8264   20782548.4364
 -23205638.46344 -18082295.13944  20796803.6674   20796803.3164
 96  4 24  3 18  0.0000000  0  7G23G26G 6G17G22G28G21
 -21188282.21044 -16510331.12644  21042463.5204   21042463.2094
  -9855520.54844  -7679620.96144  22107934.4954   22107933.8404
 -21668361.55044 -16884426.88244  20792633.2924   20792632.7124
 -23225656.77544 -18097893.81344  20792994.2184   20792994.3044
  -6136793.58144  -4781914.26944  23369919.0504   23369919.6174
   -209363.554 4   -163139.977 4  24537159.911    24537162.673
  -5636526.85544  -4392094.83544  23964076.9104   23964077.3814
 96  4 24  3 18 30.0000000  0  8G23G26G 6G17G22G28G16G21
 -21231353.80544 -16543893.39144  21034267.2284   21034267.2204
  -9863288.94044  -7685674.25144  22106456.2074   22106455.2214
 -21614873.78644 -16842748.11844  20802811.6074   20802810.9644
 -23245476.84944 -18113338.01944  20789222.5734   20789222.4384
  -6142484.35644  -4786348.63244  23368835.7004   23368836.4844
   -313964.424 4   -244647.115 4  24517256.508    24517257.160
         0.20954         1.31554  24815708.9664   24815709.9704
  -5725648.73344  -4461540.42244  23947118.5794   23947117.5894
 96  4 24  3 19  0.0000000  0  8G23G26G 6G17G22G28G16G21
 -21274018.93844 -16577138.93144  21026148.3274   21026148.3174
  -9870472.93144  -7691272.16244  22105089.3224   22105088.4054
 -21560892.46544 -16800684.76044  20813083.6324   20813083.2844
 -23265103.54144 -18128631.54044  20785487.7364   20785487.5574
  -6147669.87344  -4790389.28444  23367849.7624   23367850.0084
   -418506.410 4   -326108.350 4  24497364.282    24497363.976
    102300.53344     79715.91244  24835176.3654   24835176.7424
  -5814568.75844  -4530828.72044  23930198.0864   23930197.8764
 96  4 24  3 19 30.0000000  0  8G23G26G 6G17G22G28G16G21
 -21316283.73944 -16610072.52644  21018105.5244   21018105.4004
  -9877085.73544  -7696425.00244  22103830.1934   22103829.4914
 -21506414.50744 -16758234.40644  20823450.4064   20823450.0394
 -23284569.33244 -18143799.67844  20781783.6704   20781783.4414
  -6152339.09744  -4794027.64744  23366961.6294   23366961.9804
   -523001.143 4   -407532.749 4  24477480.625    24477480.007
    204585.42544    159418.23144  24854638.8074
  -5903301.87844  -4599971.39044  23913312.7764   23913312.8784
 96  4 24  3 20  0.0000000  0  8G23G26G 6G17G22G28G16G21
 -21358134.36844 -16642683.39144  21010141.2904   21010141.3034
  -9883128.87844  -7701133.93944  22102681.1534   22102680.4394
 -21451434.33644 -16715392.71944  20833912.7924   20833912.3114
 -23303879.75444 -18158846.75144  20778109.1694   20778108.7874
  -6156480.63444  -4797254.80844  23366172.6994   23366173.1054
   -627452.581 4   -488923.452 4  24457603.557    24457603.303
    306867.08744    239118.19644  24874104.1694   24874103.4254
  -5991851.02744  -4668970.68444  23896461.6274   23896462.4034
 96  4 24  3 20 30.0000000  0  8G23G26G 6G17G22G28G16G21
 -21399565.53944 -16674967.40444  21002257.3374   21002257.5124
  -9888612.49444  -7705406.86744  22101637.3824   22101636.4174
 -21395990.44144 -16672189.69044  20844463.4694   20844463.0404
 -23323021.98544 -18173762.76844  20774466.5104   20774466.2724
  -6160115.63444  -4800087.28144  23365480.4994   23365481.0284
   -731869.163 4   -570287.012 4  24437733.760    24437733.208
    409145.65644                  24893566.1284
  -6080227.29544  -4737835.28444  23879644.3674   23879643.9014
 96  4 24  3 21  0.0000000  0  8G23G26G 6G17G22G28G16G21
 -21440571.30544 -16706919.93244  20994454.4724   20994454.1694
  -9893530.78844  -7709239.28444  22100701.5474   22100700.3284
 -21340112.52744 -16628648.46744  20855096.8324   20855096.1924
 -23341987.39744 -18188540.99844  20770857.2294   20770857.1724
  -6163252.65544  -4802531.71444  23364884.2434   23364883.8814
   -836254.567 4   -651626.225 4  24417868.921    24417868.984
    511420.12044                  24913027.8314
  -6168413.48644  -4806551.78444  23862863.0614   23862863.5644
 96  4 24  3 21 30.0000000  0  7G26G23G 6G17G22G28G21
  -9897867.05344  -7712618.18844  22099876.4184   22099875.5634
 -21481164.26244 -16738550.78944  20986729.4574   20986729.6314
 -21283792.01544 -16584762.35944  20865814.3934   20865813.7664
 -23360760.58344 -18203169.44144  20767285.1644   20767284.8564
  -6165886.62344  -4804584.16044  23364383.2334   23364382.7864
   -940602.015 4   -732935.890 4  24398011.991    24398012.472
  -6256418.51244  -4875127.08644  23846115.5934   23846117.2234
 96  4 24  3 22  0.0000000  0  8G26G23G 6G17G22G28G20G21
  -9901614.94944  -7715538.60544  22099163.0024   22099162.5414
 -21521355.56144 -16769868.66844  20979081.7694   20979081.3814
 -21227027.54444 -16540530.31144  20876616.3384   20876615.7374
 -23379316.19544 -18217628.35444  20763754.1794   20763753.6474
  -6168031.81344  -4806255.71344  23363975.4254   23363975.8504
  -1044901.231 4   -814207.967 4  24378164.451    24378164.699
        -0.97454                  25136533.4964
  -6344234.24444  -4943554.91844  23829404.3324   23829405.4994
 96  4 24  3 22 30.0000000  0  8G26G23G 6G17G22G28G20G21
  -9904765.98544  -7717993.95244  22098563.2164   22098562.1524
 -21561133.91944 -16800864.77344  20971511.9494   20971512.0144
 -21169803.83644 -16495940.41844  20887505.1624   20887504.6804
 -23397629.81144 -18231898.69544  20760269.1214   20760268.9594
  -6169683.46044  -4807542.71944  23363660.9974   23363661.4164
  -1149128.002 4   -895423.610 4  24358331.368    24358330.287
     99042.81144                  25155378.4214
  -6431840.58144  -5011819.56044  23812732.7304   23812733.7374
 96  4 24  3 23  0.0000000  0  8G26G23G 6G17G22G28G20G21
  -9907342.88944  -7720001.92144  22098072.4734   22098071.9964
 -21600522.44044 -16831557.11344  20964016.7924   20964016.6184
 -21112126.25844 -16450996.86444  20898480.8994   20898480.3874
 -23415726.97744 -18246000.37544  20756825.1424   20756824.8404
  -6170848.38944  -4808450.45844  23363439.7764   23363439.2414
  -1253298.703 4   -976595.502 4  24338506.990    24338507.965
    197928.68644                  25174198.5704
  -6519262.81744  -5079940.77044  23796096.0274   23796097.1574
 96  4 24  3 23 30.0000000  0  7G26G22G28G21G23G 6G17
  -9909388.83444  -7721596.15544  22097683.4014   22097682.1014
  -6171554.97344  -4809001.03644  23363305.1374   23363305.2994
  -1357443.076 4  -1057746.898 4  24318687.835    24318690.270
  -6606547.33144  -5147954.64044  23779485.6344   23779489.2294
 -21639551.81944 -16861969.59744  20956589.6974   20956589.3654
 -21054016.45544 -16405716.50144  20909539.2244   20909538.8294
 -23433650.28644 -18259966.58444  20753414.3654   20753414.0924
 96  4 24  3 24  0.0000000  0  7G26G23G 6G17G22G28G21
  -9910862.47144  -7722744.42744  22097403.1884   22097402.4824
 -21678154.02344 -16892049.22044  20949243.9054   20949243.6654
 -20995425.89944 -16360061.53344  20920688.6404   20920688.0574
 -23451363.93144 -18273769.41744  20750043.5174   20750043.4394
  -6171739.75344  -4809145.02644  23363269.4904   23363269.1504
  -1461509.944 4  -1138837.942 4  24298884.378    24298886.121
  -6693621.31444  -5215804.46544  23762916.3554   23762919.0094
 96  4 24  3 24 30.0000000  0  8G26G23G 6G17G22G28G16G21
  -9911756.60944  -7723441.14944  22097233.5344   22097232.6724
 -21716306.71244 -16921778.57244  20941983.7094   20941983.4434
 -20936337.26444 -16314018.44844  20931932.9294   20931932.0714
 -23468863.25344 -18287405.24544  20746713.4484   20746713.2164
  -6171378.48044  -4808863.51644  23363337.9454   23363338.5674
  -1565482.950 4  -1219855.811 4  24279099.473    24279100.952
        -0.04654         0.08354  25049239.4584
  -6780468.28144  -5283477.38544  23746391.8964   23746392.8644
 96  4 24  3 25  0.0000000  0  7G26G22G28G21G23G 6G17
  -9912083.15144  -7723695.57444  22097171.0104   22097170.2824
  -6170473.35944  -4808158.23244  23363510.0034   23363511.3024
  -1669377.549 4  -1300812.623 4  24259328.788    24259331.514
  -6867104.15944  -5350985.85244  23729905.8894   23729905.6704
 -21754036.88644 -16951178.68944  20934803.9164   20934803.6604
 -20876755.23544 -16267590.89844  20943270.7584   20943270.2904
 -23486171.96144 -18300892.54344  20743419.7734   20743419.5704
 96  4 24  3 25 30.0000000  0  7G26G23G 6G17G22G28G21
  -9911856.83144  -7723519.20944  22097213.6304   22097212.5524
 -21791360.04344 -16980261.65344  20927701.7954   20927701.4494
 -20816696.83944 -16220792.16044  20954699.5844   20954699.0374
 -23503301.92844 -18314240.55844  20740160.3294   20740159.9634
  -6169034.86644  -4807037.30944  23363783.3984   23363784.1354
  -1773203.358 4  -1381715.854 4  24239571.279    24239572.537
  -6953529.48444  -5418330.22944  23713459.7914   23713459.3164
 96  4 24  3 26  0.0000000  0  8G26G23G 6G17G22G28G16G21
  -9911068.88544  -7722905.20144  22097363.4494   22097362.3964
 -21828285.36644 -17009034.61744  20920674.9884   20920674.7974
 -20756168.31844 -16173627.09344  20966217.5714   20966217.0254
 -23520254.22344 -18327450.13144  20736934.3824   20736933.8464
  -6167068.29944  -4805504.91844  23364158.2164   23364158.5104
  -1876957.860 4  -1462563.457 4  24219828.748    24219828.097
        -0.97554                  25107584.5494
  -7039745.05044  -5485511.16444  23697053.0074   23697054.1484
 96  4 24  3 26 30.0000000  0  8G26G23G 6G17G22G28G16G21
  -9909701.24044  -7721839.48644  22097623.7804   22097622.7534
 -21864803.34844 -17037490.17244  20913725.6304   20913725.3954
 -20695170.13444 -16126096.04744  20977825.4044   20977824.7794
 -23537014.49244 -18340510.07744  20733744.7184   20733744.2184
  -6164581.91144  -4803567.47844  23364631.2664   23364630.7794
  -1980628.438 4  -1543345.712 4  24200099.916    24200100.710
    102184.32744                  25127032.0554
  -7125760.95744  -5552536.51344  23680685.1184   23680685.6864
 96  4 24  3 27  0.0000000  0  7G 6G26G22G28G21G23G17
 -20633703.22644 -16078199.77244  20989521.9124   20989520.9974
  -9907729.63644  -7720303.15544  22097999.2944   22097998.1174
  -6161574.36644  -4801223.93144  23365204.1964   23365203.7054
  -2084202.434 4  -1624052.683 4  24180391.059    24180390.650
  -7211565.98844  -5619397.56244  23664358.4254   23664358.0214
 -21900901.23444 -17065618.38244  20906856.5214   20906856.0864
 -23553570.64844 -18353410.96844  20730594.3134   20730593.9244
 96  4 24  3 27 30.0000000  0  7G 6G26G22G28G21G23G17
 -20571805.62844 -16029967.88744  21001300.7774   21001300.2074
  -9905160.32344  -7718301.08144  22098488.2384   22098487.0004
  -6158092.96144  -4798511.13744  23365865.8394   23365865.9614
  -2187697.653 4  -1704698.255 4  24160696.618    24160696.239
  -7297185.25244  -5686113.86544  23648065.5714   23648063.7344
 -21936593.07144 -17093430.18744  20900064.5714   20900064.3234
 -23569935.64544 -18366162.91144  20727480.0244   20727479.6864
 96  4 24  3 28  0.0000000  0  7G 6G22G26G28G23G17G21
 -20509468.66344 -15981393.63844  21013163.0804   21013162.4784
  -6154149.85344  -4795438.56544  23366615.8804   23366615.1714
  -9901985.79544  -7715827.40744  22099092.2934   22099091.0674
  -2291109.730 4  -1785279.034 4  24141017.803    24141017.092
 -21971875.31844 -17120922.83244  20893350.4694   20893350.0624
 -23586107.57244 -18378764.40744  20724402.6084   20724402.3724
  -7382621.15944  -5752687.29044  23631807.9704   23631806.9734
 96  4 24  3 28 30.0000000  0  7G 6G26G22G28G21G23G17
 -20446686.73044 -15932472.66644  21025110.1684   21025109.3844
  -9898202.77944  -7712879.58844  22099812.5214   22099811.1784
  -6149739.69244  -4792002.06944  23367455.2984   23367455.1294
  -2394436.579 4  -1865793.424 4  24121355.079    24121355.224
  -7467861.90244  -5819108.62544  23615586.4114   23615586.6294
 -22006743.36044 -17148092.72244  20886715.2784   20886714.8284
 -23602073.10444 -18391205.07544  20721364.3174   20721363.9244
 96  4 24  3 29  0.0000000  0  7G 6G26G22G28G21G23G17
 -20383465.61444 -15883209.47344  21037140.7484   21037140.1744
  -9893822.90044  -7709466.67044  22100645.5654   22100644.3864
  -6144856.62144  -4788197.07844  23368383.9694   23368385.5124
  -2497684.978 4  -1946246.661 4  24101707.900    24101708.808
  -7552901.05044  -5885372.86844  23599402.8324   23599403.3964
 -22041207.45944 -17174947.84844  20880157.0024   20880156.8094
 -23617835.23344 -18403487.25244  20718365.1474   20718364.6924
 96  4 24  3 29 30.0000000  0  7G 6G26G22G28G21G23G17
 -20319800.15044 -15833600.03144  21049255.9354   21049255.1714
  -9888863.73144  -7705602.35644  22101589.2234   22101588.0364
  -6139496.37544  -4784020.24144  23369404.3954   23369403.9734
  -2600854.375 4  -2026638.347 4  24082074.510    24082076.279
  -7637743.93144  -5951484.16144  23583257.0934   23583256.8854
 -22075264.00244 -17201485.39944  20873676.3944   20873676.0724
 -23633405.53444 -18415619.94844  20715402.1724   20715401.8004
 96  4 24  3 30  0.0000000  0  7G 6G26G22G28G21G23G17
 -20255679.57744 -15783635.96244  21061457.5154   21061456.9594
  -9883345.26144  -7701302.22844  22102639.2164   22102638.6204
  -6133632.86844  -4779451.27544  23370520.3744   23370520.9244
  -2703943.192 4  -2106967.274 4  24062457.099    24062459.187
  -7722378.25844  -6017432.96444  23567151.2414   23567152.0544
 -22108910.56344 -17227703.48344  20867273.5844   20867273.2314
 -23648794.84744 -18427611.61744  20712473.7534   20712473.2664
 96  4 24  3 30 30.0000000  0  7G 6G26G22G28G21G23G17
 -20191104.24744 -15733317.53844  21073745.6644   21073745.0724
  -9877260.87844  -7696561.12544  22103797.2564   22103796.3074
  -6127245.13144  -4774473.84644  23371736.0314   23371735.7254
  -2806940.178 4  -2187224.605 4  24042857.921    24042858.235
  -7806803.62244  -6083218.94644  23551085.6594   23551086.0124
 -22142131.57944 -17253589.97544  20860951.8204   20860951.4234
 -23663996.08144 -18439456.73244  20709581.1334   20709580.7134
 96  4 24  3 31  0.0000000  0  7G 6G26G22G28G21G23G17
 -20126077.05844 -15682647.01744  21086120.2374   21086119.7454
  -9870612.78444  -7691380.76644  22105061.9174   22105060.4174
  -6120339.38844  -4769092.73644  23373050.2884   23373050.0224
  -2909839.198 4  -2267405.588 4  24023276.973    24023275.858
  -7891026.40844  -6148847.06244  23535060.2534   23535060.2274
 -22174925.88744 -17279143.96944  20854710.8544   20854710.4524
 -23679016.94144 -18451161.29344  20706722.4824   20706722.1704
 96  4 24  3 31 30.0000000  0  7G 6G26G22G28G21G23G17
 -20060589.73244 -15631617.94744  21098582.0694   21098581.5994
  -9863396.69844  -7685757.80844  22106435.6634   22106434.0544
  -6112921.12444  -4763312.25144  23374462.0204   23374462.0424
  -3012634.027 4  -2347505.397 4  24003715.506    24003714.363
  -7975043.57344  -6214314.95944  23519072.5564   23519072.6654
 -22207305.68944 -17304374.96844  20848549.5414   20848549.4564
 -23693861.04944 -18462728.13044  20703897.8214   20703897.4954
 96  4 24  3 32  0.0000000  0  7G 6G26G22G28G21G23G17
 -19994638.04944 -15580227.03144  21111132.4384   21111131.7414
  -9855583.67244  -7679669.71544  22107922.0544   22107920.6634
  -6104981.16244  -4757125.23744  23375973.4604   23375973.3914
  -3115310.111 4  -2427512.684 4  23984176.569    23984176.220
  -8058842.61144  -6279612.89044  23503124.9014   23503126.4034
 -22239275.52544 -17329286.51444  20842465.7834   20842465.3764
 -23708499.07044 -18474134.37944  20701112.3844   20701112.1044
 96  4 24  3 32 30.0000000  0  7G 6G26G22G28G21G23G17
 -19928262.81344 -15528506.08044  21123763.0124   21123762.4364
  -9847187.69744  -7673127.38244  22109520.1024   22109519.1294
  -6096554.58944  -4750559.10544  23377576.7754   23377576.0514
  -3217887.135 4  -2507442.804 4  23964657.075    23964657.375
  -8142449.60344  -6344761.14044  23487214.7574   23487216.5614
 -22270859.14044 -17353897.11044  20836455.8034   20836455.4774
 -23722942.77044 -18485389.21244  20698363.8774   20698363.3704
 96  4 24  3 33  0.0000000  0  7G 6G26G22G28G21G23G17
 -19861465.15244 -15476455.96244  21136474.1144   21136473.5974
  -9838222.24744  -7666141.27244  22111225.4944   22111224.5794
  -6087661.56944  -4743629.55844  23379268.8454   23379269.0094
  -3320367.176 4  -2587297.357 4  23945156.649    23945156.548
  -8225854.63344  -6409752.05844  23471342.9354   23471343.6074
 -22302072.97644 -17378219.56744  20830515.9054   20830515.4654
 -23737198.66044 -18496497.69644  20695651.1024   20695650.6934
 96  4 24  3 33 30.0000000  0  7G 6G22G26G28G21G23G17
 -19794234.15544 -15424068.17744  21149267.7974   21149267.2164
  -6078287.43544  -4736325.02344  23381052.6234   23381052.0624
  -9828675.94244  -7658702.57044  22113042.5454   22113041.6714
  -3422734.205 4  -2667063.819 4  23925676.604    23925677.118
  -8309046.98444  -6474577.23744  23455513.0014   23455514.1034
 -22332901.54344 -17402241.81344  20824649.4424   20824649.3194
 -23751254.20144 -18507450.06544  20692976.4004   20692976.0884
 96  4 24  3 34  0.0000000  0  7G 6G22G26G28G21G23G17
 -19726587.29244 -15371356.34644  21162140.6014   21162140.3084
  -6068446.29844  -4728656.59744  23382925.7884   23382925.8264
  -9818568.80244  -7650826.86144  22114965.9014   22114965.1834
  -3525005.456 4  -2746755.651 4  23906215.300    23906215.957
  -8392046.40344  -6539252.08444  23439718.8274   23439719.4384
 -22363342.47944 -17425962.00944  20818856.7484   20818856.1984
 -23765122.21844 -18518256.31144  20690337.4204   20690337.0074
 96  4 24  3 34 30.0000000  0  7G 6G22G26G28G21G23G17
 -19658499.70544 -15318301.09244  21175097.3814   21175097.1364
  -6058121.01644  -4720610.92544  23384890.2304   23384890.4934
  -9807897.05244  -7642511.18144  22116996.5304   22116995.0294
  -3627163.450 4  -2826359.245 4  23886775.311    23886775.684
  -8474823.45544  -6603753.64844  23423967.3114   23423966.8074
 -22393366.56144 -17449357.38244  20813143.2584   20813142.9044
 -23778792.07444 -18528908.14644  20687736.1304   20687735.8934
 96  4 24  3 35  0.0000000  0  7G 6G22G26G28G21G23G17
 -19589944.68744 -15264881.60944  21188142.8424   21188142.3804
  -6047300.37944  -4712179.24844  23386948.7344   23386948.9234
  -9796643.63344  -7633742.25744  22119137.6004   22119137.0134
  -3729199.518 4  -2905867.862 4  23867357.825    23867358.846
  -8557368.32344  -6668074.31244  23408258.9634   23408258.4914
 -22422967.00344 -17472422.64644  20807510.5984   20807510.2164
 -23792256.50444 -18539399.91244  20685173.7394   20685173.3014
 96  4 24  3 35 30.0000000  0  7G 6G22G26G28G21G23G17
 -19520937.26144 -15211109.59844  21201275.0054   21201274.3574
  -6035987.85044  -4703364.31644  23389102.0274   23389102.5694
  -9784804.24544  -7624516.73744  22121390.8844   22121389.4994
  -3831122.189 4  -2985288.096 4  23847962.840    23847963.052
  -8639685.55944  -6732217.59744  23392593.7034   23392593.9054
 -22452147.56844 -17495160.73344  20801957.7154   20801957.4084
 -23805510.20144 -18549727.46844  20682651.3794   20682651.1444
 96  4 24  3 36  0.0000000  0  7G 6G22G26G28G21G23G17
 -19451478.48544 -15156985.88344  21214492.3734   21214491.9284
  -6024182.59644  -4694165.41244  23391348.1934   23391348.5054
  -9772377.20244  -7614833.30744  22123755.8894   22123754.7324
  -3932924.143 4  -3064614.250 4  23828589.757    23828590.277
  -8721756.68744  -6796169.09244  23376976.5044   23376976.7864
 -22480903.81444 -17517568.18644  20796485.2984   20796485.0584
 -23818536.77844 -18559878.04344  20680172.8094   20680172.4594
 96  4 24  3 36 30.0000000  0  7G 6G22G26G28G21G23G17
 -19381589.50944 -15102526.95444  21227791.4614   21227790.8854
  -6011897.19044  -4684592.37344  23393687.0554   23393686.2044
  -9759357.26644  -7604687.88444  22126232.9474   22126231.7344
  -4034601.833 4  -3143843.620 4  23809241.275    23809241.865
  -8803586.66544  -6859932.68944  23361405.9344   23361405.3104
 -22509251.81144 -17539657.51944  20791090.8664   20791090.8004
 -23831343.06244 -18569856.95944  20677735.7434   20677735.4154
 96  4 24  3 37  0.0000000  0  7G 6G22G26G28G21G23G17
 -19311276.37544 -15047737.50444  21241171.4944   21241170.9544
  -5999140.41644  -4674652.02544  23396114.1554   23396115.0964
  -9745733.02444  -7594071.57644  22128825.6584   22128824.5064
  -4136146.785 4  -3222969.510 4  23789918.112    23789918.107
  -8885195.74644  -6923524.15644  23345876.0894   23345875.0514
 -22537192.63044 -17561429.57444  20785773.9944   20785773.8874
 -23843931.25544 -18579665.93544  20675340.5444   20675340.1914
 96  4 24  3 37 30.0000000  0  7G 6G22G26G28G21G23G17
 -19240550.04144 -14992626.09044  21254630.5944   21254629.9194
  -5985924.56544  -4664353.94944  23398629.0734   23398628.6874
  -9731526.38344  -7583001.44144  22131528.9134   22131527.7684
  -4237558.891 4  -3301991.908 4  23770619.930    23770620.182
  -8966600.70644  -6986956.59244  23330385.1054   23330383.9564
 -22564736.81844 -17582892.56244  20780532.3234   20780532.2434
 -23856312.59744 -18589313.73144  20672984.3314   20672983.9664
 96  4 24  3 38  0.0000000  0  7G 6G22G26G28G21G23G17
 -19169406.24344 -14937189.36844  21268168.9114   21268168.6154
  -5972238.69644  -4653689.63444  23401233.4914   23401234.4894
  -9716737.36244  -7571477.50944  22134343.3864   22134342.1004
  -4338836.048 4  -3380909.136 4  23751347.548    23751347.600
  -9047816.98944  -7050241.97744  23314929.7314   23314929.2134
 -22591886.59644 -17604048.22144  20775366.0494   20775365.6094
 -23868503.58744 -18598813.19444  20670664.4884   20670664.4404
 96  4 24  3 38 30.0000000  0  7G 6G22G26G28G21G23G17
 -19097828.37844 -14881414.41644  21281789.5464   21281789.0174
  -5958068.16244  -4642647.67144  23403929.6554   23403929.6854
  -9701360.58844  -7559495.58544  22137269.2244   22137268.5754
  -4439972.931 4  -3459717.079 4  23732102.112    23732102.392
  -9128851.26844  -7113385.55144  23299509.4654   23299509.4714
 -22618639.36844 -17624894.52244  20770274.9934   20770274.5254
 -23880502.04544 -18608162.63244  20668381.4024   20668381.1324
 96  4 24  3 39  0.0000000  0  7G 6G22G26G28G21G23G17
 -19025797.66144 -14825286.58944  21295496.5804   21295496.1054
  -5943400.16444  -4631218.06544  23406720.0004   23406720.5694
  -9685398.79944  -7547057.81244  22140307.2704   22140306.1474
  -4540966.551 4  -3538413.363 4  23712883.086    23712883.974
  -9209694.73944  -7176380.44544  23284125.0794   23284125.0504
 -22644980.37844 -17645419.97344  20765262.8104   20765262.2684
 -23892297.17244 -18617353.63544  20666136.5824   20666136.4254
 96  4 24  3 39 30.0000000  0  7G 6G22G26G28G21G23G17
 -18953317.66344 -14768808.67844  21309288.8704   21309288.5394
  -5928226.98844  -4619394.82544  23409607.8514   23409607.7724
  -9668862.76844  -7534172.58544  22143453.7834   22143452.6464
  -4641818.480 4  -3616999.261 4  23693691.272    23693692.377
  -9290324.25044  -7239208.60544  23268782.5314   23268782.8764
 -22670911.72344 -17665626.20544  20760328.1224   20760327.5904
 -23903875.64744 -18626375.81344  20663933.0694   20663933.0504
 96  4 24  3 40  0.0000000  0  7G 6G22G26G28G21G23G17
 -18880402.79344 -14711991.90344  21323163.9254   21323163.4314
  -5912542.58144  -4607173.21044  23412592.4504   23412593.0894
  -9651742.36244  -7520831.99244  22146711.1434   22146710.0504
  -4742526.178 4  -3695472.772 4  23674527.523    23674529.024
  -9370724.24544  -7301857.93344  23253482.0804   23253482.1134
 -22696425.51344 -17685507.07344  20755472.8714   20755472.3634
 -23915232.02644 -18635224.93444  20661772.2224   20661771.8714
 96  4 24  3 40 30.0000000  0  7G 6G22G26G28G21G23G17
 -18807059.38044 -14654841.19644  21337121.0724   21337120.5064
  -5896362.99944  -4594565.74844  23415671.1004   23415671.5444
  -9634042.02244  -7507039.50344  22150079.9244   22150078.3384
  -4843091.202 4  -3773835.115 4  23655391.557    23655392.184
  -9450880.69544  -7364317.48244  23238228.4224   23238227.9994
 -22721527.91544 -17705067.37344  20750696.0504   20750695.6004
 -23926368.11944 -18643902.40444  20659653.2324   20659652.8664
 96  4 24  3 41  0.0000000  0  7G 6G22G26G28G21G23G17
 -18733292.88144 -14597360.82044  21351158.4054   21351157.8054
  -5879692.07344  -4581575.41344  23418843.8714   23418845.1734
  -9615754.20644  -7492789.23444  22153560.0404   22153559.0564
  -4943504.134 4  -3852078.905 4  23636283.694    23636283.289
  -9530772.59844  -7426570.89944  23223025.0704   23223026.0434
 -22746219.29944 -17724307.40244  20745997.3704   20745997.2274
 -23937288.44444 -18652411.73944  20657575.1024   20657574.7784
 96  4 24  3 41 30.0000000  0  7G 6G22G26G28G21G23G17
 -18659097.62444 -14539546.34544  21365277.3224   21365276.5194
  -5862537.70844  -4568208.38144  23422108.1064   23422108.0684
  -9596880.80244  -7478082.68144  22157151.4384   22157150.1474
  -5043761.785 4  -3930201.714 4  23617204.729    23617205.020
  -9610399.62144  -7488617.89244  23207872.7964   23207874.1734
 -22770509.74144 -17743235.00744  20741374.9314   20741374.5684
 -23948005.01744 -18660762.30844  20655535.8534   20655535.3614
 96  4 24  3 42  0.0000000  0  7G 6G22G26G28G21G23G17
 -18584473.14544 -14481397.41744  21379477.5904   21379477.1434
  -5844905.37844  -4554468.92544  23425463.0214   23425463.9834
  -9577411.41644  -7462911.70644  22160856.5684   22160855.2704
  -5143866.089 4  -4008205.065 4  23598155.505    23598155.804
  -9689767.99144  -7550463.37944  23192770.6224   23192770.8034
 -22794402.35944 -17761852.61944  20736828.2814   20736827.9514
 -23958549.02144 -18668978.41044  20653529.3744   20653528.9534
 96  4 24  3 42 30.0000000  0  7G 6G22G26G28G21G23G17
 -18509418.92344 -14422913.61844  21393760.5254   21393760.1134
  -5826816.69144  -4540373.84744  23428904.9744   23428906.4604
  -9557363.66544  -7447290.06944  22164670.9394   22164670.3984
  -5243823.296 4  -4086093.776 4  23579134.824    23579134.493
  -9768892.30144  -7612118.66144  23177713.4594   23177712.9474
 -22817906.94544 -17780167.86644  20732355.4474   20732355.0644
 -23968929.23844 -18677066.88244  20651554.0424   20651553.6594
 96  4 24  3 43  0.0000000  0  7G 6G22G26G28G23G17G21
 -18433949.68444 -14364106.42344  21408121.3614   21408120.6574
  -5808290.89544  -4525938.16644  23432430.7554   23432432.6004
  -9536756.23344  -7431232.31544  22168592.8484   22168591.4724
  -5343635.903 4  -4163869.796 4  23560140.416    23560140.553
 -22841022.60244 -17798180.05344  20727956.9544   20727956.5054
 -23979142.14444 -18685024.98144  20649610.6824   20649610.1564
  -9847796.43644  -7673602.38044  23162698.1664   23162698.8984
 96  4 24  3 43 30.0000000  0  7G 6G22G26G28G23G17G21
 -18358081.86444 -14304988.64344  21422558.4414   21422558.1264
  -5789336.90544  -4511168.83344  23436038.3304   23436038.9574
  -9515593.09344  -7414741.53744  22172619.6144   22172618.5234
  -5443309.190 4  -4241537.257 4  23541173.197    23541173.839
 -22863751.90944 -17815891.18644  20723631.6064   20723631.0354
 -23989189.26944 -18692853.90344  20647699.0384   20647698.3994
  -9926497.58544  -7734927.93444  23147721.1374   23147722.6094
 96  4 24  3 44  0.0000000  0  7G 6G22G26G28G23G17G21
 -18281839.70044 -14245579.16944  21437066.9584   21437066.2844
  -5769962.55744  -4496071.93944  23439725.2684   23439725.1244
  -9493891.90044  -7397831.50644  22176749.6024   22176748.6464
  -5542843.182 4  -4319096.191 4  23522231.227    23522233.511
 -22886087.36344 -17833295.42444  20719381.3334   20719380.9384
 -23999062.07944 -18700546.98944  20645820.0944   20645819.5724
 -10004998.45144  -7796097.40844  23132783.2674   23132784.5164
 96  4 24  3 44 30.0000000  0  7G 6G22G26G28G23G17G21
 -18205218.56944 -14185874.38844  21451647.4174   21451646.9664
  -5750168.77944  -4480648.23044  23443491.5874   23443492.1904
  -9471655.59344  -7380504.50544  22180980.8034   22180979.4014
  -5642223.209 4  -4396535.147 4  23503320.880    23503321.562
 -22908021.96244 -17850387.30744  20715207.2734   20715206.8304
 -24008722.19844 -18708074.34444  20643981.7304   20643981.2144
 -10083302.12344  -7857113.23744  23117882.5394   23117882.9394
 96  4 24  3 45  0.0000000  0  7G 6G22G26G28G23G17G21
 -18128213.83744 -14125870.70744  21466301.1224   21466300.6304
  -5729949.37044  -4464892.84744  23447338.4264   23447339.0744
  -9448871.00244  -7362750.26744  22185316.4334   22185315.2484
  -5741445.582 4  -4473851.226 4  23484439.462    23484440.376
 -22929554.01744 -17867165.52044  20711109.7844   20711109.3554
 -24018175.63344 -18715440.65344  20642182.9194   20642182.4694
 -10161406.56044  -7917973.82044  23103019.8354   23103020.4344
 96  4 24  3 45 30.0000000  0  7G 6G22G26G28G23G17G21
 -18050818.57744 -14065562.71944  21481029.2634   21481028.6334
  -5709290.46544  -4448795.01344  23451270.4544   23451270.7564
  -9425530.15644  -7344562.58144  22189758.4934   22189756.9114
  -5840511.599 4  -4551045.474 4  23465587.785    23465588.694
 -22950691.36844 -17883636.17444  20707087.8674   20707087.4324
 -24027436.47244 -18722656.88844  20640420.2824   20640419.7704
 -10239307.59344  -7978675.90744  23088196.0474   23088196.2874
 96  4 24  3 46  0.0000000  0  7G 6G22G26G28G23G17G21
 -17972978.48044 -14004908.10344  21495841.1384   21495840.5094
  -5688144.55144  -4432317.69344  23455293.9624   23455294.4654
  -9401589.11844  -7325907.22244  22194313.9784   22194312.0574
  -5939374.278 4  -4628081.291 4  23446774.202    23446775.671
 -22971400.56744 -17899773.20444  20703146.6314   20703146.2944
 -24036453.15044 -18729682.86444  20638704.5854   20638704.1844
 -10316957.63444  -8039182.40944  23073419.3154   23073419.5314
 96  4 24  3 46 30.0000000  0  7G 6G22G26G28G23G17G21
 -17894702.53644 -13943913.85944  21510736.9414   21510736.3944
  -5666516.25244  -4415464.46244  23459409.9974   23459410.7384
  -9377036.48944  -7306775.29444  22198985.9694   22198984.6294
  -6038043.837 4  -4704966.604 4  23427997.936    23427999.559
 -22991706.96044 -17915596.35944  20699282.3134   20699281.8804
 -24045232.46744 -18736523.88744  20637034.1844   20637033.7234
 -10394366.22444  -8099500.77144  23058689.5984   23058690.0224
 96  4 24  3 47  0.0000000  0  7G 6G22G26G28G23G17G21
 -17815993.62444 -13882582.24244  21525714.7984   21525714.6674
  -5644385.64144  -4398219.83744  23463621.3684   23463623.1854
  -9351863.66244  -7287160.09644  22203776.6074   22203775.0204
  -6136516.131 4  -4781698.234 4  23409259.166    23409261.253
 -23011612.89744 -17931107.46644  20695494.2964   20695494.0124
 -24053778.13944 -18743182.84744  20635407.9274   20635407.2884
 -10471520.03444  -8159620.60544  23044007.4164   23044008.0294
 96  4 24  3 47 30.0000000  0  7G 6G22G26G23G17G28G21
 -17736875.36444 -13820931.65044  21540770.4344   21540769.7544
  -5621766.24744  -4380594.34744  23467925.8974   23467925.3464
  -9326093.32144  -7267079.30344  22208679.9494   22208678.4044
 -23031149.09444 -17946330.46644  20691776.6624   20691776.3594
 -24062075.74944 -18749648.51044  20633828.6384   20633828.1804
  -6234800.082 4  -4858283.083 4  23390556.979    23390558.481
 -10548422.02644  -8219544.21344  23029373.2454   23029373.7744
 96  4 24  3 48  0.0000000  0  7G 6G22G26G23G17G28G21
 -17657367.54944 -13758977.52144  21555900.2994   21555899.7384
  -5598683.67644  -4362607.91144  23472318.5104   23472319.7534
  -9299745.02244  -7246548.15044  22213694.3914   22213693.0274
 -23050325.20244 -17961272.87544  20688128.0154   20688127.4914
 -24070131.29944 -18755925.55644  20632295.7124   20632295.2984
  -6332908.386 4  -4934731.048 4  23371888.143    23371888.613
 -10625073.44944  -8279272.56944  23014787.2764   23014787.5484
 96  4 24  3 48 30.0000000  0  7G 6G22G26G28G23G17G21
 -17577475.20244 -13696723.75444  21571103.1284   21571102.6554
  -5575152.34244  -4344271.81544  23476796.7064   23476796.3474
  -9272824.71444  -7225571.28644  22218816.9504   22218815.9194
  -6430845.514 4  -5011045.637 4  23353250.519    23353251.502
 -23069131.49644 -17975927.12044  20684549.2684   20684548.7654
 -24077966.04644 -18762030.54844  20630804.8984   20630804.3804
 -10701481.83844  -8338811.55744  23000247.3114   23000246.9304
 96  4 24  3 49  0.0000000  0  7G 6G22G26G28G23G17G21
 -17497169.35844 -13634147.77144  21586384.9684   21586384.4644
  -5551156.96744  -4325574.12044  23481362.5944   23481361.9964
  -9245325.77544  -7204143.53244  22224049.5034   22224048.2254
  -6528590.855 4  -5087210.807 4  23334650.334    23334650.529
 -23087538.79444 -17990270.45844  20681046.3464   20681045.8834
 -24085567.26644 -18767953.57344  20629358.5124   20629358.0864
 -10777633.18944  -8398150.25344  22985756.2234   22985756.7014
 96  4 24  3 49 30.0000000  0  7G 6G22G26G28G23G17G21
 -17416452.86644 -13571251.80744  21601744.8024   21601743.9434
  -5526721.99844  -4306533.87844  23486012.6654   23486011.3524
  -9217262.96244  -7182276.39844  22229389.9364   22229388.6764
  -6626150.299 4  -5163231.091 4  23316085.791    23316085.333
 -23105539.09844 -18004296.66044  20677621.0684   20677620.5814
 -24092952.23544 -18773708.09344  20627953.1334   20627952.9314
 -10853529.67444  -8457290.34944  22971312.8794   22971313.4684
 96  4 24  3 50  0.0000000  0  7G 6G22G26G23G17G28G21
 -17335331.69544 -13508040.50844  21617181.9034   21617181.4584
  -5501857.65244  -4287159.05644  23490744.0664   23490743.2994
  -9188638.50044  -7159971.61244  22234836.3944   22234835.7244
 -23123116.22144 -18017993.11144  20674276.1114   20674275.4784
 -24100167.28944 -18779330.21144  20626579.9954   20626579.7594
  -6723532.351 4  -5239113.165 4  23297554.304    23297554.967
 -10929190.32744  -8516246.68444  22956915.5674   22956916.2604
 96  4 24  3 50 30.0000000  0  7G 6G22G26G23G17G28G21
 -17253823.18244 -13444527.38344  21632691.7404   21632691.4164
  -5476567.82144  -4267452.70044  23495556.4834   23495555.4554
  -9159449.67344  -7137227.06244  22240391.8724   22240390.4764
 -23140287.51044 -18031373.32744  20671008.7364   20671008.1834
 -24107221.51644 -18784827.01244  20625237.6154   20625237.6334
  -6820735.476 4  -5314855.845 4  23279056.749    23279057.623
 -11004643.21544  -8575041.12644  22942556.8784   22942557.3904
 96  4 24  3 51  0.0000000  0  7G 6G22G26G23G17G28G21
 -17171928.10244 -13380713.04744  21648275.8694   21648275.6134
  -5450842.04144  -4247406.64244  23500451.4514   23500451.0514
  -9129694.59044  -7114041.28044  22246053.3994   22246052.3694
 -23157052.56144 -18044436.99344  20667818.1904   20667817.8474
 -24114098.23844 -18790185.49644  20623929.0304   20623928.7354
  -6917742.467 4  -5390445.669 4  23260597.477    23260597.810
 -11079871.82644  -8633660.80344  22928240.9844   22928241.8404
 96  4 24  3 51 30.0000000  0  7G 6G22G26G23G17G28G21
 -17089645.75644 -13316596.94044  21663933.9194   21663933.3624
  -5424683.86644  -4227023.63244  23505429.4794   23505428.9474
  -9099364.80644  -7090407.67944  22251825.4154   22251823.6074
 -23173410.29144 -18057183.26544  20664705.4874   20664705.0474
 -24120797.48544 -18795405.68644  20622654.3774   20622654.0104
  -7014543.906 4  -5465875.310 4  23242176.243    23242177.165
 -11154870.64044  -8692101.41544  22913969.8204   22913971.2474
 96  4 24  3 52  0.0000000  0  7G 6G22G26G23G17G28G21
 -17006975.68744 -13252178.71444  21679665.7464   21679665.3864
  -5398089.45244  -4206300.70944  23510490.2834   23510490.6164
  -9068460.88244  -7066326.68544  22257706.1264   22257705.5194
 -23189373.37544 -18069622.02144  20661667.5814   20661667.1384
 -24127306.86344 -18800477.92444  20621415.7154   20621415.3014
  -7111134.940 4  -5541141.008 4  23223795.371    23223796.837
 -11229655.54544  -8750375.35044  22899739.2574   22899739.6824
 96  4 24  3 52 30.0000000  0  7G 6G22G26G23G17G28G21
 -16923936.09144 -13187472.54544  21695467.5304   21695467.4224
  -5371072.38244  -4185248.42944  23515631.4784   23515631.6534
  -9037007.22744  -7041817.34644  22263690.9724   22263690.5414
 -23204969.99044 -18081775.21444  20658699.7894   20658699.1564
 -24133602.87044 -18805383.90044  20620217.2674   20620216.9554
  -7207527.652 4  -5616252.187 4  23205452.165    23205453.106
 -11304234.09944  -8808488.48844  22885546.8204   22885547.8914
 96  4 24  3 53  0.0000000  0  7G 6G22G26G23G17G28G21
 -16840509.84944 -13122465.10644  21711343.0334   21711342.6964
  -5343629.47244  -4163864.35344  23520854.1584   23520853.5584
  -9005011.25844  -7016885.41944  22269780.1864   22269778.6114
 -23220178.24844 -18093625.79644  20655805.6884   20655805.2514
 -24139668.21244 -18810110.13944  20619063.2424   20619063.0124
  -7303718.402 4  -5691205.989 4  23187147.546    23187148.689
 -11378576.45544  -8866417.57944  22871400.0734   22871399.9304
 96  4 24  3 53 30.0000000  0  7G 6G22G23G17G26G28G21
 -16756697.51844 -13057156.80644  21727292.2734   21727292.0904
  -5315751.59644  -4142141.33544  23526158.9334   23526158.4024
 -23234993.17544 -18105169.88244  20652986.6884   20652986.1564
 -24145491.34144 -18814647.63844  20617955.4734   20617955.1704
  -8972469.19044  -6991527.95144  22275972.2484   22275971.4354
  -7399704.042 4  -5765999.963 4  23168883.750    23168883.737
 -11452680.35644  -8924160.85944  22857298.4844   22857298.3294
 96  4 24  3 54  0.0000000  0  7G 6G22G23G17G26G28G21
 -16672502.20344 -12991550.08144  21743313.4424   21743313.0364
  -5287418.02844  -4120063.21844  23531551.0624   23531551.3234
 -23249409.83244 -18116403.62744  20650243.0864   20650242.5064
 -24151043.31744 -18818973.85244  20616898.6104   20616898.2674
  -8939364.45444  -6965732.05544  22282271.9614   22282270.9524
  -7495466.364 4  -5840619.911 4  23150660.407    23150660.270
 -11526525.46544  -8981702.48844  22843246.6714   22843246.4864
 96  4 24  3 54 30.0000000  0  7G 6G22G23G17G26G28G21
 -16587930.59344 -12925650.14044  21759407.1654   21759406.2154
  -5258632.57044  -4097632.99144  23537027.8984   23537027.7584
 -23263425.82744 -18127325.17144  20647576.1634   20647575.5904
 -24156324.57244 -18823089.11344  20615893.5684   20615893.0794
  -8905689.11144  -6939491.52144  22288680.2374   22288679.7784
  -7590995.659 4  -5915058.293 4  23132480.989    23132481.586
 -11600082.64744  -9039019.75644  22829248.4174   22829248.9594
 96  4 24  3 55  0.0000000  0  7G 6G22G23G17G26G28G21
 -16502981.78944 -12859456.28244  21775572.1394   21775571.8564
  -5229405.39144  -4074858.55344  23542589.6494   23542590.0504
 -23277053.26444 -18137943.94344  20644982.7674   20644982.2354
 -24161371.71544 -18827021.94944  20614933.0774   20614932.5944
  -8871448.58944  -6912810.59844  22295196.1494   22295195.3134
  -7686295.135 4  -5989317.627 4  23114346.196    23114347.395
 -11673372.60644  -9096128.79544  22815302.5004   22815302.7014
 96  4 24  3 55 30.0000000  0  7G 6G22G23G17G26G28G21
 -16417650.62944 -12792964.48544  21791810.5444   21791810.1164
  -5199734.99444  -4051738.77144  23548234.8984   23548234.6074
 -23290308.75444 -18148272.88744  20642460.2284   20642459.8794
 -24166186.71944 -18830773.89744  20614017.1854   20614016.6794
  -8836634.79844  -6885682.96544  22301820.5294   22301819.3664
  -7781354.960 4  -6063390.185 4  23096257.090    23096258.001
 -11746400.97344  -9153034.00444  22801405.2014   22801405.1574
 96  4 24  3 56  0.0000000  0  7G 6G22G23G17G26G28G21
 -16331931.70044 -12726170.52444  21808122.1264   21808122.0274
  -5169633.42244  -4028283.00244  23553963.5604   23553963.5524
 -23303196.70244 -18158315.43644  20640008.0024   20640007.4454
 -24170783.31144 -18834355.65444  20613142.4354   20613142.0444
  -8801254.78844  -6858114.13244  22308553.5574   22308551.6414
  -7876176.023 4  -6137276.672 4  23078213.059    23078213.875
 -11819172.24644  -9209738.86544  22787558.1034   22787557.6234
 96  4 24  3 56 30.0000000  0  7G 6G22G23G17G26G28G21
 -16245833.04644 -12659080.68344  21824506.0344   21824505.6644
  -5139121.46344  -4004507.44844  23559769.5254   23559768.8794
 -23315718.67744 -18168072.80744  20637624.8364   20637624.4944
 -24175188.60844 -18837788.35044  20612304.1314   20612303.6774
  -8765332.59444  -6830122.80944  22315389.5414   22315388.3574
  -7970774.124 4  -6210989.441 4  23060210.994    23060212.692
 -11891700.76244  -9266254.56844  22773756.1414   22773756.5854
 96  4 24  3 57  0.0000000  0  7G 6G23G17G22G26G28G21
 -16159350.66944 -12591691.82844  21840962.8924   21840962.4824
 -23327863.24744 -18177536.10144  20635314.0194   20635313.4684
 -24179402.83344 -18841072.16044  20611502.0664   20611501.6734
  -5108186.73144  -3980402.44544  23565657.0844   23565656.7134
  -8728862.45344  -6801704.52544  22322329.7384   22322328.9534
  -8065148.458 4  -6284527.866 4  23042252.039    23042253.867
 -11964000.66544  -9322592.13644  22759997.0014   22759997.5254
 96  4 24  3 57 30.0000000  0  7G 6G23G17G22G26G28G21
 -16072489.70944 -12524007.97744  21857492.6694   21857491.5794
 -23339610.71044 -18186689.95744  20633078.3304   20633077.8884
 -24183401.72744 -18844188.18244  20610740.8774   20610740.5874
  -5076823.44744  -3955963.54144  23571625.4134   23571624.9464
  -8691832.79744  -6772850.23644  22329376.1454   22329374.9164
  -8159285.125 4  -6357881.081 4  23024339.144    23024339.585
 -12036038.86344  -9378725.78444  22746289.0144   22746289.1874
 96  4 24  3 58  0.0000000  0  7G 6G23G17G22G26G28G21
 -15985276.48844 -12456049.63144  21874088.5904   21874087.8254
 -23350957.09544 -18195531.28844  20630919.4304   20630919.0404
 -24187196.76244 -18847145.35244  20610018.7084   20610018.3564
  -5045037.73844  -3931195.47644  23577673.4444   23577674.1394
  -8654254.79044  -6743568.68344  22336526.7504   22336525.9444
  -8253194.497 4  -6431057.176 4  23006468.504    23006469.065
 -12107825.64244  -9434663.51344  22732628.7094   22732629.5344
 96  4 24  3 58 30.0000000  0  7G 6G22G23G17G26G28G21
 -15897721.77244 -12387825.19244  21890749.8814   21890749.6334
  -5012846.51144  -3906111.41144  23583798.8374   23583798.9964
 -23361923.17244 -18204076.27644  20628832.4484   20628831.9184
 -24190794.69044 -18849948.93244  20609334.2284   20609334.0024
  -8616132.95744  -6713863.36144  22343781.1604   22343779.7054
  -8346884.787 4  -6504062.587 4  22988639.426    22988640.649
 -12179370.52344  -9490412.74144  22719013.6534   22719014.1194
 96  4 24  3 59  0.0000000  0  7G 6G23G17G22G26G28G21
 -15809810.02044 -12319322.54444  21907478.9234   21907478.4644
 -23372521.18744 -18212334.46144  20626815.6894   20626815.2564
 -24194192.55644 -18852596.62244  20608687.6124   20608687.2804
  -4980248.97744  -3880710.73444  23590002.4574   23590001.2134
  -8577455.27444  -6683724.90444  22351140.7194   22351140.1154
  -8440344.580 4  -6576888.391 4  22970855.009    22970856.108
 -12250661.19144  -9545963.89244  22705447.6934   22705448.2454
 96  4 24  3 59 30.0000000  0  7G 6G23G17G22G26G28G21
 -15721509.54944 -12250516.98844  21924281.8784   21924282.0224
 -23382729.89444 -18220289.29344  20624873.1354   20624872.5944
 -24197355.89444 -18855061.55844  20608085.5414   20608085.2654
  -4947217.21344  -3854971.68644  23596287.5954   23596288.5254
  -8538194.54144  -6653132.12544  22358612.5694   22358610.8004
  -8533538.798 4  -6649507.232 4  22953120.927    22953122.035
 -12321663.61744  -9601290.43344  22691936.7254   22691936.8694
 96  4 24  4  0  0.0000000  0  7G 6G23G17G22G26G28G21
 -15632842.65144 -12181425.91544  21941154.5714   21941153.9904
 -23392588.79044 -18227971.53844  20622996.8324   20622996.4494
 -24200317.25544 -18857369.11544  20607522.0434   20607521.7774
  -4913789.39344  -3828924.03644  23602649.1974   23602649.2684
  -8498381.57144  -6622109.02744  22366188.4004   22366187.9304
  -8626493.971 4  -6721939.798 4  22935432.102    22935433.011
 -12392423.49844  -9656427.98944  22678471.1044   22678471.2464
 96  4 24  4  0 30.0000000  0  7G 6G23G17G22G26G28G21
 -15543855.26944 -12112085.10944  21958088.6844   21958088.0124
 -23402153.36444 -18235424.45444  20621176.9724   20621176.5534
 -24203123.77744 -18859556.01944  20606987.9364   20606987.6474
  -4880022.91344  -3802612.50244  23609074.6224   23609076.0084
  -8458060.46944  -6590689.98844  22373861.1894   22373860.2014
  -8719253.703 4  -6794220.098 4  22917779.782    22917781.332
 -12462991.71044  -9711416.18044  22665042.3204   22665042.9444
 96  4 24  4  1  0.0000000  0  7G 6G23G17G22G26G28G21
 -15454542.07444 -12042490.43344  21975084.2214   21975083.9784
 -23411382.94344 -18242616.33044  20619420.6384   20619419.9974
 -24205734.31644 -18861590.20744  20606491.4674   20606491.0634
  -4845885.19544  -3776011.68744  23615571.1124   23615572.4324
  -8417216.12944  -6558863.23144  22381633.3204   22381632.4314
  -8811791.797 4  -6866327.692 4  22900170.739    22900172.066
 -12533355.00244  -9766244.69444  22651652.4854   22651652.8344
 96  4 24  4  1 30.0000000  0  7G 6G23G17G22G26G28G21
 -15364872.08744 -11972617.73244  21992147.4614   21992147.2454
 -23420210.91744 -18249495.26544  20617740.5794   20617740.1964
 -24208088.14444 -18863424.35744  20606043.4584   20606043.0154
  -4811335.66944  -3749089.99344  23622146.0544   23622146.6934
  -8375816.54944  -6526603.80944  22389511.8864   22389510.4354
  -8904059.152 4  -6938224.320 4  22882612.969    22882614.531
 -12603477.66944  -9820885.70544  22638308.6804   22638308.5044
 96  4 24  4  2  0.0000000  0  7G 6G23G17G22G26G28G21
 -15274876.05044 -11902490.96644  22009272.9344   22009272.4844
 -23428654.11844 -18256074.37844  20616133.9044   20616133.3134
 -24210199.99144 -18865069.95344  20605641.5474   20605641.3274
  -4776414.52644  -3721878.71644  23628790.8604   23628791.9194
  -8333885.05344  -6493929.91244  22397490.9084   22397489.7484
  -8996074.776 4  -7009924.781 4  22865102.986    22865103.896
 -12673373.06144  -9875349.63344  22625008.1774   22625008.3084
 96  4 24  4  2 30.0000000  0  7G 6G23G17G22G26G28G21
 -15184569.91044 -11832122.55844  22026458.2164   22026457.5294
 -23436704.41444 -18262347.32844  20614601.9994   20614601.5864
 -24212064.95244 -18866523.16944  20605286.6794   20605286.5354
  -4741122.02844  -3694378.06944  23635506.7864   23635507.6384
  -8291429.93544  -6460848.01244  22405569.9984   22405568.4264
  -9087840.698 4  -7081430.671 4  22847640.390    22847641.550
 -12743033.98644  -9929630.84944  22611752.0254   22611751.5324
 96  4 24  4  3  0.0000000  0  7G 6G23G17G22G26G28G21
 -15093932.52444 -11761496.03444  22043706.0884   22043705.6274
 -23444348.19944 -18268303.52344  20613147.5384   20613147.0944
 -24213668.19844 -18867772.45244  20604981.7034   20604981.4034
  -4705436.23744  -3666570.96244  23642298.3244   23642298.6964
  -8248440.39044  -6427349.67344  22413750.6494   22413749.3084
  -9179336.530 4  -7152726.103 4  22830229.165    22830230.284
 -12812430.65344  -9983706.15544  22598546.5244   22598546.2374
 96  4 24  4  3 30.0000000  0  7G23G 6G17G22G26G28G21
 -23451589.38044 -18273945.99544  20611769.5834   20611768.9334
 -15002947.87344 -11690598.92144  22061019.3644   22061019.7634
 -24215019.58644 -18868825.48444  20604724.4964   20604724.1684
  -4669346.65844  -3638449.23044  23649164.7634   23649165.2094
  -8204893.78444  -6393417.24044  22422037.5424   22422036.4864
  -9270548.259 4  -7223800.160 4  22812872.301    22812873.597
 -12881532.61744 -10037551.81744  22585396.8924   22585396.7454
 96  4 24  4  4  0.0000000  0  7G23G 6G17G22G26G28G21
 -23458437.20644 -18279281.95944  20610466.2334   20610465.7874
 -14911590.57944 -11619411.43244  22078404.2774   22078403.9004
 -24216113.11944 -18869677.58544  20604516.1674   20604515.7544
  -4632828.65244  -3609993.64544  23656113.8304   23656113.6334
  -8160770.37544  -6359035.36444  22430433.7694   22430432.5594
  -9361463.488 4  -7294643.186 4  22795571.916    22795572.911
 -12950323.37844 -10091154.98844  22572306.1384   22572306.1014
 96  4 24  4  4 30.0000000  0  7G23G 6G17G22G26G28G21
 -23464903.62644 -18284320.72444  20609235.8394   20609235.2494
 -14819844.02544 -11547920.61844  22095862.9214   22095863.1434
 -24216962.80544 -18870339.67644  20604354.5284   20604354.1134
  -4595858.94344  -3581186.07344  23663149.6724   23663147.7244
  -8116074.40844  -6324207.34144  22438939.2854   22438938.3494
  -9452078.204 4  -7365252.034 4  22778328.443    22778329.383
 -13018809.21644 -10144520.55244  22559274.0234   22559273.6334
 96  4 24  4  5  0.0000000  0  7G23G 6G17G22G26G28G21
 -23471019.09844 -18289086.01844  20608072.1264   20608071.7594
 -14727718.72544 -11476134.69144  22113393.9084   22113393.7894
 -24217597.92344 -18870834.57444  20604233.7064   20604233.3394
  -4558459.60144  -3552043.72244  23670265.8214   23670263.4184
  -8070828.91544  -6288951.11744  22447549.0424   22447547.8844
  -9542408.792 4  -7435639.494 4  22761138.601    22761139.949
 -13087010.83744 -10197664.66044  22546295.3774   22546295.6984
 96  4 24  4  5 30.0000000  0  7G23G 6G17G22G26G28G21
 -23476786.70344 -18293580.25244  20606974.4394   20606974.1484
 -14635224.69344 -11404061.43444  22130995.0664   22130994.8774
 -24218025.37044 -18871167.64744  20604152.1874   20604151.8464
  -4520654.63944  -3522585.30744  23677459.3074   23677460.1184
  -8025052.55544  -6253281.22044  22456260.0734   22456258.9844
  -9632460.321 4  -7505809.505 4  22744002.378    22744003.387
 -13154952.44344 -10250606.15244  22533366.0594   22533366.2134
 96  4 24  4  6  0.0000000  0  7G23G 6G17G22G26G28G21
 -23482214.38244 -18297809.60744  20605941.6674   20605941.0754
 -14542386.69644 -11331720.15844  22148661.6084   22148661.8934
 -24218254.39144 -18871346.10744  20604108.8604   20604108.4754
  -4482478.10044  -3492837.35944  23684724.7724   23684725.1864
  -7978783.53844  -6217227.43944  22465064.9174   22465063.0874
  -9722248.054 4  -7575773.951 4  22726916.957    22726917.453
 -13222673.67244 -10303375.92244  22520479.3274   22520479.6964
 96  4 24  4  6 30.0000000  0  7G23G 6G17G22G26G28G21
 -23487291.95144 -18301766.14844  20604975.3014   20604974.9384
 -14449240.32144 -11259138.58144  22166387.1864   22166387.0484
 -24218290.42444 -18871374.18444  20604101.7684   20604101.3124
  -4443952.54544  -3462817.44744  23692056.1514   23692055.3244
  -7932031.68144  -6180797.42944  22473961.2714   22473959.9524
  -9811773.852 4  -7645534.302 4  22709880.751    22709881.607
 -13290184.53644 -10355981.76344  22507632.6754   22507632.6294
 96  4 24  4  7  0.0000000  0  7G23G 6G17G22G26G28G21
 -23491993.87544 -18305429.98344  20604080.6854   20604080.2744
 -14355794.32444 -11186323.52644  22184169.0174   22184168.3024
 -24218110.84844 -18871234.25444  20604136.3534   20604135.8204
  -4405087.05044  -3432532.65744  23699451.5324   23699451.2964
  -7884785.94144  -6143982.55444  22482951.8344   22482950.4094
  -9901023.413 4  -7715079.399 4  22692897.223    22692897.937
 -13357473.77244 -10408414.91744  22494828.1724   22494827.8064
 96  4 24  4  7 30.0000000  0  7G23G 6G17G22G26G28G21
 -23496325.21744 -18308805.04944  20603256.5334   20603256.0914
 -14262071.46244 -11113292.73444  22202003.9984   22202003.1344
 -24217726.43344 -18870934.71044  20604209.2224   20604208.7864
  -4365892.59044  -3401991.52044  23706910.4274   23706910.1614
  -7837048.55444  -6106784.59844  22492036.1824   22492034.8404
  -9990010.459 4  -7784419.955 4  22675963.642    22675964.846
 -13424564.94044 -10460693.72544  22482060.8414   22482061.0814
 96  4 24  4  8  0.0000000  0  7G23G 6G17G22G26G28G21
 -23500276.61344 -18311884.05344  20602504.4254   20602504.0874
 -14168052.92844 -11040031.55344  22219895.1404   22219894.7174
 -24217115.97844 -18870459.03344  20604325.6324   20604325.3094
  -4326347.46344  -3371177.12744  23714435.8134   23714435.7034
  -7788791.68144  -6069181.85744  22501218.8434   22501216.6034
 -10078719.486 4  -7853543.865 4  22659082.971    22659083.705
 -13491431.52144 -10512797.54144  22469336.9234   22469336.7234
 96  4 24  4  8 30.0000000  0  7G23G 6G17G22G26G28G21
 -23503826.78444 -18314650.41444  20601829.0494   20601828.4734
 -14073686.66844 -10966499.41444  22237852.1434   22237851.2944
 -24216240.37544 -18869776.74244  20604492.0284   20604491.7274
  -4286400.91344  -3340049.94944  23722037.6934   23722037.6364
  -7739962.98544  -6031133.52544  22510511.0794   22510509.8094
 -10167108.504 4  -7922418.409 4  22642262.763    22642263.415
 -13558009.67244 -10564676.59744  22456667.6494   22456667.2284
 96  4 24  4  9  0.0000000  0  7G23G 6G17G22G26G28G21
 -23506991.72944 -18317116.60044  20601226.8554   20601226.4644
 -13978950.68144 -10892679.17744  22255879.6824   22255879.3004
 -24215089.57544 -18868880.01244  20604711.1434   20604710.8034
  -4246033.75144  -3308595.02644  23729719.4524   23729719.3504
  -7690553.01244  -5992632.25544  22519913.3894   22519912.3494
 -10255168.821 4  -7991036.823 4  22625505.017    22625505.859
 -13624285.98144 -10616320.46044  22444055.5124   22444055.0534
 96  4 24  4  9 30.0000000  0  7G23G 6G17G22G26G28G21
 -23509803.65744 -18319307.70844  20600691.6824   20600691.1284
 -13883858.35044 -10818581.27544  22273975.1244   22273974.4084
 -24213670.49444 -18867774.22944  20604981.0674   20604980.9314
  -4205256.99044  -3276820.92644  23737478.4494   23737479.0514
  -7640577.41244  -5953690.22944  22529423.7054   22529421.7954
 -10342915.099 4  -8059410.534 4  22608807.092    22608808.368
 -13690279.54544 -10667743.99844  22431497.0144   22431497.4224
 96  4 24  4 10  0.0000000  0  7G23G 6G17G22G26G28G21
 -23512301.64544 -18321254.18744  20600216.3374   20600215.6034
 -13788430.94644 -10744222.25844  22292134.6274   22292134.1654
 -24211994.65744 -18866468.37744  20605299.9174   20605299.6434
  -4164089.48544  -3244742.34744  23745312.5024   23745313.0424
  -7590071.22344  -5914334.76444  22539034.2744   22539033.7764
 -10430361.594 4  -8127550.636 4  22592166.461    22592168.117
 -13755995.91144 -10718951.53844  22418991.1904   22418991.6164
 96  4 24  4 10 30.0000000  0  7G23G 6G17G22G26G28G21
 -23514483.74744 -18322954.51844  20599801.2264   20599800.3454
 -13692686.53844 -10669616.24144  22310354.2704   22310354.1104
 -24210066.82844 -18864966.16544  20605666.8464   20605666.5214
  -4122542.66744  -3212368.20944  23753218.0014   23753219.3604
  -7539049.27644  -5874577.40244  22548743.4254   22548741.8004
 -10517507.561 4  -8195456.559 4  22575583.453    22575584.672
 -13821443.11044 -10769949.34044  22406537.3074   22406537.4524
 96  4 24  4 11  0.0000000  0  7G23G 6G17G22G26G28G21
 -23516364.23244 -18324419.82544  20599443.2174   20599442.6324
 -13596667.18744 -10594795.97644  22328625.7494   22328624.7594
 -24207920.60144 -18863293.76544  20606075.1204   20606074.7224
  -4080669.02944  -3179739.42244  23761185.9404   23761187.1514
  -7487555.90044  -5834452.69744  22558542.5544   22558541.0844
 -10604383.421 4  -8263152.000 4  22559051.553    22559052.811
 -13886672.26444 -10820777.23944  22394125.0514   22394124.7974
 96  4 24  4 11 30.0000000  0  7G23G 6G17G22G26G28G21
 -23517934.28444 -18325643.23944  20599144.4054   20599143.9534
 -13500378.39444 -10519765.76344  22346949.6574   22346949.2824
 -24205572.16744 -18861463.80844  20606521.9004   20606521.6534
  -4038493.53744  -3146875.43944  23769211.9244   23769212.7224
  -7435609.48444  -5793974.97844  22568427.2104   22568426.7364
 -10690996.674 4  -8330642.833 4  22542569.811    22542571.121
 -13951692.87744 -10871442.62544  22381751.8214   22381751.8034
 96  4 24  4 12  0.0000000  0  7G23G 6G17G22G26G28G21
 -23519120.31644 -18326567.41144  20598918.6054   20598917.9424
 -13403753.42844 -10444473.59644  22365336.0854   22365335.5954
 -24202985.42144 -18859448.15944  20607014.2774   20607013.6214
  -3995961.81344  -3113733.83644  23777305.8724   23777306.7694
  -7383147.05344  -5753095.17244  22578410.7944   22578408.9934
 -10777283.131 4  -8397879.011 4  22526149.970    22526151.064
 -14016430.68344 -10921887.65444  22369432.5314   22369432.9514
 96  4 24  4 12 30.0000000  0  7G23G 6G17G22G26G28G21
 -23519920.61744 -18327191.01644  20598766.5104   20598765.6914
 -13306808.91144 -10368932.41944  22383783.8084   22383782.3914
 -24200187.11644 -18857267.65944  20607546.7654   20607546.3244
  -3953100.79644  -3080335.64444  23785462.7004   23785461.3944
  -7330182.36544  -5711823.99144  22588489.8254   22588488.4174
 -10863255.511 4  -8464870.448 4  22509789.738    22509791.018
 -14080905.28544 -10972127.58644  22357163.5454   22357163.1784
 96  4 24  4 13  0.0000000  0  7G23G 6G17G22G26G28G21
 -23520352.58244 -18327527.60744  20598684.4344   20598683.6714
 -13209559.64544 -10293153.78144  22402290.1384   22402289.2024
 -24197194.01244 -18854935.36344  20608116.3834   20608115.9364
  -3909909.01444  -3046679.71944  23793682.1014   23793681.6144
  -7276715.27344  -5670161.32244  22598663.8824   22598662.2734
 -10948921.127 4  -8531622.852 4  22493488.044    22493489.040
 -14145123.28644 -11022167.56844  22344943.2324   22344943.8204
 96  4 24  4 13 30.0000000  0  7G23G 6G17G22G26G28G21
 -23520418.64544 -18327579.07544  20598671.6764   20598670.8514
 -13112003.77544 -10217136.22444  22420854.6194   22420853.5984
 -24193989.77944 -18852438.55644  20608726.2044   20608725.6194
  -3866365.88444  -3012749.98244  23801967.5504   23801966.8414
  -7222729.00844  -5628094.10944  22608937.4264   22608936.7774
 -11034270.727 4  -8598129.017 4  22477246.201    22477247.659
 -14209072.52344 -11071998.12644  22332774.1384   22332773.5094
 96  4 24  4 14  0.0000000  0  7G23G 6G17G22G26G28G21
 -23520115.73244 -18327343.03644  20598729.2814   20598728.7674
 -13014149.57944 -10140886.22444  22439475.4504   22439473.9814
 -24190550.62944 -18849758.69544  20609380.5124   20609380.1554
  -3822463.16244  -2978540.07844  23810320.6544   23810321.1124
  -7168204.01544  -5585607.10344  22619312.8124   22619311.6664
 -11119290.232 4  -8664377.963 4  22461067.443    22461069.210
 -14272748.37644 -11121615.65244  22320656.9134   22320657.2134
 96  4 24  4 14 30.0000000  0  7G23G 6G17G22G26G28G21
 -23519470.26344 -18326840.06544  20598852.1704   20598851.4104
 -12916025.63944 -10064426.02244  22458147.7564   22458147.5584
 -24186872.41144 -18846892.54844  20610080.5324   20610079.7654
  -3778212.14944  -2944058.75344  23818742.1324   23818741.3434
  -7113161.41744  -5542716.78044  22629787.2784   22629786.1834
 -11203988.793 4  -8730376.814 4  22444950.085    22444951.537
 -14336170.29744 -11171035.32044  22308588.0984   22308588.0544
 96  4 24  4 15  0.0000000  0  7G23G 6G17G22G26G28G21
 -23518492.53344 -18326078.18544  20599038.1514   20599037.5694
 -12817626.93144  -9987751.72544  22476872.6104   22476872.2084
 -24182939.03944 -18843827.57844  20610829.1514   20610828.7724
  -3733613.20244  -2909306.35844  23827228.2264   23827229.3894
  -7057604.56744  -5499425.72744  22640359.4924   22640358.0524
 -11288361.112 4  -8796121.438 4  22428894.826    22428896.276
 -14399348.64144 -11220265.17944  22296565.4014   22296565.8104
 96  4 24  4 15 30.0000000  0  7G23G 6G17G22G26G28G21
 -23517181.04144 -18325056.24144  20599287.6214   20599287.1424
 -12718949.00044  -9910859.85044  22495650.5554   22495649.8124
 -24178744.33944 -18840558.98044  20611627.3914   20611626.5794
  -3688682.03744  -2874295.07844  23835779.5344   23835780.0704
  -7001550.77444  -5455747.45044  22651025.8104   22651023.6914
 -11372403.449 4  -8861608.949 4  22412902.186    22412903.459
 -14462290.52744 -11269310.79144  22284588.1224   22284587.7084
 96  4 24  4 16  0.0000000  0  7G23G 6G17G22G26G28G21
 -23515543.09344 -18323779.91144  20599599.3894   20599598.6174
 -12619990.28244  -9833749.17844  22514481.8544   22514482.1534
 -24174311.31044 -18837104.67044  20612470.7674   20612470.3144
  -3643426.83244  -2839031.26644  23844392.0844   23844391.5044
  -6945014.15044  -5411692.94144  22661784.5484   22661783.8794
 -11456113.415 4  -8926837.469 4  22396972.814    22396973.719
 -14524992.93344 -11318169.79944  22272656.3774   22272656.0684
 96  4 24  4 16 30.0000000  0  7G23G 6G17G22G26G28G21
 -23513571.00244 -18322243.20444  20599974.6284   20599974.2304
 -12520727.09344  -9756401.25144  22533370.8364   22533370.9494
 -24169639.93044 -18833464.63544  20613359.7704   20613359.3734
  -3597833.49044  -2803503.98544  23853067.5834   23853066.6794
  -6888004.22844  -5367269.62244  22672633.0464   22672632.3294
 -11539479.614 4  -8991798.127 4  22381108.948    22381109.419
 -14587448.06844 -11366836.12844  22260771.3464   22260770.8214
 96  4 24  4 17  0.0000000  0  8G23G 6G17G22G26G28G 1G21
 -23511242.57144 -18320428.83944  20600417.7304   20600417.2214
 -12421133.65044  -9678795.98644  22552322.8584   22552322.6904
 -24164701.28844 -18829616.34444  20614299.4664   20614299.1114
  -3551888.13644  -2767702.43644  23861811.3514   23861810.4994
  -6830499.11744  -5322460.46044  22683576.0384   22683574.5704
 -11622481.776 4  -9056475.122 4  22365314.053    22365314.648
        -0.95954        -0.99254  25219053.2854
 -14649637.51944 -11415295.42344  22248937.2454   22248937.0014
 96  4 24  4 17 30.0000000  0  8G23G 6G17G22G26G28G 1G21
 -23508576.88244 -18318351.66944  20600925.2434   20600924.1694
 -12321241.26444  -9600957.78444  22571332.0224   22571330.9524
 -24159527.54244 -18825584.84944  20615284.1564   20615283.6884
  -3505607.08744  -2731639.28344  23870617.5064   23870617.9564
  -6772522.38144  -5277283.78244  22694608.3234   22694607.6124
 -11705144.666 4  -9120887.745 4  22349583.694    22349584.699
   -110171.77344    -85848.33444  25198089.3374   25198089.0024
 -14711564.62744 -11463550.30144  22237152.4154   22237152.3864
 96  4 24  4 18  0.0000000  0  8G23G 6G17G22G26G28G 1G21
 -23505589.29644 -18316023.66944  20601493.4004   20601492.8914
 -12221072.65444  -9522904.32044  22590393.0574   22590391.9014
 -24154130.06344 -18821379.01544  20616311.1034   20616310.5374
  -3459003.96144  -2695325.15444  23879486.0054   23879486.4544
  -6714086.35644  -5231749.22044  22705728.5284   22705727.4104
 -11787483.830 4  -9185048.121 4  22333914.825    22333916.313
   -220409.30044   -171747.58244  25177112.0194
 -14773235.90944 -11511605.82744  22225417.2534   22225416.9644
 96  4 24  4 18 30.0000000  0  8G23G 6G17G22G26G28G 1G21
 -23502273.71144 -18313440.09244  20602124.4474   20602123.8714
 -12120631.26244  -9444638.31744  22609506.7354   22609505.5864
 -24148475.10244 -18816972.54744  20617387.3314   20617386.7344
  -3412074.89744  -2658757.04644  23888415.7434   23888414.7184
  -6655183.11044  -5185850.56644  22716937.7554   22716936.7094
 -11869486.752 4  -9248946.487 4  22318310.454    22318311.656
   -330700.42344                  25156123.2164
 -14834644.93744 -11559457.01044  22213731.2594   22213731.4304
 96  4 24  4 19  0.0000000  0  8G23G 6G17G22G26G28G 1G21
 -23498643.23044 -18310611.14044  20602815.2584   20602814.6994
 -12019945.78444  -9366182.11344  22628666.4644   22628666.0474
 -24142583.86744 -18812381.97244  20618508.4734   20618508.0744
  -3364842.39144  -2621952.50444  23897403.4444   23897404.1294
  -6595821.58644  -5139594.83144  22728233.9294   22728233.1514
 -11951166.636 4  -9312593.130 4  22302767.103    22302768.260
   -441062.91944   -343685.33744  25135121.6384
 -14895803.33144 -11607112.88844  22202093.5454   22202093.5144
 96  4 24  4 19 30.0000000  0  8G23G 6G17G22G26G28G 1G21
 -23494643.15744 -18307494.19744  20603576.4714   20603575.9934
 -11918979.25844  -9287506.91744  22647880.0214   22647879.4394
 -24136432.57844 -18807588.75944  20619679.0544   20619678.6014
  -3317269.07944  -2584882.40844  23906456.1224   23906458.3044
  -6535954.13244  -5092944.88244  22739626.3644   22739624.5744
 -12032475.972 4  -9375951.050 4  22287294.500    22287295.353
   -551470.59744                  25114111.9394
 -14956666.35944 -11654538.60644  22190511.5294   22190511.2184
 96  4 24  4 20  0.0000000  0  8G23G 6G17G22G26G28G 1G21
 -23490301.24944 -18304110.88944  20604402.7584   20604402.2074
 -11817759.65344  -9208634.49644  22667141.1274   22667140.9324
 -24130048.02644 -18802613.77844  20620893.9634   20620893.5114
  -3269386.29044  -2547571.14444  23915568.7814   23915568.6814
  -6475594.72044  -5045911.58144  22751112.2914   22751110.5024
 -12113430.786 4  -9439032.717 4  22271889.171    22271890.163
   -661965.35244   -515816.92944  25093085.7784
 -15017269.87444 -11701762.11644  22178978.7844   22178978.1554
 96  4 24  4 20 30.0000000  0  8G23G 6G17G22G26G28G 1G21
 -23485618.85944 -18300462.26544  20605293.9434   20605293.1454
 -11716279.50644  -9129559.06944  22686451.9334   22686450.8234
 -24123437.76144 -18797462.91544  20622151.7964   20622151.2904
  -3221192.74544  -2510017.73044  23924740.3884   23924739.8094
  -6414740.40644  -4998492.62844  22762692.6554   22762691.3064
 -12194026.350 4  -9501834.446 4  22256552.657    22256553.828
   -772545.09044   -601982.86844  25072044.3604
 -15077610.95144 -11748781.12744  22167496.2154   22167496.2554
 96  4 24  4 21  0.0000000  0  8G23G 6G17G22G26G28G 1G21
 -23480567.06644 -18296525.79644  20606255.0464   20606254.5404
 -11614512.75144  -9050260.31444  22705817.8374   22705817.2074
 -24116592.83644 -18792129.19944  20623454.1454   20623453.9114
  -3172669.72144  -2472207.58144  23933974.1554   23933974.7064
  -6353374.85344  -4950675.31144  22774369.7134   22774368.1084
 -12274244.326 4  -9564341.951 4  22241287.696    22241288.802
   -883190.59044   -688200.11544  25050988.7414
 -15137664.32344 -11795575.94444  22156068.6334   22156068.1864
 96  4 24  4 21 30.0000000  0  8G23G 6G17G22G26G28G 1G21
 -23475173.58844 -18292323.08444  20607281.3004   20607280.8164
 -11512470.17344  -8970746.62144  22725235.3434   22725235.0274
 -24109510.17444 -18786610.23144  20624801.8944   20624801.6394
  -3123828.71944  -2434149.66744  23943268.2944   23943268.1124
  -6291510.44344  -4902469.28544  22786141.5834   22786140.6904
 -12354096.269 4  -9626564.242 4  22226092.248    22226093.400
   -993906.11444   -774471.87944  25029918.1614
 -15197448.16544 -11842160.74744  22144692.2794   22144692.0184
 96  4 24  4 22  0.0000000  0  8G23G 6G17G22G26G28G 1G21
 -23469460.35844 -18287871.21044  20608368.7614   20608368.0134
 -11410160.43144  -8891024.75344  22744705.1894   22744705.1624
 -24102184.34244 -18780901.77944  20626196.1014   20626195.7644
  -3074681.15144  -2395852.87144  23952620.2124   23952620.7044
  -6229180.26544  -4853900.31244  22798003.6474   22798002.0274
 -12433593.542 4  -9688510.161 4  22210964.453    22210965.538
  -1104688.23144                  25008837.2864
 -15256972.48544 -11888543.31744  22133365.0954   22133364.7874
 96  4 24  4 22 30.0000000  0  8G23G 6G17G22G26G28G 1G21
 -23463409.74444 -18283156.44344  20609519.9004   20609519.6044
 -11307557.78744  -8811074.65044  22764229.1434   22764229.3794
 -24094582.05244 -18774977.91144  20627642.6374   20627642.3614
  -3025220.28644  -2357311.96344  23962031.5194   23962030.8364
  -6166374.37144  -4804960.66844  22809955.0604   22809953.5844
 -12512716.765 4  -9750164.627 4  22195907.273    22195908.835
  -1215492.14944   -947136.15844  24987754.3404
 -15316212.70144 -11934704.51244  22122092.0244   22122091.5614
 96  4 24  4 23  0.0000000  0  8G23G 6G17G22G26G28G 1G21
 -23457047.90144 -18278199.16444  20610730.7494   20610730.2434
 -11204703.52044  -8730928.49844  22783802.7104   22783802.6724
 -24086700.89944 -18768836.74244  20629142.2894   20629142.0964
  -2975474.31544  -2318548.88044  23971498.0994   23971497.9344
  -6103111.11544  -4755664.62244  22821993.7444   22821992.0454
 -12591480.691 4  -9811539.125 4  22180919.237    22180920.411
  -1326333.52144  -1033506.05444  24966660.5574   24966665.3164
 -15375208.50644 -11980675.25744  22110865.5444   22110865.1714
 96  4 24  4 23 30.0000000  0  8G23G 6G17G22G26G28G 1G21
 -23450364.54344 -18272991.34744  20612002.3834   20612001.8774
 -11101595.86244  -8650584.89844  22803422.6904   22803422.5304
 -24078522.51744 -18762463.95844  20630698.7174   20630698.6714
  -2925439.69344  -2279560.85944  23981019.7014   23981018.4284
  -6039365.81344  -4705992.94644  22834123.5694   22834122.7104
 -12669864.186 4  -9872617.160 4  22166003.722    22166004.465
  -1437187.56544  -1119885.83044  24945564.8694
 -15433956.83144 -12026453.15744  22099685.8364   22099686.0244
 96  4 24  4 24  0.0000000  0  7G23G 6G17G22G26G28G21
 -23443354.06744 -18267528.63544  20613336.3504   20613335.7374
 -10998245.21744  -8570051.94644  22823089.4464   22823088.6544
 -24070050.36044 -18755862.25944  20632310.8884   20632310.4874
  -2875126.05944  -2240355.42444  23990594.3114   23990592.3294
  -5975141.82544  -4655948.28144  22846345.0784   22846344.6924
 -12747861.976 4  -9933394.646 4  22151160.732    22151162.214
 -15492454.01944 -12072035.36944  22088554.4624   22088554.1944
 96  4 24  4 24 30.0000000  0  8G23G 6G17G22G26G28G 1G21
 -23436059.35444 -18261844.44244  20614724.7334   20614724.0584
 -10894692.25044  -8489361.34544  22842795.0684   22842793.9994
 -24061318.94444 -18749058.54544  20633972.0894   20633971.7334
  -2824556.37844  -2200950.46544  24000217.4844   24000217.6974
  -5910465.30344  -4605551.00844  22858652.4114   22858650.8134
 -12825501.292 4  -9993892.820 4  22136386.368    22136388.173
        -0.37954                  24903356.8904
 -15550731.84144 -12117446.64344  22077464.5614   22077464.5364
 96  4 24  4 25  0.0000000  0  7G23G 6G17G22G26G28G21
 -23428455.29244 -18255919.19844  20616171.6334   20616170.9624
 -10790915.76944  -8408496.58044  22862542.8714   22862542.5854
 -24052324.92144 -18742050.20544  20635683.8934   20635683.5714
  -2773699.76544  -2161321.94244  24009894.5494   24009895.2494
  -5845329.76844  -4554796.05244  22871047.2864   22871046.8314
 -12902759.278 4 -10054093.859 4  22121685.105    22121686.418
 -15608761.46544 -12162664.51544  22066422.0094   22066422.3224
 96  4 24  4 25 30.0000000  0  7G23G 6G17G22G26G28G21
 -23420519.30544 -18249735.31244  20617681.7144   20617681.0064
 -10686869.69544  -8327421.73344  22882342.5534   22882342.6334
 -24043085.62744 -18734850.74244  20637442.2284   20637441.9554
  -2722534.20744  -2121452.70044  24019631.1184   24019632.8984
  -5779730.55144  -4503679.77744  22883530.8994   22883528.5754
 -12979620.370 4 -10113985.616 4  22107058.956    22107059.900
 -15666499.40944 -12207655.09944  22055434.8564   22055434.4894
 96  4 24  4 26  0.0000000  0  7G 6G23G17G22G26G28G21
 -10582515.52844  -8246106.80744  22902200.2504   22902200.1484
 -23412229.61744 -18243275.81544  20619259.2524   20619258.6174
 -24033585.39644 -18727447.95344  20639249.7474   20639249.6544
  -2671024.80144  -2081315.51044  24029432.9504   24029434.1204
  -5713665.13844  -4452200.23644  22896102.5754   22896102.0064
 -13056059.395 4 -10173548.489 4  22092513.294    22092513.945
 -15723906.12544 -12252387.59244  22044510.5804   22044510.0624
 96  4 24  4 26 30.0000000  0  7G23G 6G17G22G26G28G21
 -23403641.92944 -18236584.11144  20620893.5374   20620892.8314
 -10477916.80244  -8164601.33544  22922104.2374   22922104.6854
 -24023901.66044 -18719902.17644  20641092.6774   20641092.2564
  -2619235.74244  -2040960.43344  24039287.9624   24039287.9504
  -5647206.76544  -4400414.49644  22908748.9764   22908747.8454
 -13132141.818 4 -10232833.490 4  22078034.870    22078035.969
 -15781048.60644 -12296914.18444  22033636.5284   22033636.3594
 96  4 24  4 27  0.0000000  0  8G23G 6G17G22G26G28G 1G21
 -23394715.87344 -18229628.74444  20622591.9304   20622591.3264
 -10373054.86844  -8082890.74044  22942059.2274   22942058.5914
 -24014022.64744 -18712204.24044  20642972.2614   20642971.9864
  -2567160.38444  -2000382.24444  24049198.0934   24049198.0984
  -5580314.53344  -4348290.67944  22921478.0054   22921476.5084
 -13207840.301 4 -10291819.322 4  22063629.926    22063631.083
        -0.39254         0.47054  24797715.2344
 -15837908.72544 -12341220.75844  22022816.5324   22022816.5634
 96  4 24  4 27 30.0000000  0  8G23G 6G17G22G26G28G 1G21
 -23385444.31844 -18222404.15844  20624356.3514   20624355.8624
 -10267927.87944  -8000973.61744  22962064.4664   22962064.7494
 -24003920.06044 -18704332.09144  20644895.2074   20644894.6484
  -2514783.58044  -1959569.11044  24059165.8204   24059164.6654
  -5512959.42344  -4295806.16944  22934295.1484   22934293.9864
 -13283132.266 4 -10350488.381 4  22049302.321    22049303.628
   -111124.08044    -86589.35744  24776568.3434
 -15894480.73144 -12385302.82744  22012051.1674   22012051.3974
 96  4 24  4 28  0.0000000  0  8G23G 6G17G22G26G28G 1G21
 -23375853.02844 -18214930.42744  20626181.5234   20626181.0404
 -10162585.76344  -7918888.86044  22982109.5274   22982109.1394
 -23993584.10444 -18696278.10344  20646862.0954   20646861.6694
  -2462124.32144  -1918535.93244  24069186.1014   24069185.3614
  -5445155.24144  -4242971.73944  22947198.0934   22947196.3484
 -13358029.692 4 -10408850.004 4  22035049.997    22035051.305
   -222263.34444   -173191.33444  24755419.2084
 -15950800.38844 -12429188.25344  22001333.8654   22001333.6254
 96  4 24  4 28 30.0000000  0  8G23G 6G17G22G26G28G 1G21
 -23365950.31044 -18207214.02544  20628065.9494   20628065.4064
 -10057037.61844  -7836643.55744  23002195.3064   23002195.3394
 -23982998.24244 -18688029.37844  20648876.4114   20648876.1974
  -2409185.35844  -1877284.82644  24079259.5174   24079259.7404
  -5376882.09244  -4189771.89344  22960189.9684   22960188.9634
 -13432525.154 4 -10466898.416 4  22020873.854    22020875.142
   -333412.75444   -259801.25944  24734269.7364
 -16006873.39544 -12472881.49144  21990663.3514   21990663.4794
 96  4 24  4 29  0.0000000  0  8G23G 6G17G22G26G28G 1G21
 -23355757.25244 -18199271.38444  20630005.6254   20630005.0734
  -9951285.15444  -7754239.04544  23022319.3744   23022318.5904
 -23972153.21944 -18679578.70544  20650940.0174   20650939.7804
  -2355970.56644  -1835818.74944  24089386.2204   24089385.7954
  -5308145.49644  -4136210.91744  22973269.9154   22973269.2984
 -13506619.511 4 -10524634.271 4  22006774.219    22006775.352
   -444580.95144   -346425.75644  24713114.2134   24713114.3494
 -16062708.53344 -12516389.37644  21980038.1264   21980038.0174
 96  4 24  4 29 30.0000000  0  8G23G 6G17G22G26G28G 1G21
 -23345276.91244 -18191104.88444  20631999.9414   20631999.2484
  -9845309.44744  -7671660.57844  23042485.4584   23042485.2184
 -23961016.27244 -18670900.56344  20653059.0994   20653058.8254
  -2302469.78544  -1794129.86544  24099567.0904   24099565.8634
  -5238953.33444  -4082294.96444  22986437.4664   22986435.0604
 -13580300.423 4 -10582047.971 4  21992753.039    21992754.340
   -555766.27244   -433063.65244  24691955.4894   24691951.1714
 -16118294.10644 -12559702.78444  21969460.2344   21969460.2854
 96  4 24  4 30  0.0000000  0  8G23G 6G17G22G26G28G 1G21
 -23334528.43744 -18182729.44744  20634045.0904   20634044.5324
  -9739141.32344  -7588932.20644  23062688.9994   23062689.0734
 -23949605.37644 -18662008.95244  20655230.9044   20655230.4194
  -2248724.50344  -1752250.41844  24109795.3644   24109794.7924
  -5169338.81644  -4028049.90344  22999684.6084   22999683.8594
 -13653591.939 4 -10639158.247 4  21978806.251    21978807.329
   -666995.94344   -519736.08244  24670789.2274   24670791.7174
 -16173653.45244 -12602839.92044  21958925.5204   21958925.7704
 96  4 24  4 30 30.0000000  0  8G23G 6G17G22G26G28G 1G21
 -23323514.92244 -18174147.49044  20636140.8494   20636140.4304
  -9632783.03944  -7506055.63444  23082928.5894   23082928.2424
 -23937936.78244 -18652916.54444  20657451.2764   20657450.8954
  -2194759.69344  -1710199.92244  24120063.9224   24120062.2464
  -5099319.88144  -3973489.70344  23013008.4444   23013007.4654
 -13726501.665 4 -10695971.017 4  21964932.033    21964933.382
   -778283.34344   -606453.48444  24649612.1584   24649610.2724
 -16228784.44944 -12645799.11944  21948435.0934   21948434.6744
 96  4 24  4 31  0.0000000  0  8G23G 6G17G22G26G28G 1G21
 -23312188.79244 -18165321.93544  20638296.3744   20638295.8894
  -9526207.38844  -7423009.69244  23103209.3634   23103209.8904
 -23925976.47644 -18643596.82744  20659727.1634   20659726.7024
  -2140557.26644  -1667964.26944  24130376.4714   24130378.2904
  -5028882.33744  -3918603.29744  23026412.5714   23026410.7404
 -13798994.244 4 -10752458.736 4  21951137.084    21951138.303
   -889576.50544   -693175.36344  24628433.9104   24628436.6014
 -16283646.70644 -12688548.91544  21937995.0194   21937994.6934
 96  4 24  4 31 30.0000000  0  8G23G 6G17G22G26G28G 1G21
 -23300544.36144 -18156248.35444  20640512.1474   20640511.6094
  -9419428.89944  -7339805.68344  23123528.7234   23123528.1744
 -23913728.83444 -18634053.21344  20662057.8054   20662057.2734
  -2086128.56944  -1625552.33144  24140735.2734   24140735.7794
  -4958028.87344  -3863392.79444  23039896.2974   23039894.7324
 -13871066.761 4 -10808619.135 4  21937422.241    21937423.315
  -1000861.98144   -779891.30344  24607256.7054   24607256.2974
 -16338222.90544 -12731075.80644  21927609.5334   21927609.4914
 96  4 24  4 32  0.0000000  0  8G23G 6G17G22G26G28G 1G21
 -23288583.17144 -18146927.94644  20642788.5054   20642787.8694
  -9312463.89744  -7256456.34244  23143883.3254   23143882.7454
 -23901218.99744 -18624305.28344  20664438.2494   20664437.8314
  -2031466.17944  -1582958.27344  24151136.7094   24151137.4734
  -4886767.23544  -3807864.23144  23053455.7784   23053454.4574
 -13942725.968 4 -10864457.470 4  21923786.167    21923786.999
  -1112134.56044   -866597.20744  24586082.6444   24586079.3574
 -16392518.60944 -12773384.13044  21917277.4184   21917277.3114
 96  4 24  4 32 30.0000000  0  8G23G 6G17G22G26G28G 1G21
 -23276282.76144 -18137343.20844  20645129.1964   20645128.7264
  -9205268.27444  -7172927.31844  23164282.0484   23164281.6084
 -23888438.08644 -18614346.13144  20666870.6274   20666870.2484
  -1976538.15744  -1540157.24344  24161589.4974   24161591.3754
  -4815066.69644  -3751993.68944  23067100.1304   23067098.8504
 -14013950.844 4 -10919957.372 4  21910232.484    21910233.339
  -1223373.78744   -953277.05244  24564913.9214   24564918.4794
 -16446512.93644 -12815457.61244  21907002.5974   21907002.3914
 96  4 24  4 33  0.0000000  0  8G23G 6G17G22G26G28G 1G21
 -23263648.57644 -18127498.38944  20647533.0754   20647532.7094
  -9097829.61244  -7089208.91444  23184726.2224   23184725.9244
 -23875384.30544 -18604174.34544  20669354.6354   20669354.2744
  -1921333.28944  -1497140.48644  24172095.1404   24172092.8964
  -4742913.51344  -3695770.42344  23080830.4244   23080828.5214
 -14084740.112 4 -10975117.833 4  21896761.632    21896762.591
  -1334579.61944  -1039930.92844  24543751.6284   24543750.2284
 -16500219.13144 -12857306.57844  21896782.6454   21896782.8964
 96  4 24  4 33 30.0000000  0  8G23G 6G17G22G26G28G 1G21
 -23250691.89144 -18117402.26744  20649998.8274   20649998.2774
  -8990137.54944  -7005293.06144  23205220.2954   23205219.6454
 -23862071.07944 -18593800.39844  20671888.0464   20671887.8304
  -1865837.93244  -1453897.34844  24182654.5124   24182656.0374
  -4670296.09044  -3639185.43044  23094648.6364   23094646.7894
 -14155093.950 4 -11029938.998 4  21883373.328    21883374.713
  -1445769.20244  -1126572.15544  24522592.8164   24522592.7254
 -16553646.65344 -12898938.39344  21886615.9674   21886616.0704
 96  4 24  4 34  0.0000000  0  8G23G 6G17G22G26G28G 1G21
 -23237422.81444 -18107062.72244  20652523.7814   20652523.2524
  -8882186.01644  -6921174.99144  23225762.3034   23225761.9164
 -23848498.54844 -18583224.39744  20674470.9164   20674470.5144
  -1810058.07144  -1410432.53944  24193269.6354   24193270.5574
  -4597217.84744  -3582241.36544  23108555.3894   23108554.9294
 -14225016.175 4 -11084423.847 4  21870067.553    21870068.934
  -1556949.61944  -1213206.20444  24501436.4984   24501438.8764
 -16606811.73944 -12940365.71044  21876498.6804   21876498.6904
 96  4 24  4 34 30.0000000  0  8G23G 6G17G22G26G28G 1G21
 -23223859.06244 -18096493.56444  20655104.9724   20655104.4524
  -8773983.45644  -6836861.31644  23246353.1774   23246353.0144
 -23834656.54544 -18572438.41844  20677104.7914   20677104.5404
  -1754025.14544  -1366770.54444  24203932.9704   24203933.9814
  -4523696.15444  -3524951.73644  23122546.2464   23122544.8174
 -14294503.410 4 -11138569.741 4  21856844.674    21856846.073
  -1668125.76844  -1299836.93544  24480281.7564   24480281.4534
 -16659719.79644 -12981592.74844  21866431.2774   21866430.9964
 96  4 24  4 35  0.0000000  0  8G23G 6G17G22G26G28G 1G21
 -23210037.33944 -18085723.38844  20657735.1914   20657734.6194
  -8665584.99244  -6752394.98644  23266980.7454   23266979.6794
 -23820562.28644 -18561455.87744  20679786.7004   20679786.5614
  -1697771.44244  -1322936.48344  24214638.3604   24214637.9654
  -4449776.34544  -3467351.88644  23136612.4344   23136611.8894
 -14363571.018 4 -11192388.657 4  21843701.996    21843703.218
  -1779316.19244  -1386478.83244  24459122.4124   24459122.8624
 -16712396.80044 -13022639.74644  21856406.8564   21856406.6394
 96  4 24  4 35 30.0000000  0  8G23G 6G17G22G26G28G 1G21
 -23195958.42344 -18074752.80044  20660413.9554   20660413.4824
  -8557025.74944  -6667803.37244  23287638.8424   23287638.5874
 -23806223.58044 -18550282.86144  20682515.4244   20682514.8754
  -1641309.51844  -1278940.16544  24225381.8764   24225381.1184
  -4375486.71844  -3409463.86344  23150749.7204   23150748.0074
 -14432220.153 4 -11245881.478 4  21830638.545    21830639.440
  -1890521.99844  -1473132.67944  24437959.8064   24437960.2024
 -16764841.60944 -13063505.82144  21846426.9844   21846426.7174
 96  4 24  4 36  0.0000000  0  8G23G 6G17G22G26G28G 1G21
 -23181609.84444 -18063572.08644  20663144.6624   20663144.1994
  -8448318.55744  -6583096.49244  23308324.5404   23308324.7744
 -23791618.01844 -18538901.90344  20685294.6184   20685294.4584
  -1584641.98144  -1234783.64944  24236164.7684   24236165.1914
  -4300837.08444  -3351295.31344  23164954.6304   23164953.9084
 -14500438.648 4 -11299038.736 4  21817656.866    21817657.834
  -2001727.58244  -1559786.35744  24416797.6244   24416798.7074
 -16817047.96344 -13104186.08144  21836492.3944   21836492.3124
 96  4 24  4 36 30.0000000  0  8G23G 6G17G22G26G28G 1G21
 -23166987.60244 -18052178.13044  20665927.1854   20665926.7634
  -8339475.70944  -6498283.90344  23329037.0864   23329036.8454
 -23776756.39044 -18527321.41044  20688122.7874   20688122.4104
  -1527775.82144  -1190472.38444  24246987.1344   24246988.6154
  -4225830.31444  -3292848.47244  23179227.6454   23179226.8494
 -14568227.691 4 -11351861.374 4  21804756.961    21804758.142
  -2112935.40444  -1646441.77444  24395633.7754   24395635.2424
 -16869024.86044 -13144687.55244  21826601.2264   21826600.8124
 96  4 24  4 37  0.0000000  0  8G23G 6G17G22G26G28G 1G21
 -23152042.74044 -18040532.78244  20668771.0794   20668770.6914
  -8230462.30044  -6413338.42544  23349781.4044   23349779.8554
 -23761616.21344 -18515523.86744  20691004.1074   20691003.7214
  -1470670.63944  -1145974.87144  24257852.0834   24257854.3054
  -4150420.99044  -3234087.95444  23193578.0564   23193577.0234
 -14635559.533 4 -11404327.746 4  21791944.030    21791945.310
  -2224113.48144  -1733074.03944  24374479.1864   24374479.4594
 -16920738.07544 -13184983.55044  21816760.5994   21816760.2454
 96  4 24  4 37 30.0000000  0  8G23G 6G17G22G26G28G 1G21
 -23136767.45944 -18028629.96344  20671677.9454   20671677.3764
  -8121260.92444  -6328246.47044  23370562.0174   23370561.7614
 -23746188.53844 -18503502.30344  20693939.6334   20693939.1474
  -1413333.37444  -1101296.48044  24268763.0444   24268764.7674
  -4074597.97944  -3175005.08344  23208006.2294   23208004.9074
 -14702435.317 4 -11456438.730 4  21779217.955    21779219.123
  -2335262.02444  -1819683.29144  24353329.3904   24353329.9104
 -16972181.56944 -13225069.38344  21806971.2584   21806970.8154
 96  4 24  4 38  0.0000000  0  8G23G 6G17G22G26G28G 1G21
 -23121176.04144 -18016480.80544  20674644.7724   20674644.2184
  -8011858.21844  -6242997.59944  23391380.3924   23391380.4764
 -23730481.24744 -18491262.84944  20696928.6344   20696928.3904
  -1355780.50044  -1056450.13444  24279716.0684   24279717.9224
  -3998352.58344  -3115593.09144  23222514.8114   23222513.9254
 -14768859.341 4 -11508197.712 4  21766577.794    21766579.082
  -2446384.51544  -1906272.19744  24332183.0284   24332182.4354
 -17023364.94244 -13264952.52544  21797231.2464   21797231.1764
 96  4 24  4 38 30.0000000  0  8G23G 6G17G22G26G28G 1G21
 -23105270.75344 -18004087.07444  20677671.3824   20677670.9604
  -7902234.12444  -6157576.22144  23412241.2494   23412241.2134
 -23714498.41344 -18478808.68844  20699970.0964   20699969.7714
  -1298006.20344  -1011431.19844  24290709.8714   24290709.1654
  -3921674.62944  -3055844.04444  23237106.8014   23237105.3564
 -14834827.122 4 -11559601.183 4  21754024.539    21754025.648
  -2557481.39944  -1992841.20144  24311042.0944   24311043.3324
 -17074282.84844 -13304628.81244  21787542.1024   21787541.7714
 96  4 24  4 39  0.0000000  0  8G23G 6G17G22G26G28G 1G21
 -23089058.68944 -17991454.30044  20680756.6654   20680755.9624
  -7792393.19744  -6071985.88644  23433143.6364   23433143.0184
 -23698235.75544 -18466136.46844  20703064.9394   20703064.4994
  -1240001.29944   -966232.58544  24301748.8204   24301748.2134
  -3844572.00444  -2995764.07744  23251778.4844   23251778.5534
 -14900333.433 4 -11610645.059 4  21741559.176    21741560.292
  -2668543.94344  -2079383.40744  24289907.1524   24289907.4664
 -17124922.58944 -13344088.35044  21777905.5214   21777905.2944
 96  4 24  4 39 30.0000000  0  8G23G 6G17G22G26G28G 1G21
 -23072567.69544 -17978604.15944  20683894.6754   20683894.1134
  -7682356.32144  -5986242.88444  23454082.7244   23454082.3764
 -23681711.43944 -18453260.37444  20706209.2654   20706208.8764
  -1181779.59644   -920865.03944  24312828.1794   24312827.7894
  -3767059.95944  -2935365.06644  23266529.1864   23266527.3404
 -14965384.543 4 -11661334.231 4  21729180.439    21729181.765
  -2779574.42744  -2165900.67244  24268777.9524   24268779.4244
 -17175292.56244 -13383337.67744  21768320.5124   21768320.4234
 96  4 24  4 40  0.0000000  0  8G23G 6G17G22G26G28G 1G21
 -23055792.15444 -17965532.29844  20687086.7904   20687086.3594
  -7572122.58344  -5900346.48444  23475060.0674   23475059.6914
 -23664929.15344 -18440183.30744  20709402.8204   20709402.4384
  -1123323.12144   -875314.52844  24323951.3374   24323948.3014
  -3689135.32444  -2874644.59444  23281357.5284   23281356.5894
 -15029969.881 4 -11711660.467 4  21716890.099    21716891.388
  -2890560.07444  -2252382.95844  24247658.6054   24247657.4544
 -17225378.08144 -13422365.35044  21758789.3174   21758788.7504
 96  4 24  4 40 30.0000000  0  8G23G 6G17G22G26G28G 1G21
 -23038749.18644 -17952252.03244  20690330.2194   20690329.7634
  -7461727.85344  -5814324.64844  23496067.2344   23496066.5484
 -23647900.02844 -18426913.91044  20712643.3894   20712643.0854
  -1064647.96344   -829593.61244  24335117.2094   24335117.1784
  -3610834.00944  -2813630.59144  23296257.9984   23296256.8104
 -15094103.947 4 -11761635.062 4  21704685.805    21704687.004
  -3001511.88044  -2338838.88244  24226545.7714   24226544.4824
 -17275178.56944 -13461170.92944  21749312.8424   21749312.5644
 96  4 24  4 41  0.0000000  0  8G23G 6G17G22G26G28G 1G21
 -23021440.11644 -17938764.44844  20693623.7794   20693623.4174
  -7351190.10444  -5728191.34544  23517101.4324   23517100.7844
 -23630614.67644 -18413444.79044  20715932.5564   20715932.0794
  -1005764.06144   -783710.08644  24346323.5734   24346322.8824
  -3532160.74544  -2752326.75444  23311229.5784   23311228.9114
 -15157781.211 4 -11811253.711 4  21692568.529    21692569.596
  -3112415.26144  -2425257.10244  24205441.3364   24205440.8704
 -17324688.35744 -13499749.98044  21739891.2704   21739890.8704
 96  4 24  4 41 30.0000000  0  8G23G 6G17G22G26G28G 1G21
 -23003863.64544 -17925068.49944  20696968.2804   20696967.9194
  -7240510.36144  -5641947.37944  23538162.6554   23538161.0704
 -23613058.55844 -18399764.69744  20719273.4634   20719272.9654
   -946688.05244   -737676.86044  24357563.4614   24357565.2954
  -3453114.63144  -2690732.37344  23326270.9334   23326269.2024
 -15220997.453 4 -11860513.113 4  21680538.968    21680539.933
  -3223277.23644  -2511643.05044  24184345.9924   24184346.3544
 -17373913.09844 -13538106.92144  21730523.9994   21730523.7474
 96  4 24  4 42  0.0000000  0  8G23G 6G17G22G26G28G 1G21
 -22986011.81944 -17911158.03744  20700365.7664   20700365.4524
  -7129689.91844  -5555593.77044  23559251.8314   23559252.2564
 -23595215.16844 -18385860.66944  20722668.9684   20722668.7804
   -887433.01844   -691504.11044  24368839.8334   24368839.4634
  -3373709.82444  -2628858.48344  23341380.9284   23341379.2164
 -15283747.479 4 -11909409.235 4  21668597.837    21668598.966
  -3334102.41344  -2598000.30644  24163256.5724   24163257.0364
 -17422866.18544 -13576252.18244  21721208.6944   21721208.7594
 96  4 24  4 42 30.0000000  0  8G23G 6G17G22G26G28G 1G21
 -22967876.99944 -17897026.99544  20703816.4694   20703816.2004
  -7018724.72644  -5469127.38844  23580367.5474   23580367.5484
 -23577055.31944 -18371710.16244  20726124.6664   20726124.2524
   -828000.91444   -645193.40444  24380150.0394   24380147.9334
  -3293930.51744  -2566692.82344  23356562.8554   23356560.4514
 -15346014.501 4 -11957928.992 4  21656748.879    21656749.832
  -3444871.58144  -2684313.90644  24142176.9164   24142177.6004
 -17471554.29044 -13614190.96244  21711943.5514   21711943.6064
 96  4 24  4 43  0.0000000  0  8G23G 6G17G22G26G28G 1G21
 -22949481.59244 -17882692.90444  20707317.1884   20707316.7234
  -6907623.29744  -5382554.84244  23601509.3244   23601508.8574
 -23558590.60044 -18357322.09144  20729638.1624   20729637.6484
   -768409.83944   -598758.79044  24391488.1634   24391490.3844
  -3213772.64444  -2504232.14144  23371816.7234   23371815.0194
 -15407812.202 4 -12006083.045 4  21644989.289    21644990.182
  -3555598.93444  -2770594.97144  24121106.8074   24121107.4234
 -17520017.02844 -13651954.13144  21702721.4774   21702721.1684
 96  4 24  4 43 30.0000000  0  8G23G 6G17G22G26G28G 1G21
 -22930809.97044 -17868143.58944  20710870.2504   20710869.6154
  -6796355.82944  -5295852.92644  23622682.9414   23622682.8164
 -23539807.35544 -18342685.80044  20733212.5544   20733212.3314
   -708645.05444   -552188.82244  24402860.5644   24402862.3284
  -3133227.53844  -2441469.72844  23387143.5994   23387142.1674
 -15469127.989 4 -12053861.576 4  21633321.197    21633322.278
  -3666273.03944  -2856834.52344  24100045.6704   24100045.8674
 -17568254.18544 -13689541.52644  21693542.1024   21693541.9114
 96  4 24  4 44  0.0000000  0  8G23G 6G17G22G26G28G 1G21
 -22911840.28344 -17853362.01244  20714479.9584   20714479.3994
  -6684888.16444  -5208995.02844  23643894.6864   23643893.5834
 -23520697.22844 -18327794.79644  20736849.1304   20736848.9204
   -648660.74944   -505447.85144  24414275.7764   24414277.0364
  -3052272.52044  -2378387.89744  23402547.9034   23402546.6484
 -15529935.774 4 -12101244.273 4  21621749.721    21621751.158
  -3776846.20344  -2942995.39544  24079004.7594   24079004.7364
 -17616241.22344 -13726934.01544  21684410.6354   21684410.6294
 96  4 24  4 44 30.0000000  0  8G23G 6G17G22G26G28G 1G21
 -22892606.65444 -17838374.76744  20718139.9484   20718139.4394
  -6573233.14344  -5121991.14844  23665141.0684   23665139.1164
 -23501290.39644 -18312672.59844  20740542.2704   20740541.9454
   -588464.19544   -458541.47644  24425732.1274   24425732.5144
  -2970921.98444  -2314997.87844  23418028.8924   23418026.8604
 -15590255.497 4 -12148246.655 4  21610271.375    21610272.776
  -3887323.19944  -3029081.37744  24057980.7324   24057980.9174
 -17663978.88544 -13764132.18544  21675326.4814   21675326.5294
 96  4 24  4 45  0.0000000  0  8G23G 6G17G22G26G28G 1G21
 -22873120.69544 -17823190.90044  20721848.0824   20721847.3734
  -6461393.54844  -5034843.42744  23686423.8484   23686424.6084
 -23481622.17144 -18297346.71044  20744284.8624   20744284.4614
   -528066.06844   -411478.00044  24437225.5144   24437224.7574
  -2889214.06144  -2251329.35444  23433578.5114   23433577.9174
 -15650104.154 4 -12194881.964 4  21598882.600    21598883.865
  -3997724.30944  -3115108.23044  24036971.7064   24036971.7964
 -17711477.18144 -13801143.84244  21666287.9894   21666287.7754
 96  4 24  4 45 30.0000000  0  8G23G 6G17G22G26G28G 1G21
 -22853375.86444 -17807805.31544  20725605.4774   20725604.9294
  -6349377.85244  -4947558.47344  23707739.7524   23707738.8624
 -23461705.16344 -18281826.96444  20748075.1244   20748074.7404
   -467465.11444   -364256.45744  24448758.5104   24448755.5724
  -2807172.22944  -2187400.65244  23449190.0834   23449188.7844
 -15709481.311 4 -12241149.883 4  21587583.330    21587584.686
  -4108051.21644  -3201077.21144  24015978.4624   24015980.7874
 -17758720.93044 -13837957.14944  21657297.5614   21657297.3624
 96  4 24  4 46  0.0000000  0  8G28G23G 6G17G22G26G 1G21
 -15768385.805 4 -12287049.493 4  21576374.438    21576375.146
 -22833387.18944 -17792229.71944  20729409.4774   20729408.7054
  -6237213.86944  -4860157.98344  23729084.4204   23729083.9984
 -23441551.32644 -18266122.67944  20751910.2544   20751909.7754
   -406677.60844   -316889.58244  24460325.2344   24460326.9324
  -2724789.94844  -2123206.69544  23464866.1824   23464864.0824
  -4218312.36544  -3286994.99944  23994995.7984   23994996.8204
 -17805692.77744 -13874558.58044  21648358.8844   21648359.0894
 96  4 24  4 46 30.0000000  0  8G28G23G 6G17G22G26G 1G21
 -15826820.068 4 -12332582.685 4  21565254.740    21565255.739
 -22813151.49944 -17776461.64644  20733259.8244   20733259.1334
  -6124926.50744  -4772661.32444  23750452.4034   23750452.5744
 -23421154.01944 -18250228.67844  20755791.7144   20755791.2854
   -345733.35644   -269400.58944  24471921.8554   24471919.7494
  -2642071.95844  -2058751.09344  23480607.6694   23480605.2474
  -4328537.85544  -3372884.96744  23974020.7854   23974021.0814
 -17852398.97144 -13910953.01344  21639471.0854   21639471.1594
 96  4 24  4 47  0.0000000  0  8G28G23G 6G17G22G26G 1G21
 -15884770.172 4 -12377738.612 4  21554227.092    21554228.222
 -22792649.93044 -17760486.39344  20737161.2014   20737160.6754
  -6012527.25944  -4685077.44244  23771840.5954   23771839.9044
 -23400495.46544 -18234131.11344  20759722.5584   20759722.2014
   -284627.78244   -221785.86644  24483548.5914   24483551.6904
  -2559003.23344  -1994022.19944  23496415.2224   23496412.9194
  -4438722.41844  -3458743.08344  23953052.9054   23953054.6654
 -17898837.03944 -13947138.51544  21630634.3584   21630634.1164
 96  4 24  4 47 30.0000000  0  8G28G23G 6G17G22G26G 1G21
 -15942240.733 4 -12422520.869 4  21543290.672    21543292.073
 -22771895.47644 -17744314.09044  20741110.7064   20741110.2254
  -5900040.28344  -4597425.24744  23793245.8974   23793249.2364
 -23379581.03744 -18217834.16044  20763702.6484   20763702.3384
   -223374.36144   -174055.95744  24495206.5144   24495205.9374
  -2475577.07144  -1929014.79344  23512290.7534   23512289.5884
  -4548867.36044  -3544570.28544  23932093.1614   23932092.3634
 -17945010.03244 -13983117.46344  21621848.0914   21621847.7154
 96  4 24  4 48  0.0000000  0  8G28G23G 6G17G22G26G 1G21
 -15999213.724 4 -12466915.416 4  21532449.214    21532450.572
 -22750876.62644 -17727935.76244  20745110.3374   20745109.8874
  -5787447.87644  -4509690.86944  23814671.9724   23814671.6154
 -23358390.32644 -18201321.91944  20767735.1974   20767734.9134
   -161959.95644   -126200.59044  24506892.0634   24506892.9024
  -2391780.78544  -1863719.01644  23528236.2624   23528235.4514
  -4658955.40244  -3630353.15844  23911143.9754   23911143.2774
 -17990913.22544 -14018886.18044  21613112.6304   21613112.8494
